[[{"header":{"parameterUnit":"m.s-1","parameterCategory":1,"la1":30.6,"la2":29.2853,"lo1":-89.7004,"lo2":-87.6739,"dy":0.0162,"dx":0.0183,"nx":112,"ny":82,"refTime":"2025-04-11T12:00:00:Z","depth":0,"parameterNumber":2,"parameterNumberName":"U-component_of_WINDS"},"data":[0.0,0.0,0.0,0.0,0.0,0.0,0.0,0.0,0.0,0.0,0.0,0.0,0.0,0.0,0.0,0.0,0.0,0.0,0.0,0.0,0.0,0.0,0.0,0.0,0.0,0.0,0.0,0.0,0.0,0.0,0.0,0.0,0.0,0.0,0.0,0.0,0.0,0.0,0.0,0.0,0.0,0.0,0.0,0.0,0.0,0.0,0.0,0.0,0.0,0.0,0.0,0.0,0.0,0.0,0.0,0.0,0.0,0.0,0.0,0.0,0.0,0.0,0.0,0.0,0.0,0.0,0.0,0.0,0.0,0.0,0.0,0.0,0.0,0.0,0.0,0.0,0.0,0.0,0.0,0.0,0.0,0.0,0.0,0.0,0.0,0.0,0.0,0.0,0.0,0.0,0.0,3.8531,3.8076,3.7822,3.7822,3.7084,3.6615,3.6615,0.0,0.0,0.0,0.0,0.0,0.0,0.0,0.0,0.0,0.0,0.0,0.0,0.0,0.0,0.0,0.0,0.0,0.0,0.0,0.0,0.0,0.0,0.0,0.0,0.0,0.0,0.0,0.0,0.0,0.0,0.0,0.0,0.0,0.0,0.0,0.0,0.0,0.0,0.0,0.0,0.0,0.0,0.0,0.0,0.0,0.0,0.0,0.0,0.0,0.0,0.0,0.0,0.0,0.0,0.0,0.0,0.0,0.0,0.0,0.0,0.0,0.0,0.0,0.0,0.0,0.0,0.0,0.0,0.0,0.0,0.0,0.0,0.0,0.0,0.0,0.0,0.0,0.0,0.0,0.0,0.0,0.0,0.0,0.0,0.0,0.0,0.0,0.0,0.0,0.0,0.0,0.0,0.0,0.0,0.0,0.0,0.0,0.0,0.0,0.0,0.0,0.0,0.0,0.0,3.631,3.6883,3.744,3.7822,3.7822,3.7084,3.6615,3.6615,0.0,0.0,0.0,0.0,0.0,0.0,0.0,0.0,0.0,0.0,0.0,0.0,0.0,0.0,0.0,0.0,0.0,0.0,0.0,0.0,0.0,0.0,0.0,0.0,0.0,0.0,0.0,0.0,0.0,0.0,0.0,0.0,0.0,0.0,0.0,0.0,0.0,0.0,0.0,0.0,0.0,0.0,0.0,0.0,0.0,0.0,0.0,0.0,0.0,0.0,0.0,0.0,0.0,0.0,0.0,0.0,0.0,0.0,0.0,0.0,0.0,0.0,0.0,0.0,0.0,0.0,0.0,0.0,0.0,0.0,0.0,0.0,0.0,0.0,0.0,0.0,0.0,0.0,0.0,0.0,0.0,0.0,0.0,0.0,0.0,0.0,0.0,0.0,0.0,0.0,0.0,0.0,0.0,0.0,0.0,0.0,0.0,0.0,0.0,0.0,0.0,0.0,0.0,3.708,3.6331,3.6568,3.6585,3.6538,3.6538,3.6243,3.6006,3.6006,3.5386,0.0,0.0,0.0,0.0,0.0,0.0,0.0,0.0,0.0,0.0,0.0,0.0,0.0,0.0,0.0,0.0,0.0,0.0,0.0,0.0,0.0,0.0,0.0,0.0,0.0,0.0,0.0,0.0,0.0,0.0,0.0,0.0,0.0,0.0,0.0,0.0,0.0,0.0,0.0,0.0,0.0,0.0,0.0,0.0,0.0,0.0,0.0,0.0,0.0,0.0,0.0,0.0,0.0,0.0,0.0,0.0,0.0,0.0,0.0,0.0,0.0,0.0,0.0,0.0,0.0,0.0,0.0,0.0,0.0,0.0,0.0,0.0,0.0,0.0,0.0,0.0,0.0,0.0,0.0,0.0,0.0,0.0,0.0,0.0,0.0,0.0,0.0,0.0,0.0,0.0,0.0,0.0,0.0,0.0,0.0,0.0,0.0,0.0,0.0,0.0,0.0,0.0,3.7171,3.6911,3.6917,3.6243,3.5782,3.5782,3.5469,3.5265,3.5265,3.4487,0.0,0.0,0.0,0.0,0.0,0.0,0.0,0.0,0.0,0.0,0.0,0.0,0.0,0.0,0.0,0.0,0.0,0.0,0.0,0.0,0.0,0.0,0.0,0.0,0.0,0.0,0.0,0.0,0.0,0.0,0.0,0.0,0.0,0.0,0.0,0.0,0.0,0.0,0.0,0.0,0.0,0.0,0.0,0.0,0.0,0.0,0.0,0.0,0.0,0.0,0.0,0.0,0.0,0.0,0.0,0.0,0.0,0.0,0.0,0.0,0.0,0.0,0.0,0.0,0.0,0.0,0.0,0.0,0.0,0.0,0.0,0.0,0.0,0.0,0.0,0.0,0.0,0.0,0.0,0.0,0.0,0.0,0.0,0.0,0.0,0.0,0.0,0.0,0.0,0.0,0.0,0.0,0.0,0.0,0.0,0.0,0.0,0.0,0.0,0.0,0.0,0.0,3.73,3.77,3.769,3.698,3.6492,3.6492,3.5288,3.4547,3.4547,3.3365,0.0,0.0,0.0,0.0,0.0,0.0,0.0,0.0,0.0,0.0,0.0,0.0,0.0,0.0,0.0,0.0,0.0,0.0,0.0,0.0,0.0,0.0,0.0,0.0,0.0,0.0,0.0,0.0,0.0,0.0,0.0,0.0,0.0,0.0,0.0,0.0,0.0,0.0,0.0,0.0,0.0,0.0,0.0,0.0,0.0,0.0,0.0,0.0,0.0,0.0,0.0,0.0,0.0,0.0,0.0,0.0,0.0,0.0,0.0,0.0,0.0,0.0,0.0,0.0,0.0,0.0,0.0,0.0,0.0,0.0,0.0,0.0,0.0,0.0,0.0,0.0,0.0,0.0,0.0,0.0,0.0,0.0,0.0,0.0,0.0,0.0,0.0,0.0,0.0,0.0,0.0,0.0,0.0,0.0,0.0,0.0,0.0,0.0,0.0,0.0,0.0,0.0,3.7269,3.748,0.0,3.7365,3.6615,3.6615,3.5715,3.4936,3.4502,0.0,0.0,0.0,0.0,0.0,0.0,0.0,0.0,0.0,0.0,0.0,0.0,0.0,0.0,0.0,0.0,0.0,0.0,0.0,0.0,0.0,0.0,0.0,0.0,0.0,0.0,0.0,0.0,0.0,0.0,0.0,0.0,0.0,0.0,0.0,0.0,0.0,0.0,0.0,0.0,0.0,0.0,0.0,0.0,0.0,0.0,0.0,0.0,0.0,0.0,0.0,0.0,0.0,0.0,0.0,0.0,0.0,0.0,0.0,0.0,0.0,0.0,0.0,0.0,0.0,0.0,0.0,0.0,0.0,0.0,0.0,0.0,0.0,0.0,0.0,0.0,0.0,0.0,0.0,0.0,0.0,0.0,0.0,0.0,0.0,0.0,0.0,0.0,0.0,0.0,0.0,0.0,0.0,0.0,0.0,0.0,0.0,0.0,0.0,0.0,0.0,0.0,3.7643,3.7183,3.7359,0.0,3.77,3.6722,3.6964,3.5872,3.4801,3.3903,0.0,0.0,0.0,0.0,0.0,0.0,0.0,0.0,0.0,0.0,0.0,0.0,0.0,0.0,0.0,0.0,0.0,0.0,0.0,0.0,0.0,0.0,0.0,0.0,0.0,0.0,0.0,0.0,0.0,0.0,0.0,0.0,0.0,0.0,0.0,0.0,0.0,0.0,0.0,0.0,0.0,0.0,0.0,0.0,0.0,0.0,0.0,0.0,0.0,0.0,0.0,0.0,0.0,0.0,0.0,0.0,0.0,0.0,0.0,0.0,0.0,0.0,0.0,0.0,0.0,0.0,0.0,0.0,0.0,0.0,0.0,0.0,0.0,0.0,0.0,0.0,0.0,0.0,0.0,0.0,0.0,0.0,0.0,0.0,0.0,0.0,0.0,0.0,0.0,0.0,0.0,0.0,0.0,0.0,0.0,0.0,0.0,0.0,0.0,0.0,0.0,0.0,3.7513,3.7134,3.7526,3.985,3.8003,3.6964,3.7748,3.5784,3.3918,0.0,0.0,0.0,0.0,0.0,0.0,0.0,0.0,0.0,0.0,0.0,0.0,0.0,0.0,0.0,0.0,0.0,0.0,0.0,0.0,0.0,0.0,0.0,0.0,0.0,0.0,0.0,0.0,0.0,0.0,0.0,0.0,0.0,0.0,0.0,0.0,0.0,0.0,0.0,0.0,0.0,0.0,0.0,0.0,0.0,0.0,0.0,0.0,0.0,0.0,0.0,0.0,0.0,0.0,0.0,0.0,0.0,0.0,0.0,0.0,0.0,0.0,0.0,0.0,0.0,0.0,0.0,0.0,0.0,0.0,0.0,0.0,0.0,0.0,0.0,0.0,0.0,0.0,0.0,0.0,0.0,0.0,0.0,0.0,0.0,0.0,0.0,0.0,0.0,0.0,0.0,0.0,0.0,0.0,0.0,0.0,0.0,0.0,0.0,0.0,0.0,0.0,0.0,3.6872,3.7297,3.8133,3.9901,3.8962,3.8117,3.7806,3.6235,3.447,3.2602,0.0,0.0,0.0,0.0,0.0,0.0,0.0,0.0,0.0,0.0,0.0,0.0,0.0,0.0,0.0,0.0,0.0,0.0,0.0,0.0,0.0,0.0,0.0,0.0,0.0,0.0,0.0,0.0,0.0,0.0,0.0,0.0,0.0,0.0,0.0,0.0,0.0,0.0,0.0,0.0,0.0,0.0,0.0,0.0,0.0,0.0,0.0,0.0,0.0,0.0,0.0,0.0,0.0,0.0,0.0,0.0,0.0,0.0,0.0,0.0,0.0,0.0,0.0,0.0,0.0,0.0,0.0,0.0,0.0,0.0,0.0,0.0,0.0,0.0,0.0,0.0,0.0,0.0,0.0,0.0,0.0,0.0,0.0,0.0,0.0,0.0,0.0,0.0,0.0,0.0,0.0,0.0,0.0,0.0,0.0,0.0,0.0,0.0,0.0,0.0,0.0,0.0,3.6582,3.7396,3.8374,3.9952,3.9102,3.8246,3.7806,3.6456,3.4632,3.2272,0.0,0.0,0.0,0.0,0.0,0.0,0.0,0.0,0.0,0.0,0.0,0.0,0.0,0.0,0.0,0.0,0.0,0.0,0.0,0.0,0.0,0.0,0.0,0.0,0.0,0.0,0.0,0.0,0.0,0.0,0.0,0.0,0.0,0.0,0.0,0.0,0.0,0.0,0.0,0.0,0.0,0.0,0.0,0.0,0.0,0.0,0.0,0.0,0.0,0.0,0.0,0.0,0.0,0.0,0.0,0.0,0.0,0.0,0.0,0.0,0.0,0.0,0.0,0.0,0.0,0.0,0.0,0.0,0.0,0.0,0.0,0.0,0.0,0.0,0.0,0.0,0.0,0.0,0.0,0.0,0.0,0.0,0.0,0.0,0.0,0.0,0.0,0.0,0.0,0.0,0.0,0.0,0.0,0.0,0.0,0.0,0.0,0.0,0.0,0.0,0.0,0.0,3.6514,3.7449,3.8486,3.9952,3.8832,3.7994,3.7806,3.6515,3.4537,3.1734,0.0,0.0,0.0,0.0,0.0,0.0,0.0,0.0,0.0,0.0,0.0,0.0,0.0,0.0,0.0,0.0,0.0,0.0,0.0,0.0,0.0,0.0,0.0,0.0,0.0,0.0,0.0,0.0,0.0,0.0,0.0,0.0,0.0,0.0,0.0,0.0,0.0,0.0,0.0,0.0,0.0,0.0,0.0,0.0,0.0,0.0,0.0,0.0,0.0,0.0,0.0,0.0,0.0,0.0,0.0,0.0,0.0,0.0,0.0,0.0,3.9973,0.0,0.0,0.0,0.0,0.0,0.0,0.0,0.0,0.0,0.0,0.0,0.0,0.0,0.0,0.0,0.0,0.0,0.0,0.0,0.0,0.0,0.0,0.0,0.0,0.0,0.0,0.0,0.0,0.0,0.0,0.0,0.0,0.0,0.0,0.0,0.0,0.0,0.0,0.0,0.0,0.0,3.6578,3.7866,3.9032,4.002,3.9799,3.9119,3.7921,3.7036,3.5347,3.2451,3.1315,0.0,0.0,0.0,0.0,0.0,0.0,0.0,0.0,0.0,0.0,0.0,0.0,0.0,0.0,0.0,0.0,0.0,0.0,0.0,0.0,0.0,0.0,0.0,0.0,0.0,0.0,0.0,0.0,0.0,0.0,0.0,0.0,0.0,0.0,0.0,0.0,0.0,0.0,0.0,0.0,0.0,0.0,0.0,0.0,0.0,0.0,0.0,0.0,0.0,0.0,0.0,0.0,0.0,0.0,0.0,0.0,0.0,0.0,0.0,0.0,4.006,0.0,0.0,0.0,0.0,0.0,0.0,0.0,0.0,0.0,0.0,0.0,0.0,0.0,0.0,0.0,0.0,0.0,0.0,0.0,0.0,0.0,0.0,0.0,0.0,0.0,0.0,0.0,0.0,0.0,0.0,0.0,0.0,0.0,0.0,0.0,0.0,0.0,0.0,0.0,0.0,3.6624,3.8371,3.9489,3.9542,3.9542,3.8924,3.7322,3.6616,3.5179,3.2646,3.1554,0.0,0.0,0.0,0.0,0.0,0.0,0.0,0.0,0.0,0.0,0.0,0.0,0.0,0.0,0.0,0.0,0.0,0.0,0.0,0.0,0.0,0.0,0.0,0.0,0.0,0.0,0.0,0.0,0.0,0.0,0.0,0.0,0.0,0.0,0.0,0.0,0.0,0.0,0.0,0.0,0.0,0.0,0.0,0.0,0.0,0.0,0.0,0.0,0.0,0.0,0.0,0.0,0.0,3.9295,3.8908,3.8791,3.8104,3.7822,3.7875,3.8906,3.9493,3.9679,3.9679,0.0,0.0,0.0,0.0,0.0,0.0,0.0,0.0,0.0,0.0,0.0,0.0,0.0,0.0,0.0,0.0,0.0,0.0,0.0,0.0,0.0,0.0,0.0,0.0,3.4106,3.3789,0.0,0.0,0.0,0.0,0.0,0.0,0.0,0.0,0.0,0.0,0.0,0.0,3.6653,3.8505,3.9437,3.8799,3.869,3.8117,3.6722,3.6088,3.497,3.2976,3.2138,3.0791,0.0,0.0,0.0,0.0,0.0,0.0,0.0,0.0,0.0,0.0,0.0,0.0,0.0,0.0,0.0,0.0,0.0,0.0,0.0,0.0,0.0,0.0,0.0,0.0,0.0,0.0,0.0,0.0,0.0,0.0,0.0,0.0,4.2788,4.2711,0.0,0.0,0.0,0.0,0.0,0.0,0.0,0.0,0.0,0.0,0.0,0.0,0.0,3.9425,4.007,3.9986,3.963,3.9086,3.8987,3.8559,3.7963,3.785,3.7792,3.7792,3.7988,0.0,3.8092,3.8092,0.0,0.0,0.0,0.0,0.0,0.0,0.0,0.0,0.0,0.0,0.0,0.0,0.0,0.0,0.0,0.0,0.0,0.0,0.0,0.0,0.0,0.0,3.6151,3.4817,3.44,3.4181,0.0,3.299,3.2431,3.1585,3.1907,0.0,0.0,0.0,0.0,0.0,0.0,0.0,3.6519,3.7541,3.8035,3.7978,3.7921,3.7557,3.6676,3.6522,3.5799,3.4325,3.3066,3.1664,3.0113,2.778,0.0,0.0,0.0,0.0,0.0,0.0,0.0,0.0,0.0,0.0,0.0,0.0,0.0,0.0,0.0,0.0,0.0,0.0,0.0,0.0,0.0,0.0,0.0,0.0,0.0,0.0,0.0,0.0,0.0,4.3014,4.2559,4.2244,4.1446,4.078,0.0,0.0,0.0,0.0,0.0,0.0,0.0,0.0,0.0,3.9462,3.9157,3.9343,4.007,3.9662,3.9262,3.8908,3.8469,3.8092,3.7748,3.7322,3.716,3.7084,3.612,3.5664,3.5791,3.7188,3.7582,3.7157,0.0,0.0,0.0,0.0,3.6722,3.6282,3.7465,3.7383,0.0,3.6226,0.0,0.0,0.0,0.0,0.0,0.0,0.0,0.0,0.0,0.0,3.5845,3.5202,3.4608,3.4105,3.3691,3.3064,3.2086,0.0,3.0906,3.0822,2.9186,0.0,0.0,0.0,0.0,3.5091,3.6524,3.7335,3.7632,3.7144,3.716,3.6814,3.607,3.6006,3.5543,3.458,3.3933,3.272,3.07,2.8912,2.704,0.0,0.0,0.0,0.0,0.0,0.0,0.0,0.0,0.0,0.0,0.0,0.0,0.0,0.0,0.0,0.0,0.0,0.0,0.0,0.0,0.0,0.0,0.0,0.0,0.0,0.0,0.0,0.0,4.2921,4.2302,4.1853,4.115,4.0528,0.0,0.0,0.0,0.0,0.0,0.0,3.9292,3.9276,3.9276,3.9276,3.9276,3.9479,3.9782,3.9209,3.8674,3.8325,3.779,3.7397,3.7175,3.6353,3.5963,3.5837,3.4321,3.3671,3.3794,3.5682,3.6136,3.5672,3.5672,3.5329,3.5007,3.5943,3.6001,3.5704,3.7259,3.7342,3.6589,3.6029,0.0,3.4732,3.3531,0.0,0.0,0.0,0.0,3.554,3.5491,3.5493,3.5507,3.5499,3.4758,3.3945,3.3671,3.289,3.1799,0.0,3.0527,3.0198,2.8236,0.0,0.0,0.0,0.0,3.4685,3.5875,3.6719,3.6995,3.6399,3.6337,3.6117,3.5569,3.5504,3.5295,3.4771,3.4577,3.3489,3.1114,3.0002,2.8309,2.5892,0.0,0.0,0.0,0.0,0.0,0.0,0.0,0.0,0.0,0.0,0.0,0.0,0.0,0.0,0.0,0.0,0.0,0.0,0.0,0.0,0.0,0.0,0.0,0.0,0.0,0.0,0.0,0.0,0.0,4.1793,4.0814,0.0,0.0,0.0,0.0,4.007,4.007,4.0054,4.002,4.002,4.002,4.002,4.002,3.9697,3.8962,3.8908,3.8157,3.6722,3.6661,3.6275,3.5554,3.4595,3.4148,3.4081,3.3101,3.2664,3.2664,3.2792,3.2848,3.2821,3.2821,3.2788,3.3021,3.4669,3.5231,3.545,3.7197,3.7342,3.6676,3.6607,3.507,3.3165,3.2854,3.2932,0.0,0.0,3.482,3.5507,3.5507,3.5509,3.5524,3.5489,3.4758,3.3739,3.289,3.196,3.1349,0.0,3.1502,3.1296,3.0527,0.0,3.0804,3.1554,3.2501,3.3463,3.4122,3.503,3.5619,3.5554,3.5554,3.5569,3.5504,3.5504,3.5489,3.5459,3.4846,3.3695,3.1792,3.0627,2.8864,2.6496,2.5335,0.0,0.0,0.0,0.0,0.0,0.0,0.0,0.0,0.0,0.0,0.0,0.0,0.0,0.0,0.0,0.0,0.0,0.0,0.0,0.0,0.0,0.0,0.0,0.0,0.0,0.0,0.0,0.0,4.2526,4.1718,0.0,4.0849,4.0358,4.007,4.007,4.007,4.007,4.007,4.007,4.007,4.007,3.961,3.9193,3.8908,3.793,3.7128,3.6615,3.5439,3.4751,3.4476,3.3533,3.3101,3.3031,3.2105,3.1669,3.1669,3.1057,3.1476,3.2593,3.2593,3.2582,3.2723,3.3293,3.3536,3.3604,3.4266,3.4697,3.4981,3.491,3.3975,3.2779,3.2653,3.2678,3.2837,3.3064,3.3407,3.3614,3.3614,3.3616,3.3616,3.3616,3.289,3.2105,3.1742,3.0983,3.0367,3.0449,3.0472,3.0099,2.9152,2.9768,3.0341,3.0256,3.1363,3.2602,3.3848,3.4368,3.4758,3.5424,3.5504,3.5504,3.5504,3.5504,3.5504,3.5504,3.528,3.4551,3.326,3.1534,2.9806,2.7978,2.6197,2.4337,0.0,0.0,0.0,0.0,0.0,0.0,0.0,0.0,0.0,0.0,0.0,0.0,0.0,0.0,0.0,0.0,0.0,0.0,0.0,0.0,0.0,0.0,0.0,0.0,0.0,0.0,4.3155,4.2942,4.2282,4.1818,4.1578,4.1119,4.073,4.0476,4.046,4.0341,4.0087,4.007,3.9969,3.9714,3.9193,3.8619,3.8101,3.7128,3.6508,3.6212,3.5059,3.4312,3.3959,3.3031,3.2464,3.2105,3.1119,3.0696,3.0696,3.0075,3.0495,3.1696,3.1696,3.1696,3.1696,3.2033,3.2105,3.2177,3.2464,3.3031,3.3449,3.3171,3.2593,3.2033,3.1756,3.1901,3.2105,3.2105,3.2393,3.2593,3.2593,3.2593,3.2593,3.2593,3.1888,3.118,3.118,3.0482,2.9792,2.9792,2.9792,2.9553,2.88,2.9138,2.9512,2.9619,3.0322,3.146,3.2891,3.3602,3.4245,3.4905,3.5294,3.5415,3.5175,3.516,3.507,3.4846,3.4831,3.4386,3.3393,3.1636,3.0035,2.8649,2.6432,2.4165,2.1748,0.0,0.0,0.0,0.0,0.0,0.0,0.0,0.0,0.0,0.0,0.0,0.0,0.0,0.0,0.0,0.0,0.0,0.0,0.0,0.0,0.0,0.0,0.0,4.2788,4.2711,4.2767,4.2934,4.2474,4.2201,4.2342,4.2303,4.1946,4.1236,4.1186,4.0848,4.0104,4.0054,3.9696,3.8908,3.8854,3.8101,3.66,3.6554,3.6228,3.5504,3.5439,3.492,3.3959,3.3031,3.2105,3.118,3.0279,2.9856,2.9869,2.9792,2.9792,2.9792,2.9792,2.9792,2.9934,3.0833,3.118,3.1315,3.2249,3.2522,3.2393,3.1462,3.118,3.097,3.0075,3.0419,3.118,3.118,3.1815,3.2536,3.2536,3.2536,3.2536,3.2536,3.1829,3.118,3.118,3.0419,2.9792,2.9792,2.9792,2.9792,2.9792,2.8846,2.8518,2.9624,2.9641,0.0,3.1018,3.282,3.3959,3.4027,3.4905,3.5235,3.4562,3.4487,3.4203,3.3559,3.3499,3.3084,3.2205,3.0755,2.9479,2.846,2.6021,2.368,2.1419,0.0,0.0,0.0,0.0,0.0,0.0,0.0,0.0,0.0,0.0,0.0,0.0,0.0,0.0,0.0,0.0,0.0,0.0,0.0,0.0,0.0,0.0,4.2864,4.2711,4.3014,4.3541,4.4353,4.3385,4.2993,4.3733,4.2345,4.1243,4.1044,4.05,3.9901,3.9186,3.9154,3.8853,3.8092,3.7541,3.7008,3.66,3.6054,3.5733,3.5504,3.4758,3.4245,3.3959,3.3031,3.2464,3.2177,3.118,3.0833,3.0758,3.0075,2.9792,2.9792,2.9792,2.9792,2.9869,3.0075,3.0216,3.0355,3.1254,3.1119,3.0633,3.1044,3.0758,3.0139,2.9869,3.0011,3.0216,3.0216,3.0355,3.057,3.057,3.057,3.057,3.057,3.0355,3.0216,3.0216,2.9998,2.9792,2.9792,2.9792,2.9792,2.9792,2.8846,2.8518,2.9624,2.9069,0.0,3.0944,3.2249,3.3241,3.3945,3.4905,3.5429,3.5235,3.4756,3.4397,3.4218,3.3769,3.3362,3.3161,3.1077,2.9038,2.7067,2.5302,2.3653,0.0,0.0,0.0,0.0,0.0,0.0,0.0,0.0,0.0,0.0,0.0,0.0,0.0,0.0,0.0,0.0,0.0,0.0,0.0,0.0,0.0,0.0,4.2662,4.321,4.3274,4.3704,4.4254,4.4917,4.4314,4.412,4.4815,4.3132,4.1831,4.1519,4.0485,3.9537,3.885,3.8531,3.8062,3.7354,3.6843,3.6446,3.6165,3.5733,3.5504,3.5504,3.4905,3.4394,3.3959,3.3449,3.2961,0.0,3.2033,3.1815,3.1742,3.1193,3.0709,0.0,0.0,0.0,0.0,0.0,2.9792,2.9869,3.0419,3.0279,2.9856,3.0419,3.0203,2.9792,2.9792,2.9792,2.9792,2.9792,2.9792,2.9792,2.9792,2.9792,2.9792,2.9792,2.9792,2.9792,2.9792,2.9792,2.9792,2.9792,2.9792,0.0,2.9792,2.8846,2.8518,2.9624,2.8858,2.8718,3.0393,3.1389,3.2393,3.331,3.4259,3.4934,3.51,3.4696,0.0,0.0,0.0,3.2825,3.2164,3.0488,0.0,0.0,0.0,0.0,0.0,0.0,0.0,0.0,2.2307,2.2703,0.0,0.0,0.0,0.0,0.0,0.0,0.0,0.0,0.0,0.0,0.0,0.0,0.0,0.0,0.0,0.0,4.3154,4.3965,4.4201,4.4657,4.504,4.5214,4.5213,4.5281,4.5578,4.4118,4.2906,4.2249,4.0723,3.9483,3.8661,0.0,0.0,0.0,0.0,3.6165,3.5504,3.5504,3.5504,3.5504,3.5504,3.5052,3.4177,3.4177,3.3739,3.289,3.282,3.2749,3.2749,3.2664,3.2105,3.1254,3.0216,2.9792,2.9792,2.9792,2.9792,2.9792,2.9792,0.0,0.0,2.9792,2.9792,2.9792,2.9792,2.9792,2.9792,2.9792,2.9792,2.9792,2.9792,2.9792,2.9792,2.9792,2.9792,2.9792,2.9792,2.9792,2.9792,2.9792,2.9792,2.9792,2.9792,2.8846,2.8518,2.9624,2.8858,2.8505,2.9624,3.062,3.1536,3.2536,0.0,0.0,3.4573,3.4517,3.3978,3.2811,3.2662,3.1974,3.056,2.9652,2.8991,2.8633,2.7825,2.67,2.5149,2.5475,2.4384,2.2182,2.1271,2.1111,0.0,0.0,0.0,0.0,0.0,0.0,0.0,0.0,0.0,0.0,0.0,0.0,0.0,0.0,0.0,4.2767,4.3536,4.426,4.4821,4.589,4.6672,4.6687,4.5814,4.547,4.6169,4.3813,4.2204,4.2059,4.0448,3.894,3.7728,3.7531,3.692,3.5763,3.5733,3.5604,3.5504,3.5504,3.5504,3.5504,0.0,0.0,3.5213,3.5213,3.5133,3.492,3.4109,3.3739,3.3671,3.289,3.2464,3.2177,3.0419,2.9792,2.9792,2.9792,2.9792,2.9792,2.9792,2.9792,2.9792,2.9792,2.9792,2.9792,2.9792,2.9792,0.0,2.9792,2.9792,2.9792,2.9792,2.9792,2.9792,2.9792,2.9792,2.9792,2.9792,2.9792,2.9792,2.9792,2.9792,2.9792,2.9792,2.8846,2.8518,2.9624,2.8858,2.8505,2.9624,3.062,3.1536,3.2536,3.3449,3.4336,3.5245,3.4801,3.4367,3.4113,3.3604,3.2847,3.1858,3.0914,3.0106,2.935,2.8413,2.7373,2.6299,2.587,2.4952,2.3753,2.2964,2.2454,0.0,0.0,0.0,0.0,0.0,0.0,0.0,0.0,0.0,0.0,0.0,4.1834,4.1574,0.0,4.2936,4.36,4.4538,4.5448,4.6158,4.7098,4.7572,4.713,4.6349,4.5941,4.633,4.4114,4.2458,4.2062,4.0204,3.8561,3.7449,3.6806,3.6163,3.5534,3.5504,3.5504,3.5504,3.5504,3.5504,3.5504,3.5504,3.5504,3.5504,3.5504,3.5504,3.5439,3.4986,3.4758,3.4691,3.3671,3.331,3.3171,3.1769,3.0921,3.0419,2.9998,2.9792,2.9792,2.9792,2.9792,2.9792,2.9792,2.9792,2.9792,2.9792,2.9792,2.9792,2.9792,2.9792,2.9792,2.9792,2.9792,2.9792,2.9792,2.9792,2.9934,3.0419,3.0139,2.9934,3.0419,3.0139,2.9792,2.9792,2.9365,2.9106,2.9702,2.9287,2.9197,2.9714,3.0216,3.1057,3.2464,3.3031,3.3891,3.5359,3.4876,3.4472,3.4472,3.3858,3.3285,3.2882,3.1542,3.0733,3.0564,2.9207,2.8087,2.7377,2.6451,2.5519,2.4462,2.3527,2.2659,0.0,0.0,0.0,0.0,0.0,0.0,0.0,0.0,4.2615,4.2108,4.2096,4.1967,4.1511,4.2433,4.3575,4.4246,4.5375,4.6388,4.7104,4.7756,4.7876,4.7254,4.6711,4.6383,4.6383,4.45,4.286,4.1869,3.9989,3.8427,3.7308,3.6252,3.5639,3.5504,3.5504,3.5504,3.5504,3.5504,3.5504,3.5504,3.5504,3.5504,3.5504,3.5504,3.5504,3.5504,3.5504,3.5504,3.5439,3.4624,3.4312,3.4177,3.3241,3.2393,3.1609,3.0495,2.9934,2.9792,2.9792,2.9792,2.9792,2.9792,2.9792,2.9792,2.9792,2.9792,2.9792,2.9792,2.9792,2.9792,2.9792,2.9792,2.9792,2.9792,2.9934,3.0279,3.1044,3.0771,3.057,3.1328,3.0696,3.0075,3.0075,2.9934,2.9792,2.9792,2.9792,2.9792,2.9792,2.9792,3.0495,3.2393,3.2593,3.3394,3.5359,3.4996,3.4666,3.4666,3.4188,3.3811,3.3609,3.2028,3.1241,3.1512,2.9934,2.883,2.8426,2.7371,2.6213,2.5126,2.3963,2.2746,4.1309,4.2253,0.0,4.3393,4.3497,4.3497,0.0,0.0,4.2863,4.2819,4.25,4.2274,4.2168,4.2831,4.3608,4.43,4.5074,4.5828,4.6413,4.7088,4.7452,4.7362,4.6793,4.6383,4.6383,4.45,4.2708,4.1243,4.0161,3.8734,3.6723,3.6462,3.6118,3.5534,3.5504,3.5504,3.5504,3.5504,3.5504,3.5504,3.5504,3.5504,3.5504,3.5504,3.5504,3.5504,3.5504,3.5504,3.5504,3.5359,3.5359,3.5213,3.4245,3.3808,3.3449,3.1683,3.0482,2.9792,2.9792,2.9792,2.9792,2.9792,2.9792,2.9792,2.9792,2.9792,2.9792,2.9792,2.9792,2.9792,2.9792,2.9792,2.9792,2.9792,3.0419,3.1031,3.118,3.1742,3.2321,3.2393,3.1683,3.1044,3.1044,3.0343,2.9792,2.9792,2.9792,2.9792,2.9792,2.9792,3.0495,3.2393,3.2593,3.3394,3.5359,3.5429,3.5385,3.5385,3.5325,3.491,3.396,3.296,3.2,3.1296,3.0253,2.9651,2.9624,2.8438,2.736,2.6307,2.5126,2.4039,4.134,0.0,0.0,0.0,4.3962,4.4323,4.4782,4.4536,4.4067,4.366,4.3572,4.3408,4.2983,4.3846,4.468,0.0,4.5573,4.6094,4.6383,4.6664,4.6641,4.6222,4.6287,4.6383,4.6383,4.5269,4.3612,4.1176,4.0292,3.8918,3.6588,3.6118,3.5789,3.5519,3.5504,3.5504,3.5504,3.5504,3.5504,3.5504,3.5504,3.5504,3.5504,3.5504,3.5504,3.5504,3.5504,3.5504,3.5504,3.5504,3.5504,3.5439,3.5052,3.4543,3.3808,3.2536,3.1402,3.062,3.062,3.0279,2.9792,2.9792,2.9792,2.9792,2.9792,2.9792,2.9792,2.9792,2.9792,2.9792,2.9792,2.9792,2.9934,3.0482,3.0895,3.1536,3.2593,3.2749,3.2749,3.331,3.2664,3.2033,3.2033,3.1267,3.062,3.062,3.0139,2.9792,2.9792,2.9792,3.0495,3.2393,3.3616,3.4624,3.5439,3.5504,3.5504,3.5504,3.5504,3.5052,3.4027,3.3101,3.2177,3.1254,3.0279,2.9792,2.9792,2.8688,2.7844,2.736,2.5619,2.4542,4.1222,0.0,0.0,4.3895,4.4483,4.4986,4.5718,4.5636,4.5222,4.452,4.455,4.4475,4.3834,4.4568,0.0,4.5284,4.5597,4.5915,4.5915,4.6015,4.5882,4.5315,4.5837,4.6185,4.6076,4.5693,4.4337,4.1545,4.0514,3.9076,3.6925,3.5979,3.5504,3.5504,3.5504,3.5504,3.5504,3.5504,3.5504,3.5504,3.5504,3.5504,3.5504,3.5504,3.5504,3.5504,3.5504,3.5504,3.5504,3.5504,3.5504,3.5504,3.5504,3.5052,3.4327,3.3685,3.2607,3.1609,3.1609,3.0983,3.0216,3.0216,2.9998,2.9792,2.9792,2.9792,2.9792,2.9792,2.9792,2.9792,2.9792,2.9998,3.0343,3.1044,3.1609,3.2321,3.3739,3.3671,3.3616,3.4259,3.3671,3.2961,3.2961,3.2249,3.1609,3.1609,3.0983,3.0355,2.9869,3.0216,3.1206,3.282,3.4476,3.5504,3.5504,3.5504,3.5504,3.5504,3.5504,3.492,3.3671,3.2961,3.2033,3.0833,3.0139,2.9792,2.9792,2.8937,2.8426,2.8084,2.6438,2.5368,0.0,0.0,4.2585,4.448,4.4985,4.5164,4.5755,4.6033,4.5989,4.5301,4.5338,4.5285,4.4686,4.4609,4.4626,4.4626,4.4626,4.4682,4.4682,4.4987,4.5234,4.5216,4.5608,4.5739,0.0,4.5379,4.4588,4.2411,4.0875,3.9322,3.7732,3.6258,3.5504,3.5504,3.5504,3.5504,3.5504,3.5504,3.5504,3.5504,3.5504,3.5504,3.5504,3.5504,3.5504,3.5504,3.5504,3.5504,3.5504,3.5504,3.5504,3.5504,3.5504,3.5504,3.5439,3.5424,3.4192,3.2522,3.2522,3.196,3.118,3.118,3.0558,2.9792,2.9792,2.9792,2.9792,2.9792,2.9792,2.9792,2.9792,3.0495,3.118,3.118,3.2593,3.3945,3.4027,3.4758,3.5439,3.5439,3.461,3.3959,3.3959,3.3171,3.2522,3.2522,3.2522,3.1829,2.9998,3.1415,3.289,3.3876,3.4905,3.5504,3.5504,3.5504,3.5504,3.5504,3.5504,3.4624,3.2749,3.2593,3.1756,2.9869,2.9792,2.9792,2.9792,2.9792,2.9197,2.8096,2.8004,2.6849,0.0,0.0,4.2398,4.4165,4.5223,4.6001,4.6749,4.6933,4.6798,4.6117,4.574,4.5165,4.3986,4.4231,4.4418,4.3893,4.4248,4.4587,4.4587,4.4739,4.4405,4.3374,4.4673,0.0,0.0,0.0,0.0,4.1756,4.0615,3.91,3.708,3.6016,3.5504,3.5504,3.5504,3.5504,3.5504,3.5504,3.5504,3.5504,3.5504,3.5504,3.5504,3.5504,3.5504,3.5504,3.5504,3.5504,3.5504,3.5504,3.5504,3.5504,3.5504,3.5504,3.5504,3.5504,3.5067,3.4409,3.3754,3.289,3.2105,3.2105,3.1901,3.1696,3.1696,3.1193,3.0771,3.0771,3.0771,3.0771,3.0771,3.1402,3.2321,3.289,3.3518,3.4177,3.4839,3.5279,3.5504,3.5504,3.5213,3.4986,3.4986,3.4177,3.331,3.2678,3.2593,3.2393,3.1756,3.2749,3.3671,3.3959,3.4905,3.5504,3.5504,3.5504,3.5504,3.5504,3.5504,3.4624,3.2664,3.2593,3.1683,2.9869,2.9792,2.9792,2.9792,2.9792,2.9624,2.9197,2.8426,2.7683,0.0,4.0778,4.237,4.3956,4.5304,4.639,4.6936,4.7237,4.715,4.624,4.5556,4.4751,4.3596,4.3606,4.369,4.3453,4.3842,4.4265,4.4536,4.43,4.3849,4.3115,4.3921,0.0,0.0,0.0,0.0,4.2111,4.1,3.9553,3.7508,3.6475,3.5782,3.5504,3.5504,3.5504,3.5504,3.5504,3.5504,3.5504,3.5504,3.5504,3.5504,3.5504,3.5504,3.5504,3.5504,3.5504,3.5504,3.5504,3.5504,3.5504,3.5504,3.5504,3.5504,3.5504,3.5504,3.5439,3.4758,3.3891,3.3101,3.3101,3.289,3.2593,3.2593,3.2177,3.1669,3.1669,3.1669,3.1669,3.1669,3.2393,3.3241,3.3876,3.4245,3.4691,3.5359,3.5504,3.5504,3.5504,3.5504,3.5504,3.5504,3.4986,3.4327,3.3754,3.3616,3.3533,3.3171,3.3602,3.4163,3.4476,3.5133,3.5504,3.5504,3.5504,3.5504,3.5504,3.5504,3.4624,3.2664,3.2593,3.1683,2.9869,2.9792,2.9792,2.9792,2.9792,2.9792,2.9792,2.9028,2.8518,3.8777,4.0462,4.2501,4.3839,4.5269,4.6336,4.6336,4.6864,4.6955,4.568,4.487,4.4147,0.0,0.0,4.2574,4.325,4.342,4.3741,4.4468,4.3802,4.3523,0.0,0.0,0.0,0.0,0.0,0.0,4.3406,0.0,4.0525,3.9055,3.7445,3.6275,3.5554,3.5504,3.5504,3.5504,3.5504,3.5504,3.5504,3.5504,3.5504,3.5504,3.5504,3.5504,3.5504,3.5504,3.5504,3.5504,3.5504,3.5504,3.5504,3.5504,3.5504,3.5504,3.5504,3.5504,3.5504,3.5504,3.4905,3.4095,3.4095,3.3449,3.2749,3.2749,3.2749,3.2664,3.2664,3.2664,3.2664,3.2664,3.338,3.4095,3.4095,3.4839,3.5504,3.5504,3.5504,3.5504,3.5504,3.5504,3.5504,3.5504,3.5504,3.5504,3.5504,3.5504,3.5133,3.4177,3.4095,3.4461,3.5424,3.5504,3.5504,3.5504,3.5504,3.5504,3.5504,3.5504,3.4639,3.2749,3.2593,3.1756,2.9934,2.9792,2.9792,2.9792,2.9792,2.9792,2.9792,2.9792,2.9197,3.9423,4.0736,4.2278,4.3294,4.4627,4.5732,4.5732,4.5883,4.5725,4.4867,4.4112,4.3263,0.0,0.0,0.0,4.2642,4.3538,0.0,4.4553,4.4381,0.0,0.0,0.0,4.4021,4.3673,4.4014,0.0,0.0,4.1499,4.0226,3.9804,3.7745,3.6492,3.6337,3.5782,3.5504,3.5504,3.5504,3.5504,3.5504,3.5504,3.5504,3.5504,3.5504,3.5504,3.5504,3.5504,3.5504,3.5504,3.5504,3.5504,3.5504,3.5504,3.5504,3.5504,3.5504,3.5504,3.5504,3.5504,3.5359,3.5133,3.5133,3.4986,3.4773,3.4773,3.4259,3.3671,3.3671,3.3671,3.3671,3.3671,3.4394,3.5133,3.5133,3.5279,3.5504,3.5504,3.5504,3.5504,3.5504,3.5504,3.5504,3.5504,3.5504,3.5504,3.5504,3.5504,3.5439,3.5133,3.5133,3.5213,3.5439,3.5504,3.5504,3.5504,3.5504,3.5504,3.5504,3.5504,3.492,3.3671,3.2961,3.2033,3.0833,3.0139,2.9792,2.9792,2.9792,2.9792,2.9792,2.9792,2.9624,3.9932,4.107,4.2583,4.2707,4.4142,4.5321,4.4696,4.482,4.4733,4.3683,4.289,0.0,0.0,0.0,0.0,0.0,0.0,0.0,4.4536,4.4282,4.4045,0.0,4.4012,0.0,4.3944,4.4012,4.4028,0.0,4.2165,4.0762,4.0155,3.8232,3.6964,3.6615,3.5894,3.5504,3.5504,3.5504,3.5504,3.5504,3.5504,3.5504,3.5504,3.5504,3.5504,3.5504,0.0,3.5504,3.5504,3.5504,3.5504,3.5504,3.5504,3.5504,3.5504,3.5504,3.5504,3.5504,3.5504,3.5504,3.5504,3.5504,3.5504,3.5504,3.5504,3.5133,3.4691,3.4691,3.4691,3.4691,3.4691,3.5067,3.5504,3.5504,3.5504,3.5504,3.5504,3.5504,3.5504,3.5504,3.5504,3.5504,3.5504,3.5504,3.5504,3.5504,3.5504,3.5504,3.5504,3.5504,3.5504,3.5504,3.5504,3.5504,3.5504,3.5504,3.5504,3.5504,3.5504,3.5052,3.4027,3.3518,3.2593,3.1254,3.0696,3.0216,2.9792,2.9792,2.9792,2.9792,2.9792,2.9792,4.0448,4.1533,4.2986,4.2189,4.3648,4.4885,4.3555,4.3765,4.3889,4.2462,0.0,0.0,4.1068,0.0,4.1441,4.2168,0.0,4.369,4.4468,4.3995,4.3826,4.4502,4.3978,4.3842,4.4519,4.3961,4.3809,4.4384,4.3183,4.1866,4.0597,3.8902,3.7492,3.6508,3.5831,3.5504,3.5504,3.5504,3.5504,3.5504,3.5504,3.5504,3.5504,3.5504,3.5504,3.5504,3.5504,0.0,3.5504,3.5504,3.5504,3.5504,3.5504,3.5504,3.5504,3.5504,3.5504,3.5504,3.5504,3.5504,3.5504,3.5504,3.5504,3.5504,3.5504,3.5504,3.5504,3.5504,3.5504,3.5504,3.5504,3.5504,3.5504,3.5504,3.5504,3.5504,3.5504,3.5504,3.5504,3.5504,3.5504,3.5504,3.5504,3.5504,3.5504,3.5504,3.5504,3.5504,3.5504,3.5504,3.5504,3.5504,3.5504,3.5504,3.5504,3.5504,3.5504,3.5504,3.5504,3.5133,3.4245,3.4095,3.3241,3.1609,3.1315,3.0833,3.0011,2.9856,2.9792,2.9792,2.9792,2.9792,4.1885,4.1901,4.2189,4.2062,4.2876,4.3448,4.2601,4.3021,0.0,0.0,0.0,4.1018,4.0392,4.0781,0.0,4.2168,0.0,0.0,0.0,0.0,4.4418,0.0,0.0,0.0,0.0,0.0,0.0,0.0,0.0,4.3111,4.285,4.0197,3.7757,3.5733,3.5569,3.5504,3.5504,3.5504,3.5504,3.5504,3.5504,3.5504,3.5504,3.5504,3.5504,3.5504,3.5504,0.0,3.5504,3.5504,3.5504,3.5504,3.5504,3.5504,3.5504,3.5504,3.5504,3.5504,3.5504,3.5504,3.5504,3.5504,3.5504,3.5504,3.5504,3.5504,3.5504,3.5504,3.5504,3.5504,3.5504,3.5504,3.5504,3.5504,3.5504,3.5504,3.5504,3.5504,3.5504,3.5504,3.5504,3.5504,3.5504,3.5504,3.5504,3.5504,3.5504,3.5504,3.5504,3.5504,3.5504,3.5504,3.5504,3.5504,3.5504,3.5504,3.5504,3.5504,3.5504,3.5424,3.5213,3.4461,3.3876,3.3518,3.196,3.1106,3.097,3.0216,2.9792,2.9792,2.9792,2.9792,4.2252,4.1997,4.1869,4.1412,4.1725,4.2036,4.1674,0.0,0.0,0.0,0.0,4.051,4.0155,4.0696,0.0,0.0,0.0,0.0,0.0,0.0,0.0,0.0,0.0,0.0,0.0,0.0,0.0,0.0,0.0,4.325,4.2861,4.0717,3.8451,3.6133,3.6054,3.5894,3.5504,3.5504,3.5504,3.5504,3.5504,3.5504,3.5504,3.5504,3.5504,3.5504,3.5504,0.0,3.5504,3.5504,3.5504,3.5504,3.5504,3.5504,3.5504,3.5504,3.5504,3.5504,3.5504,3.5504,3.5504,3.5504,3.5504,3.5504,3.5504,3.5504,3.5504,3.5504,3.5504,3.5504,3.5504,3.5504,3.5504,3.5504,3.5504,3.5504,3.5504,3.5504,3.5504,3.5504,3.5504,3.5504,3.5504,3.5504,3.5504,3.5504,3.5504,3.5504,3.5504,3.5504,3.5504,3.5504,3.5504,3.5504,3.5504,3.5504,3.5504,3.5504,3.5504,3.5504,3.5504,3.5052,3.4543,3.4027,3.2664,3.1669,3.118,3.0279,2.9942,3.0218,3.0218,3.0369,4.2458,4.1997,4.1543,4.0878,4.0695,4.0766,4.0723,4.0426,0.0,0.0,0.0,4.007,4.007,4.0646,0.0,0.0,0.0,0.0,0.0,0.0,0.0,0.0,0.0,0.0,0.0,0.0,0.0,0.0,0.0,0.0,4.187,4.0895,3.9267,3.6935,3.6984,3.6662,3.5718,3.5733,3.5683,3.5504,3.5504,3.5504,3.5504,3.5504,3.5504,3.5504,3.5504,0.0,0.0,3.5504,3.5504,3.5504,3.5504,3.5504,3.5504,3.5504,3.5504,3.5534,3.5669,3.5714,3.5744,3.5878,3.5729,3.5504,3.5504,3.5504,3.5504,3.5504,3.5504,3.5504,3.5504,3.5504,3.5504,3.5504,3.5504,3.5504,3.5504,3.5504,3.5504,3.5504,3.5504,3.5504,3.5504,3.5504,3.5504,3.5504,3.5504,3.5504,3.5504,3.5504,3.5504,3.5504,3.5504,3.5504,3.5504,3.5504,3.5504,3.5504,3.5504,3.5504,3.5504,3.5504,3.5133,3.4327,3.3171,3.2249,3.1536,3.0471,3.0193,3.062,3.0733,3.0997,4.3185,4.1997,4.0811,4.0758,4.0246,3.981,3.9877,0.0,0.0,0.0,4.007,4.007,4.007,4.0549,0.0,0.0,0.0,0.0,0.0,0.0,0.0,0.0,0.0,0.0,0.0,0.0,0.0,0.0,0.0,0.0,4.0431,4.0816,4.0034,3.7738,3.8355,3.8014,3.6508,3.6492,3.6165,3.5504,3.5504,3.5504,3.5504,3.5504,3.5504,3.5504,3.5504,0.0,0.0,3.5504,3.5504,3.5504,3.5504,3.5504,3.5504,3.5504,3.5504,3.5594,3.6193,3.6402,3.6492,3.7045,3.6447,3.5504,3.5504,3.5504,3.5504,3.5504,3.5504,3.5504,3.5504,3.5504,3.5504,3.5504,3.5504,3.5504,3.5504,3.5504,3.5504,3.5504,3.5504,3.5504,3.5504,3.5504,3.5504,3.5504,3.5504,3.5504,3.5504,3.5504,3.5504,3.5504,3.5504,3.5504,3.5504,3.5504,3.5504,3.5504,3.5504,3.5504,3.5504,3.5504,3.5439,3.5359,3.3547,3.2522,3.2464,3.1151,3.057,3.062,3.1097,3.1348,4.2532,4.1609,4.0554,4.006,3.9115,3.8555,3.9596,0.0,0.0,3.9918,4.007,4.007,4.007,4.0528,4.1146,0.0,0.0,0.0,0.0,0.0,0.0,0.0,0.0,0.0,0.0,0.0,0.0,0.0,0.0,0.0,4.1489,4.2143,4.1727,3.9879,4.0123,3.9521,3.7902,3.7839,3.7422,3.6641,3.6282,3.6088,3.6088,3.5684,3.5504,3.5504,3.5504,0.0,0.0,3.5668,3.5782,3.6117,3.5668,3.5744,3.6088,3.6088,3.6327,3.6686,3.6956,3.7045,3.709,3.733,3.706,3.6641,3.6641,3.6641,3.6641,3.6641,3.6641,3.6567,3.6193,3.6088,3.5998,3.5609,3.5804,3.5983,3.5594,3.5504,3.5504,3.5504,3.5504,3.5504,3.5504,3.5504,3.5504,3.5504,3.5504,3.5504,3.5504,3.5504,3.5504,3.5504,3.5504,3.5504,3.5504,3.5504,3.5504,3.5504,3.5504,3.5504,3.5504,3.5893,3.6088,3.6088,3.5131,3.4353,3.3684,3.255,3.1867,3.1587,3.1788,3.2077,4.2372,4.1739,4.0961,4.0324,3.8971,3.8218,0.0,0.0,3.8262,3.9782,4.007,4.007,4.007,4.0672,4.1313,0.0,0.0,0.0,0.0,0.0,0.0,0.0,0.0,0.0,0.0,0.0,0.0,0.0,0.0,0.0,4.2997,4.347,4.3081,4.156,4.176,4.1082,3.947,3.9454,3.9014,3.8137,3.7461,3.7314,3.7529,3.6516,3.62,3.6486,3.6034,0.0,0.0,3.5894,3.5943,3.6585,3.5993,3.6073,3.6507,3.6686,3.7045,3.7434,3.7629,3.7704,3.7734,3.7943,3.8003,3.8003,3.8003,3.7719,3.7404,3.7404,3.7404,3.73,3.6866,3.6761,3.6641,3.6178,3.6417,3.6626,3.6163,3.6073,3.6013,3.5833,3.5804,3.5729,3.5534,3.5504,3.5504,3.5504,3.5504,3.5504,3.5504,3.5504,3.5504,3.5504,3.5504,3.5504,3.5504,3.5504,3.5504,3.5504,3.5684,3.5804,3.5804,3.6417,3.6761,3.6761,3.6277,3.5596,3.485,3.3769,3.3077,3.2676,3.2546,3.2692,4.3238,4.2645,4.1997,4.1997,4.0306,3.9078,0.0,3.934,3.8262,3.9782,4.007,4.007,4.007,4.103,4.1793,4.181,0.0,0.0,0.0,0.0,0.0,0.0,0.0,0.0,0.0,0.0,0.0,0.0,0.0,0.0,4.4553,4.4553,4.3859,4.2337,4.3014,4.2702,4.1189,4.1189,4.0753,3.9975,3.9062,3.9125,3.9898,3.8188,3.7885,0.0,0.0,0.0,0.0,3.6148,3.5943,3.6554,3.6507,3.6477,3.6552,3.718,3.7404,3.7494,3.8153,3.8377,3.8497,3.917,3.9394,3.9394,3.9394,3.8467,3.7404,3.7404,3.7404,3.7404,3.7404,3.7404,3.7404,3.7389,3.7404,3.7404,3.7389,3.7389,3.721,3.6596,3.6477,3.6267,3.5609,3.5504,3.5504,3.5504,3.5504,3.5504,3.5504,3.5504,3.5504,3.5504,3.5504,3.5504,3.5504,3.5504,3.5504,3.5504,3.6118,3.6477,3.6477,3.7075,3.7404,3.7404,3.6497,3.5971,3.5971,3.4549,3.3753,3.3779,3.3275,3.3068,4.2492,4.2245,4.1862,4.0748,3.9624,3.9062,4.0042,3.9378,3.887,3.9901,4.007,4.0221,4.0628,4.1303,4.2115,4.3099,4.4069,0.0,0.0,0.0,0.0,0.0,0.0,0.0,0.0,0.0,0.0,0.0,0.0,0.0,4.4587,4.4587,4.435,4.3876,4.4079,4.3726,4.2614,4.2631,4.2223,4.1372,4.0642,4.0419,4.0651,3.966,3.9015,0.0,0.0,0.0,0.0,3.7475,3.759,3.876,3.7588,3.7389,3.7808,3.8003,3.8377,3.8811,3.902,3.9095,3.9125,3.9349,3.9424,3.9424,3.9424,3.9125,3.8781,3.8781,3.8437,3.8078,3.8078,3.8078,3.7958,3.7524,3.7749,3.7958,3.7509,3.7404,3.7345,3.715,3.712,3.7045,3.6851,3.6462,3.6178,3.6178,3.6178,3.6178,3.6178,3.6552,3.6806,3.6806,3.6806,3.6641,3.6207,3.6178,3.6357,3.6776,3.7,3.712,3.712,3.7734,3.8078,3.8078,3.8228,3.793,3.7224,3.6793,3.5792,3.4386,3.3551,3.3081,0.0,4.2455,4.2267,4.1025,4.0024,3.9503,4.0233,3.9615,3.9139,3.9952,4.007,4.0303,4.0861,4.142,4.2139,4.3264,4.3889,0.0,0.0,0.0,0.0,0.0,0.0,0.0,0.0,0.0,0.0,0.0,0.0,0.0,0.0,4.4587,4.4587,4.4587,4.4587,4.4327,4.3814,4.3814,4.3545,4.2953,4.219,4.204,4.2343,4.1249,4.0633,0.0,0.0,0.0,0.0,3.8218,3.8218,3.9298,3.8174,3.8033,3.8422,3.8676,3.905,3.9424,3.9424,3.9424,3.9424,3.9424,3.9424,3.9424,3.9424,3.9424,3.9424,3.9424,3.911,3.8781,3.8781,3.8781,3.8676,3.8257,3.8482,3.8661,3.8257,3.8167,3.8093,3.7838,3.7778,3.7704,3.7449,3.709,3.6836,3.6836,3.6836,3.6836,3.6836,3.7165,3.7404,3.7404,3.7404,3.736,3.721,3.6971,3.7,3.7389,3.7644,3.7778,3.7778,3.8422,3.8781,3.8781,3.92,3.9104,3.8383,3.7587,3.6318,3.4664,3.3641,3.3081,0.0,4.3152,4.3007,4.238,4.1188,4.0346,4.0946,3.999,0.0,3.9952,4.007,4.0303,4.0874,4.1402,4.2038,4.2727,0.0,0.0,0.0,0.0,0.0,0.0,0.0,0.0,0.0,0.0,0.0,0.0,0.0,0.0,0.0,4.4587,4.4587,4.4587,4.4587,4.4587,4.4587,4.4587,4.4587,4.457,4.3756,4.3814,4.457,4.2892,4.2654,0.0,0.0,0.0,0.0,3.8589,3.8068,3.8697,3.8545,3.8467,3.8542,3.9185,3.9424,3.9424,3.9424,3.9424,3.9424,3.9424,3.9424,3.9424,3.9424,3.9424,3.9424,3.9424,3.9424,3.9424,3.9424,3.9424,3.9424,3.9424,3.9424,3.9424,3.9424,3.9424,3.923,3.8586,3.8467,3.8272,3.7659,3.7509,3.7479,3.7479,3.7479,3.7479,3.7479,3.7524,3.7554,3.7554,3.7554,3.7793,3.8407,3.7853,3.7494,3.7554,3.8123,3.8467,3.8467,3.908,3.9424,3.9424,3.9424,3.9424,3.9424,3.7315,3.5814,3.4746,3.3713,3.3154,4.2925,0.0,4.2682,4.1501,4.0985,4.0654,0.0,0.0,0.0,0.0,0.0,0.0,0.0,0.0,0.0,0.0,0.0,0.0,0.0,0.0,0.0,0.0,0.0,0.0,0.0,0.0,0.0,0.0,0.0,0.0,0.0,4.4587,4.4587,4.4587,4.4587,4.4587,4.4587,4.4587,4.4587,4.4587,4.4384,4.4384,4.4587,4.4179,0.0,0.0,0.0,0.0,4.1691,4.0462,4.0023,4.0106,3.9436,3.917,3.92,3.9364,3.9424,3.9424,3.9424,3.9424,3.9424,3.9424,3.9424,3.9424,3.9424,3.9424,3.9424,3.9424,3.9424,3.9424,3.9424,3.9424,3.9424,3.9424,3.9424,3.9424,3.9424,3.9424,3.9364,3.9215,3.917,3.9125,3.8975,3.8512,3.8153,3.8153,3.8153,3.8153,3.8153,3.8616,3.8945,3.8945,3.8945,3.9005,3.917,3.8556,3.8377,3.8916,3.9095,3.917,3.917,3.9334,3.9424,3.9424,3.9424,3.9424,3.9424,3.8055,3.6866,3.5814,3.4815,3.3869,4.3142,4.2943,4.2554,4.1552,4.1087,4.081,0.0,0.0,0.0,0.0,0.0,0.0,0.0,0.0,0.0,0.0,0.0,0.0,0.0,0.0,0.0,0.0,0.0,0.0,0.0,0.0,0.0,0.0,0.0,0.0,0.0,4.4587,4.4587,4.4587,4.4587,4.4587,4.4587,4.4587,4.4587,4.4587,4.4587,4.4587,4.4587,4.4587,4.4327,0.0,0.0,0.0,4.252,4.1674,4.128,4.128,4.0774,4.0309,3.999,3.999,3.9737,3.9424,3.9424,3.9424,3.9469,3.9768,3.9664,3.9424,3.9424,3.9424,3.9424,3.9424,3.9424,3.9424,3.9424,3.9424,3.9424,3.9424,3.9424,3.9424,3.9424,3.9424,3.9424,3.9424,3.9424,3.9424,3.9424,3.911,3.8856,3.8856,3.8856,3.8856,3.8856,3.9185,3.9424,3.9424,3.9424,3.9424,3.9424,3.908,3.902,3.9394,3.9424,3.9424,3.9424,3.9424,3.9424,3.9424,3.9424,3.9177,3.8634,3.7587,3.654,3.5521,3.4415,3.3769,4.3644,4.3269,4.2693,4.208,4.1534,4.1133,0.0,0.0,0.0,0.0,0.0,0.0,0.0,0.0,0.0,0.0,0.0,0.0,0.0,0.0,0.0,0.0,0.0,0.0,0.0,0.0,0.0,0.0,0.0,0.0,0.0,4.4587,4.4587,4.4587,4.4587,4.4587,4.4587,4.4587,4.4587,4.4587,4.4587,4.4587,4.4587,4.4587,4.4587,0.0,0.0,0.0,4.3246,4.252,4.2125,4.1997,4.1997,4.1543,4.0878,4.0758,4.0239,3.9625,3.9529,3.9574,3.9679,4.0337,4.0172,3.9723,3.9723,3.9723,3.9694,3.9604,3.9499,3.9424,3.9424,3.9424,3.9424,3.9424,3.9424,3.9424,3.9424,3.9424,3.9424,3.9424,3.9424,3.9424,3.9424,3.9424,3.9424,3.9424,3.9424,3.9424,3.9424,3.9424,3.9424,3.9424,3.9424,3.9424,3.9424,3.9424,3.9424,3.9424,3.9424,3.9424,3.9424,3.9424,3.9424,3.9424,3.9265,3.8708,3.7829,3.6696,3.5709,3.4795,3.3926,3.3669,4.4342,4.3976,4.325,4.2693,4.248,4.2302,0.0,0.0,0.0,0.0,0.0,0.0,0.0,0.0,0.0,0.0,0.0,0.0,0.0,0.0,0.0,0.0,0.0,0.0,0.0,0.0,0.0,0.0,0.0,0.0,0.0,4.4587,4.4587,4.4587,4.4587,4.4587,4.4587,4.4587,4.4587,4.4587,4.4587,4.4587,4.4587,4.4587,4.4587,0.0,0.0,4.4006,4.3306,4.3185,4.2661,4.1997,4.1997,4.1933,4.1739,4.0946,4.0622,4.0455,4.0314,4.0247,4.0367,4.101,4.116,4.107,4.107,4.107,4.0965,4.0412,3.9843,3.9424,3.9424,3.9424,3.9424,3.9424,3.9424,3.9424,3.9424,3.9424,3.9424,3.9424,3.9424,3.9424,3.9424,3.9424,3.9424,3.9424,3.9424,3.9424,3.9424,3.9424,3.9424,3.9424,3.9424,3.9424,3.9424,3.9424,3.9424,3.9424,3.9424,3.9424,3.9424,3.9424,3.9424,3.9424,3.8546,3.7994,3.7829,3.6696,3.5926,3.5389,3.5234,3.4973,4.3956,4.3773,4.3444,4.3178,4.2902,0.0,0.0,0.0,0.0,0.0,0.0,0.0,0.0,0.0,0.0,0.0,0.0,0.0,0.0,0.0,0.0,0.0,0.0,0.0,0.0,0.0,0.0,0.0,0.0,0.0,0.0,0.0,4.4587,4.4587,4.4587,4.4587,4.4587,4.4587,4.4587,4.4587,4.4587,4.4587,4.4587,4.4587,4.4587,4.4587,0.0,4.4384,4.4006,4.4006,4.3739,4.341,4.341,4.3092,4.2569,4.1586,4.0931,4.0603,4.1235,4.122,4.104,4.1698,4.1669,4.1384,4.1384,4.1384,4.1324,4.101,4.0711,4.0307,3.9604,3.9694,3.9858,3.9514,3.9424,3.9424,3.9424,3.9424,3.9424,3.9424,3.9424,3.9424,3.9424,3.9424,3.9424,3.9424,3.9424,3.9424,3.9424,3.9424,3.9424,3.9424,3.9424,3.9424,3.9424,3.9424,3.9424,3.9424,3.9424,3.9424,3.9424,3.9424,3.9424,3.9424,3.8943,3.8055,3.693,3.6795,3.5979,3.4632,3.4953,3.5048,4.3718,4.3626,4.3534,0.0,0.0,0.0,0.0,0.0,0.0,0.0,0.0,0.0,0.0,0.0,0.0,0.0,0.0,0.0,0.0,0.0,0.0,0.0,0.0,0.0,0.0,0.0,0.0,0.0,0.0,0.0,0.0,0.0,4.4587,4.4587,4.4587,4.4587,4.4587,4.4587,4.4587,4.4587,4.4587,4.4587,4.4587,4.4587,4.4587,4.4587,4.4587,4.4587,4.4587,4.4587,4.4587,4.4587,4.4587,4.4164,4.3514,4.2839,4.1906,4.1126,4.2304,4.2242,4.1713,4.2372,4.2252,4.1833,4.1833,4.1833,4.1803,4.1654,4.1728,4.1534,4.0217,4.0247,4.0502,3.9993,3.9873,3.9843,3.9679,3.9649,3.9604,3.9454,3.9424,3.9424,3.9424,3.9424,3.9424,3.9424,3.9424,3.9424,3.9424,3.9424,3.9424,3.9424,3.9424,3.9424,3.9424,3.9424,3.9484,3.9634,3.9514,3.9424,3.9424,3.9424,3.9265,3.9017,3.8929,3.7954,3.6033,3.6402,3.5798,3.4299,3.4726,3.5203,4.4415,4.4066,4.3663,0.0,0.0,0.0,0.0,0.0,0.0,0.0,0.0,0.0,0.0,0.0,0.0,0.0,0.0,0.0,0.0,0.0,0.0,0.0,0.0,0.0,0.0,0.0,0.0,0.0,0.0,0.0,0.0,0.0,0.0,4.4587,4.4587,4.4587,4.4587,4.4587,4.4587,4.4587,4.4587,4.4587,4.4587,4.4587,4.4587,4.4587,4.4587,4.4587,4.4587,4.4587,4.4587,4.4587,4.4587,4.4482,4.436,4.5006,4.4131,4.2695,4.3422,4.3091,4.2402,4.3045,4.3225,4.3195,4.3195,4.3195,4.3075,4.2462,4.2731,4.2895,4.1579,4.1265,4.1294,4.125,4.1235,4.107,4.0457,4.0337,4.0142,3.9544,3.9424,3.9424,3.9424,3.9424,3.9424,3.9424,3.9424,3.9424,3.9424,3.9424,3.9424,3.9424,3.9424,3.9424,3.9424,3.9424,3.9679,4.0292,3.9753,3.9424,3.9424,3.9424,3.8943,3.7919,3.7521,3.6675,3.5553,3.5058,3.5005,3.5429,3.5374,3.578,4.3864,4.3718,4.3552,0.0,0.0,0.0,0.0,0.0,0.0,0.0,0.0,0.0,0.0,0.0,0.0,0.0,0.0,0.0,0.0,0.0,0.0,0.0,0.0,0.0,0.0,0.0,0.0,0.0,0.0,0.0,0.0,0.0,0.0,4.4587,4.4587,4.4587,4.4587,4.4587,4.4587,4.4587,4.4587,4.4587,4.4587,4.4587,4.4587,4.4587,4.4587,4.4587,4.4587,4.4587,4.4857,4.5331,4.5771,4.5587,4.5164,4.5843,4.4953,4.3537,4.4161,4.3762,4.3015,4.3254,4.3329,4.3329,4.3329,4.3329,4.3284,4.303,4.3135,4.303,4.1728,4.1683,4.1893,4.1474,4.1384,4.1309,4.107,4.101,4.0935,4.0681,4.0636,4.0636,4.0636,4.0636,4.0636,4.0636,4.0636,4.0636,4.0636,4.0636,4.0636,4.0636,4.0636,4.0472,4.0068,4.0397,4.0741,4.0995,4.0382,4.0217,4.0621,4.0636,4.0472,4.0066,3.9147,3.8126,3.708,3.6481,3.5929,3.5554,3.5893,3.6157,4.3497,4.3497,0.0,0.0,0.0,0.0,0.0,0.0,0.0,0.0,0.0,0.0,0.0,0.0,0.0,0.0,0.0,0.0,0.0,0.0,0.0,0.0,0.0,0.0,0.0,0.0,0.0,0.0,0.0,0.0,0.0,0.0,0.0,0.0,4.4705,4.4807,4.528,4.5043,4.5043,4.528,4.528,4.5026,4.4587,4.4587,4.4587,4.4587,4.4587,4.4587,4.4604,4.484,4.5382,4.6126,4.687,4.6791,4.6333,4.7018,4.6102,4.4626,4.5039,4.4419,4.3329,4.3329,4.3329,4.3329,4.3329,4.3329,4.3329,4.3329,4.3329,4.312,4.2237,4.2327,4.2551,4.2102,4.1998,4.1938,4.1728,4.1698,4.1624,4.1414,4.1384,4.1384,4.1384,4.1384,4.1384,4.1384,4.1384,4.1384,4.1384,4.1384,4.1384,4.1384,4.1384,4.119,4.0741,4.113,4.1474,4.1669,4.1265,4.113,4.1369,4.1384,4.1217,4.0882,3.9902,3.8851,3.7874,3.7174,3.6493,3.5805,3.6194,3.6358,4.3497,4.3497,0.0,0.0,0.0,0.0,0.0,0.0,0.0,0.0,0.0,0.0,0.0,0.0,0.0,0.0,0.0,0.0,0.0,0.0,0.0,0.0,0.0,0.0,0.0,0.0,0.0,0.0,0.0,0.0,0.0,0.0,0.0,0.0,4.4993,4.5297,4.6786,4.6075,4.6075,4.6786,4.6786,4.6024,4.4604,4.4604,4.4604,4.4587,4.4587,4.4587,4.4654,4.5415,4.616,4.687,4.7631,4.7936,4.802,4.8731,4.7803,4.6173,4.6173,4.4899,4.3329,4.3329,4.3329,4.3329,4.3329,4.3329,4.3329,4.3329,4.3329,4.3329,4.3329,4.3329,4.3329,4.3329,4.3329,4.3165,4.2506,4.2372,4.2177,4.1534,4.1399,4.1399,4.1399,4.1399,4.1399,4.1399,4.1399,4.1399,4.1399,4.1399,4.1399,4.1384,4.1384,4.1399,4.1384,4.1384,4.1669,4.2327,4.2372,4.2073,4.1429,4.1399,4.0897,3.9823,3.9242,3.836,3.7352,3.6708,3.6358,3.6358,3.6358,3.6358,4.3497,0.0,0.0,0.0,0.0,0.0,0.0,0.0,0.0,0.0,0.0,0.0,0.0,0.0,0.0,0.0,0.0,0.0,0.0,0.0,0.0,0.0,0.0,0.0,0.0,0.0,0.0,0.0,0.0,0.0,0.0,0.0,0.0,0.0,4.6244,4.6346,4.6786,4.6583,4.6583,4.6786,4.6786,4.6566,4.6143,4.6143,4.5855,4.5365,4.5365,4.5365,4.5466,4.6735,4.7394,4.7665,4.8392,4.868,4.8635,4.8158,4.7239,4.6119,4.5416,4.4343,4.3329,4.3329,4.3329,4.3329,4.3329,4.3329,4.3329,4.3329,4.3329,4.3329,4.3329,4.3329,4.3329,4.3329,4.3329,4.3284,4.309,4.3045,4.2985,4.2791,4.2761,4.2761,4.2761,4.2761,4.2761,4.2761,4.2761,4.2761,4.2761,4.2761,4.2581,4.2117,4.2476,4.2566,4.2117,4.2491,4.2836,4.303,4.3045,4.2955,4.2761,4.2761,4.2228,4.1122,4.0125,3.8999,3.7857,3.69,3.6358,3.6358,3.6358,3.6358,0.0,0.0,0.0,0.0,0.0,0.0,0.0,0.0,0.0,0.0,0.0,0.0,0.0,0.0,0.0,0.0,0.0,0.0,0.0,0.0,0.0,0.0,0.0,0.0,0.0,0.0,0.0,0.0,0.0,0.0,0.0,0.0,0.0,0.0,4.6955,4.7073,4.7665,4.7378,4.7378,4.7665,4.7665,4.7665,4.7648,4.7056,4.6549,4.6143,4.6143,4.6312,4.665,4.7547,4.8088,4.8331,4.8409,4.8433,4.8306,4.7373,4.647,4.5561,4.502,4.4143,4.3329,4.3329,4.3329,4.3329,4.3329,4.3329,4.3329,4.3329,4.3329,4.3329,4.3329,4.3329,4.3329,4.3329,4.3329,4.3329,4.3329,4.3329,4.3329,4.3329,4.3329,4.3329,4.3329,4.3329,4.3329,4.3329,4.3329,4.3329,4.3329,4.3329,4.318,4.2791,4.309,4.3165,4.2776,4.3105,4.3329,4.3329,4.3329,4.3329,4.3329,4.3329,4.2981,4.229,4.0746,3.9536,3.8827,3.715,3.6358,3.6358,3.6358,3.6358,0.0,0.0,0.0,0.0,0.0,0.0,0.0,0.0,0.0,0.0,0.0,0.0,0.0,0.0,0.0,0.0,0.0,0.0,0.0,0.0,0.0,0.0,0.0,0.0,0.0,0.0,0.0,0.0,0.0,0.0,0.0,0.0,0.0,4.7902,4.731,4.7631,4.8984,4.8359,4.8359,0.0,4.9001,4.9001,4.8951,4.7614,4.6955,4.6887,4.6887,4.7293,4.7919,4.7986,4.8409,4.894,4.795,4.7589,4.7456,4.647,4.5561,4.4812,4.4662,4.4066,4.3329,4.3329,4.3329,4.3344,4.3404,4.3419,4.3434,4.3494,4.3509,4.3509,4.3509,4.3509,4.3509,4.3509,4.3419,4.3329,4.3329,4.3329,4.3329,4.3329,4.3329,4.3329,4.3329,4.3329,4.3329,4.3329,4.3329,4.3329,4.3329,4.3329,4.3329,4.3329,4.3329,4.3329,4.3329,4.3329,4.3329,4.3329,4.3329,4.3329,4.3329,4.3329,4.317,4.2981,4.093,3.9812,3.9549,3.7428,3.6358,3.6358,3.6358,3.6358,0.0,0.0,0.0,0.0,0.0,0.0,0.0,0.0,0.0,0.0,0.0,0.0,0.0,0.0,0.0,0.0,0.0,0.0,0.0,0.0,0.0,0.0,0.0,0.0,0.0,0.0,0.0,0.0,0.0,0.0,0.0,0.0,0.0,4.7919,4.8325,4.868,4.9001,4.8849,4.8849,0.0,4.9001,4.9001,4.8984,4.868,4.8223,4.7682,4.7682,4.7767,4.7953,4.8528,4.8866,4.894,4.795,4.7589,4.7389,4.5706,4.4946,4.4662,4.3927,4.3472,4.3329,4.3329,4.3329,4.3434,4.3943,4.4107,4.4212,4.4721,4.487,4.487,4.487,4.487,4.487,4.487,4.4092,4.3329,4.3329,4.3329,4.3329,4.3329,4.3329,4.3329,4.3329,4.3329,4.3329,4.3329,4.3329,4.3329,4.3329,4.3329,4.3329,4.3329,4.3329,4.3329,4.3329,4.3329,4.3329,4.3329,4.3329,4.3329,4.3329,4.3329,4.2482,4.0675,4.0159,3.9019,3.7163,3.6628,3.6358,3.6358,3.6358,3.6358,0.0,0.0,0.0,0.0,0.0,0.0,0.0,0.0,0.0,0.0,0.0,0.0,0.0,0.0,0.0,0.0,0.0,0.0,0.0,0.0,0.0,0.0,0.0,0.0,0.0,0.0,0.0,0.0,0.0,0.0,0.0,4.837,4.8443,4.8443,4.8798,4.9001,4.9001,4.9001,4.9001,4.9001,4.9001,4.9001,4.9001,4.9001,4.8798,4.8443,4.8443,4.8443,4.8477,4.8849,4.9001,4.8861,4.744,4.6952,4.6678,4.4781,4.4066,4.4004,4.3472,4.3329,4.3329,4.3329,4.3539,4.3868,4.4212,4.4526,4.4855,4.52,4.5289,4.5289,4.5289,4.5289,4.5289,4.5289,4.4766,4.4272,4.4272,4.4032,4.3808,4.3808,4.3554,4.3329,4.3329,4.3329,4.3329,4.3329,4.3329,4.3329,4.3329,4.3329,4.3329,4.3329,4.3329,4.3329,4.3329,4.3329,4.3329,4.3329,4.2805,4.2467,4.2467,4.1961,4.1351,4.0746,3.961,3.8482,3.7243,3.6722,3.6496,3.6759,3.6759,3.6897,0.0,0.0,0.0,0.0,0.0,0.0,0.0,0.0,0.0,0.0,0.0,0.0,0.0,0.0,0.0,0.0,0.0,0.0,0.0,0.0,0.0,0.0,0.0,0.0,0.0,0.0,0.0,0.0,0.0,0.0,4.8881,4.8821,4.8815,4.8815,4.8934,4.9001,4.9001,4.9001,4.9001,4.9001,4.9001,4.9001,4.9001,4.9001,4.9001,4.9001,4.9001,4.9001,4.9001,4.9001,4.9001,4.8798,4.6952,4.6173,4.5961,4.4051,4.3329,4.3329,4.3329,4.3404,4.3509,4.3509,4.3943,4.4511,4.4631,4.5035,4.5499,4.5603,4.5648,4.5648,4.5648,4.5648,4.5648,4.5648,4.5648,4.5574,4.5349,4.487,4.4481,4.4481,4.4047,4.3673,4.3673,4.3673,4.3673,4.3673,4.3673,4.3673,4.3673,4.3673,4.3673,4.3673,4.3673,4.3673,4.3673,4.3673,4.3673,4.3673,4.2529,4.1918,4.1918,4.0639,4.029,4.1312,3.927,3.8227,3.8057,3.7177,3.6872,3.7324,3.7324,3.7575,0.0,0.0,0.0,0.0,0.0,0.0,0.0,0.0,0.0,0.0,0.0,0.0,0.0,0.0,0.0,0.0,0.0,0.0,0.0,0.0,0.0,0.0,0.0,0.0,0.0,0.0,0.0,0.0,0.0,0.0,4.8862,4.8306,4.8071,4.8071,4.868,4.9001,4.9001,4.9001,4.9001,4.9001,4.9001,4.9001,4.9001,4.9001,4.9001,4.9001,4.9001,4.9001,4.9001,4.9001,4.9001,4.8798,4.6952,4.6173,4.5961,4.4051,4.3329,4.3329,4.3329,4.3703,4.4182,4.4182,4.4631,4.5274,4.5873,4.6112,4.6307,4.6875,4.704,4.704,4.704,4.704,4.704,4.704,4.704,4.6711,4.5544,4.5229,4.517,4.517,4.5095,4.5035,4.5035,4.5035,4.5035,4.5035,4.5035,4.5035,4.5035,4.5035,4.5035,4.5035,4.5035,4.5035,4.5035,4.5035,4.5035,4.5035,4.3843,4.3128,4.3128,4.0991,3.992,4.0001,3.9217,3.8574,3.796,3.7874,3.7826,3.7902,3.7902,3.7939,0.0,0.0,0.0,0.0,0.0,0.0,0.0,0.0,0.0,0.0,0.0,0.0,0.0,0.0,0.0,0.0,0.0,0.0,0.0,0.0,0.0,0.0,0.0,0.0,0.0,0.0,0.0,0.0,0.0,4.9677,4.8837,4.8631,4.8528,4.8528,4.8832,4.9001,4.9001,4.9001,4.9001,4.9001,4.9001,4.9001,4.9001,4.9001,4.9001,4.9001,4.9001,4.9001,4.9001,4.9001,4.8719,4.808,4.6747,4.5905,4.5211,4.3834,4.3329,4.3389,4.3748,4.4062,4.4377,4.4751,4.5319,4.5933,4.6232,4.6576,4.6935,4.7219,4.7309,4.7309,4.7309,4.7309,4.7309,4.7309,4.7309,4.7145,4.6546,4.6142,4.5753,4.5364,4.5289,4.5289,4.5289,4.5289,4.5289,4.5289,4.5289,4.5289,4.5289,4.5289,4.5289,4.5289,4.5289,4.5289,4.5289,4.5289,4.5025,4.4291,4.3124,4.2133,4.1407,3.9672,3.8915,3.9248,3.8672,3.8311,3.8002,3.8002,3.8165,3.8492,3.8492,3.8655,0.0,0.0,0.0,0.0,0.0,0.0,0.0,0.0,0.0,0.0,0.0,0.0,0.0,0.0,0.0,0.0,0.0,0.0,0.0,0.0,0.0,0.0,0.0,0.0,0.0,0.0,0.0,0.0,0.0,4.9422,4.8851,4.8779,4.8815,4.9001,4.9001,4.9001,4.9001,4.9001,4.9001,4.9001,4.9001,4.9001,4.9001,4.9001,4.9001,4.9001,4.9001,4.9001,4.9001,4.9001,4.8433,4.7523,4.6609,4.5634,4.4662,4.3708,4.3329,4.3434,4.4092,4.4421,4.4661,4.5349,4.6022,4.6576,4.6576,4.692,4.7309,4.7309,4.7309,4.7309,4.7309,4.7309,4.7309,4.7309,4.7309,4.7309,4.7309,4.692,4.6426,4.5903,4.5798,4.5798,4.5798,4.5798,4.5798,4.5798,4.5798,4.5798,4.5798,4.5798,4.5798,4.5798,4.5798,4.5798,4.5798,4.5798,4.5247,4.3963,4.2789,4.1608,4.0311,3.9098,3.863,3.9069,3.8655,3.8429,3.8429,3.8429,3.8655,3.9082,3.9082,3.9295,0.0,0.0,0.0,0.0,0.0,0.0,0.0,0.0,0.0,0.0,0.0,0.0,0.0,0.0,0.0,0.0,0.0,0.0,0.0,0.0,0.0,0.0,0.0,0.0,0.0,0.0,0.0,0.0,0.0,4.8924,4.8834,4.8285,4.8291,4.8984,4.9001,4.9001,4.9001,4.9001,4.9001,4.9001,4.9001,4.9001,4.9001,4.9001,4.9001,4.9001,4.9001,4.9001,4.9001,4.9001,4.8433,4.7523,4.6609,4.5634,4.4662,4.3708,4.3329,4.3434,4.4092,4.4721,4.5364,4.6052,4.6711,4.7249,4.7249,4.7279,4.7309,4.7309,4.7309,4.7309,4.7309,4.7309,4.7309,4.7309,4.7309,4.7309,4.7309,4.7279,4.7249,4.7204,4.7204,4.7204,4.7204,4.7204,4.7204,4.7204,4.7204,4.7204,4.7204,4.7204,4.7204,4.7204,4.7204,4.7204,4.7204,4.7204,4.6637,4.5393,4.4065,4.2835,4.161,4.0274,3.9622,3.9647,3.9622,3.9609,3.9609,3.9609,3.9622,3.9647,3.9647,3.9672,0.0,0.0,0.0,0.0,0.0,0.0,0.0,0.0,0.0,0.0,0.0,0.0,0.0,0.0,0.0,0.0,0.0,0.0,0.0,0.0,0.0,0.0,0.0,0.0,0.0,0.0,0.0,0.0,0.0,0.0,4.8967,4.87,4.8731,4.9001,4.9001,4.9001,4.9001,4.9001,4.9001,4.9001,4.9001,4.9001,4.9001,4.9001,4.9001,4.9001,4.9001,4.9001,4.9001,4.9001,4.8433,4.7589,4.7239,4.6119,4.4737,4.4373,4.4122,4.4062,4.4721,4.5379,4.6067,4.6741,4.7115,4.7309,4.7309,4.7309,4.7309,4.7309,4.7309,4.7309,4.7309,4.7309,4.7309,4.7309,4.7309,4.7309,4.7309,4.7309,4.7309,4.7309,4.7309,4.7309,4.7309,4.7309,4.7309,4.7309,4.7309,4.7309,4.7309,4.7309,4.7309,4.7309,4.7309,4.7309,4.7309,4.7309,4.6447,4.4349,4.3787,4.2544,4.0453,3.9981,3.9697,3.9697,3.9697,3.9697,3.9697,3.9697,3.9697,3.9697,3.9697,3.9697,0.0,0.0,0.0,0.0,0.0,0.0,0.0,0.0,0.0,0.0,0.0,0.0,0.0,0.0,0.0,0.0,0.0,0.0,0.0,0.0,0.0,0.0,0.0,0.0,0.0,0.0,0.0,0.0,0.0,0.0,4.9001,4.9001,4.9001,4.9001,4.9001,4.9001,4.9001,4.9001,4.9001,4.9001,4.9001,4.9001,4.9001,4.9001,4.9001,4.9001,4.9001,4.9001,4.9001,4.9001,4.8225,4.7155,4.7155,4.5977,4.4312,4.4542,4.4455,4.4451,4.5334,4.5933,4.6426,4.71,4.7309,4.7309,4.7309,4.7309,4.7309,4.7309,4.7309,4.7309,4.7309,4.7309,4.7309,4.7309,4.7309,4.7309,4.7309,4.7309,4.7309,4.7309,4.7309,4.7309,4.7309,4.7309,4.7309,4.7309,4.7309,4.7309,4.7309,4.7309,4.7121,4.6726,4.6638,4.6447,4.6062,4.6062,4.5115,4.3026,4.2834,4.1887,3.9788,3.9697,3.9697,3.9697,3.9697,3.9697,3.9697,3.9697,3.9697,3.9697,3.9697,3.9697,0.0,0.0,0.0,0.0,0.0,0.0,0.0,0.0,0.0,0.0,0.0,0.0,0.0,0.0,0.0,0.0,0.0,0.0,0.0,0.0,0.0,0.0,0.0,0.0,0.0,0.0,0.0,0.0,0.0,4.9001,4.9001,4.9001,4.9001,4.9001,4.9001,4.9001,4.9001,4.9001,4.9001,4.9001,4.9001,4.9001,4.9001,4.9001,4.9001,4.9001,4.9001,4.9001,4.9001,4.9001,4.7933,4.6244,4.6244,4.5048,4.3434,4.4077,4.4332,4.4571,4.5873,4.6337,4.6456,4.71,4.7309,4.7309,4.7309,4.7309,4.7309,4.7309,4.7309,4.7309,4.7309,4.7309,4.7309,4.7309,4.7309,4.7309,4.7309,4.7309,4.7309,4.7309,4.7309,4.7309,4.7309,4.7309,4.7309,4.7309,4.7309,4.7309,4.7309,4.7309,4.6829,4.5494,4.5403,4.4918,4.3598,4.3504,4.293,4.169,4.1604,4.1032,3.9788,3.9697,3.9697,3.9697,3.9697,3.9697,3.9697,3.9697,3.9697,3.9697,3.9697,3.9697,4.0195,0.0,0.0,0.0,0.0,0.0,0.0,0.0,0.0,0.0,0.0,0.0,0.0,0.0,0.0,0.0,0.0,0.0,0.0,0.0,0.0,0.0,0.0,0.0,0.0,0.0,0.0,0.0,4.9001,4.9001,4.9001,4.9001,4.9001,4.9001,4.9001,4.9001,4.9001,4.9001,4.9001,4.9001,4.9001,4.9001,4.9001,4.9001,4.9001,4.9001,4.9001,4.9001,4.9001,4.9001,4.8289,4.7223,4.7223,4.6335,4.5079,4.5263,4.5521,4.5813,4.6187,4.6636,4.7055,4.7249,4.7309,4.7309,4.7309,4.7309,4.7309,4.7309,4.7309,4.7309,4.7309,4.7309,4.7309,4.7309,4.7309,4.7309,4.7309,4.7309,4.7309,4.7309,4.7309,4.7309,4.7309,4.7309,4.7309,4.7309,4.7309,4.7309,4.7309,4.7309,4.6829,4.5494,4.5403,4.4918,4.3598,4.3504,4.293,4.169,4.1604,4.1032,3.9788,3.9697,3.9697,3.9697,3.9697,3.9697,3.9697,3.9697,3.9697,3.9697,3.9697,3.9697,0.0,0.0,0.0,0.0,0.0,0.0,0.0,0.0,0.0,0.0,0.0,0.0,0.0,0.0,0.0,0.0,0.0,0.0,0.0,0.0,0.0,0.0,0.0,0.0,0.0,0.0,0.0,4.9001,4.9001,4.9001,4.9001,4.9001,4.9001,4.9001,4.9001,4.9001,4.9001,4.9001,4.9001,4.9001,4.9001,4.9001,4.9001,4.9001,4.9001,4.9001,4.9001,4.9001,4.9001,4.8576,4.7868,4.6952,4.6609,4.5898,4.5135,4.5425,4.5843,4.6367,4.6636,4.698,4.7309,4.7309,4.7309,4.7309,4.7309,4.7309,4.7309,4.7309,4.7309,4.7309,4.7309,4.7309,4.7309,4.7309,4.7309,4.7309,4.7309,4.7309,4.7309,4.7309,4.7309,4.7309,4.7309,4.7309,4.7309,4.7309,4.7309,4.7309,4.7309,4.6829,4.6062,4.4734,4.4163,4.3313,4.1985,4.1887,4.1604,4.0844,4.0844,4.0453,3.9697,3.9697,3.9697,3.9697,3.9697,3.9697,3.9697,3.9697,3.9697,3.9697,3.9697,3.9697,0.0,0.0,0.0,0.0,0.0,0.0,4.2139,4.2378,0.0,0.0,0.0,0.0,0.0,0.0,0.0,0.0,0.0,0.0,0.0,0.0,0.0,0.0,0.0,0.0,0.0,4.8629,4.9001,4.9001,4.9001,4.9001,4.9001,4.9001,4.9001,4.9001,4.9001,4.9001,4.9001,4.9001,4.9001,4.9001,4.9001,4.9001,4.9001,4.9001,4.9001,4.9001,4.9001,4.894,4.8781,4.7803,4.6952,4.6119,4.5231,4.4662,4.4496,4.517,4.5843,4.6516,4.71,4.7309,4.7309,4.7309,4.7309,4.7309,4.7309,4.7309,4.7309,4.7309,4.7309,4.7309,4.7309,4.7309,4.7309,4.7309,4.7309,4.7309,4.7309,4.7309,4.7309,4.7309,4.7309,4.7309,4.7309,4.7309,4.7309,4.7309,4.7309,4.7309,4.7309,4.6166,4.4918,4.3598,4.2363,4.1132,3.9788,3.9697,3.9697,3.9697,3.9697,3.9697,3.9697,3.9697,3.9697,3.9697,3.9697,3.9697,3.9697,3.9697,3.9697,3.9697,3.9697,3.9697,0.0,0.0,0.0,0.0,0.0,0.0,0.0,4.28,0.0,0.0,0.0,0.0,0.0,0.0,0.0,0.0,0.0,0.0,0.0,0.0,0.0,0.0,0.0,0.0,0.0,4.8917,4.9001,4.9001,4.9001,4.9001,4.9001,4.9001,4.9001,4.9001,4.9001,4.9001,4.9001,4.9001,4.9001,4.9001,4.9001,4.9001,4.9001,4.9001,4.9001,4.9001,4.9001,4.8576,4.7803,4.6884,4.6384,4.615,4.5716,4.5334,4.5185,4.5873,4.6546,4.713,4.7249,4.7309,4.7309,4.7309,4.7309,4.7309,4.7309,4.7309,4.7309,4.7309,4.7309,4.7309,4.7309,4.7309,4.7309,4.7309,4.7309,4.7309,4.7309,4.7309,4.7309,4.7309,4.7309,4.7309,4.7309,4.7309,4.7309,4.7309,4.7309,4.7309,4.7309,4.6166,4.4918,4.3598,4.2363,4.1132,3.9788,3.9697,3.9697,3.9697,3.9697,3.9697,3.9697,3.9697,3.9697,3.9697,3.9697,3.9697,3.9697,3.9697,3.9697,3.9697,3.9697,3.9697,0.0,0.0,0.0,4.2304,0.0,0.0,0.0,0.0,4.313,0.0,0.0,0.0,0.0,0.0,0.0,0.0,0.0,0.0,0.0,0.0,0.0,0.0,0.0,0.0,0.0,4.9001,4.9001,4.9001,4.9001,4.9001,4.9001,4.9001,4.9001,4.9001,4.9001,4.9001,4.9001,4.8513,4.8289,4.8289,4.8289,4.8289,4.8289,4.8289,4.8289,4.8289,4.7803,4.7306,4.6831,4.6183,4.5977,4.5861,4.5279,4.5293,4.5858,4.6202,4.6741,4.7309,4.7309,4.7309,4.7309,4.7309,4.7309,4.7309,4.7309,4.7309,4.7309,4.7309,4.7309,4.7309,4.7309,4.7309,4.7309,4.7309,4.7309,4.7309,4.7309,4.7309,4.7309,4.7309,4.7309,4.7309,4.7309,4.7309,4.7309,4.7309,4.7309,4.7106,4.6447,4.5207,4.3975,4.2641,4.1406,4.0364,3.9788,3.9697,3.9697,3.9697,3.9697,3.9697,3.9697,3.9697,3.9697,3.9697,3.9697,3.9697,3.9697,3.9697,3.9697,3.9697,3.9697,3.9697,0.0,0.0,0.0,0.0,0.0,4.2491,0.0,0.0,0.0,4.3369,0.0,0.0,0.0,0.0,0.0,0.0,0.0,0.0,0.0,0.0,0.0,0.0,0.0,0.0,0.0,4.8798,4.8849,4.8984,4.8883,4.8849,4.9001,4.8861,4.8719,4.8719,4.8576,4.8433,4.8433,4.7721,4.7306,4.7306,4.7306,4.7306,4.7306,4.7306,4.7306,4.7306,4.6523,4.6103,4.5953,4.5765,4.5696,4.5539,4.4941,4.5364,4.6337,4.6471,4.686,4.7309,4.7309,4.7309,4.7309,4.7309,4.7309,4.7309,4.7309,4.7309,4.7309,4.7309,4.7309,4.7309,4.7309,4.7309,4.7309,4.7309,4.7309,4.7309,4.7309,4.7309,4.7309,4.7309,4.7309,4.7309,4.7309,4.7309,4.7309,4.7309,4.7106,4.655,4.5494,4.4069,4.2738,4.169,4.0453,3.9697,3.9697,3.9697,3.9697,3.9697,3.9697,3.9697,3.9697,3.9697,3.9697,3.9697,3.9697,3.9697,3.9697,3.9697,3.9697,3.9697,3.9697,3.9697,0.0,0.0,0.0,0.0,4.2996,0.0,0.0,0.0,4.3387,4.3461,0.0,0.0,0.0,0.0,0.0,0.0,0.0,0.0,0.0,0.0,0.0,0.0,0.0,0.0,0.0,0.0,4.8308,4.8951,4.8409,4.8325,4.8968,4.8225,4.7737,4.7737,4.6952,4.6539,4.6539,4.6384,4.6384,4.6384,4.6384,4.6384,4.6384,4.6384,4.6384,4.6314,4.6244,4.5706,4.5008,4.5494,4.5535,4.5395,4.5858,4.6187,4.6396,4.698,4.7234,4.7309,4.7309,4.7309,4.7309,4.7309,4.7309,4.7309,4.7309,4.7309,4.7309,4.7309,4.7309,4.7309,4.7309,4.7309,4.7309,4.7309,4.7309,4.7309,4.7309,4.7309,4.7309,4.7309,4.7309,4.7309,4.7309,4.7309,4.7309,4.7309,4.6344,4.5584,4.5403,4.3313,4.1789,4.1604,4.0453,3.9697,3.9697,3.9697,3.9697,3.9697,3.9697,3.9697,3.9697,3.9697,3.9697,3.9697,3.9697,3.9697,3.9697,3.9697,3.9697,3.9697,3.9697,3.9697,0.0,0.0,0.0,0.0,0.0,0.0,4.2655,0.0,4.3124,0.0,0.0,0.0,0.0,0.0,0.0,0.0,0.0,0.0,0.0,0.0,0.0,0.0,0.0,0.0,0.0,0.0,0.0,0.0,0.0,4.7962,4.8192,4.7803,4.7373,4.6815,4.64,4.6173,4.6173,4.5634,4.5358,4.5358,4.5358,4.5358,4.5358,4.5358,4.5358,4.5358,4.4765,4.4481,4.4549,4.5202,4.5656,4.5963,4.6636,4.689,4.692,4.7204,4.7309,4.7309,4.7309,4.7309,4.7309,4.7309,4.7309,4.7309,4.7309,4.7309,4.7309,4.7309,4.7309,4.7309,4.7309,4.7309,4.7309,4.7309,4.7309,4.7309,4.7309,4.7309,4.7309,4.7309,4.7309,4.7309,4.7309,4.7309,4.7309,4.7309,4.6829,4.5973,4.4456,4.3409,4.2168,4.0642,3.9981,3.9697,3.9697,3.9697,3.9697,3.9697,3.9697,3.9697,3.9697,3.9697,3.9697,3.9697,3.9697,3.9697,3.9697,3.9697,3.9697,3.9697,3.9697,3.9697,3.9699,0.0,0.0,0.0,0.0,0.0,0.0,0.0,0.0,0.0,0.0,0.0,0.0,0.0,0.0,0.0,0.0,0.0,0.0,0.0,0.0,0.0,0.0,0.0,0.0,0.0,0.0,0.0,0.0,0.0,4.7965,4.7523,4.6884,4.6244,4.5674,4.54,4.54,4.4706,4.4373,4.4373,4.4373,4.4373,4.4373,4.4373,4.4373,4.4373,4.363,4.3703,4.4362,4.502,4.5708,4.6396,4.7055,4.7309,4.7309,4.7309,4.7309,4.7309,4.7309,4.7309,4.7309,4.7309,4.7309,4.7309,4.7309,4.7309,4.7309,4.7309,4.7309,4.7309,4.7309,4.7309,4.7309,4.7309,4.7309,4.7309,4.7309,4.7309,4.7309,4.7309,4.7309,4.7309,4.7309,4.7309,4.7207,4.6829,4.6447,4.5494,4.3218,4.2641,4.1789,3.989,3.9697,3.9697,3.9697,3.9697,3.9697,3.9697,3.9697,3.9697,3.9697,3.9697,3.9697,3.9697,3.9697,3.9697,3.9697,3.9697,3.9697,3.9697,3.9697,3.9697,0.0,0.0,0.0,4.0728,0.0,0.0,0.0,0.0,4.1835,0.0,0.0,0.0,0.0,0.0,0.0,0.0,0.0,0.0,0.0,0.0,0.0,0.0,0.0,0.0,0.0,0.0,0.0,0.0,0.0,0.0,4.8855,4.7239,4.6244,4.6173,4.4403,4.3394,4.3394,4.3329,4.3329,4.3329,4.3329,4.3329,4.3329,4.3329,4.3329,4.3329,4.3329,4.3703,4.4362,4.502,4.5708,4.6396,4.7055,4.7309,4.7309,4.7309,4.7309,4.7309,4.7309,4.7309,4.7309,4.7309,4.7309,4.7309,4.7309,4.7309,4.7309,4.7309,4.7309,4.7309,4.7309,4.7309,4.7309,4.7309,4.7309,4.7309,4.7309,4.7309,4.7309,4.7309,4.7309,4.7309,4.7309,4.7309,4.6916,4.5689,4.4442,4.3122,4.1789,4.0554,3.9788,3.9697,3.9697,3.9697,3.9697,3.9697,3.9697,3.9697,3.9697,3.9697,3.9697,3.9697,3.9697,3.9697,3.9697,3.9697,3.9697,3.9697,3.9697,3.9697,3.9697,3.9697,0.0,0.0,3.8739,3.9937,0.0,0.0,0.0,0.0,0.0,0.0,0.0,0.0,0.0,0.0,0.0,0.0,0.0,0.0,0.0,0.0,0.0,0.0,0.0,0.0,0.0,0.0,0.0,0.0,0.0,0.0,0.0,4.744,4.6539,4.5285,4.4646,4.3989,4.3329,4.3329,4.3329,4.3344,4.3778,4.3748,4.3344,4.3778,4.3988,4.3988,4.3988,4.4616,4.5663,4.5888,4.6381,4.6995,4.7219,4.7309,4.7309,4.7309,4.7309,4.7309,4.7309,4.7309,4.7309,4.7309,4.7309,4.7309,4.7309,4.7309,4.7309,4.7309,4.7309,4.7309,4.7309,4.7309,4.7309,4.7309,4.7309,4.7309,4.7309,4.7309,4.7309,4.7309,4.7309,4.7019,4.6166,4.6062,4.5883,4.5494,4.4349,4.3026,4.1789,4.1219,4.0655,3.9788,3.9697,3.9697,3.9697,3.9697,3.9697,3.9697,3.9697,3.9697,3.9697,3.9697,3.9697,3.9697,3.9697,3.9697,3.9697,3.9697,3.9697,3.9697,3.9697,3.9697,3.7326,3.7668,0.0,3.9509,3.9172,0.0,3.9308,0.0,0.0,0.0,0.0,0.0,0.0,0.0,0.0,0.0,0.0,0.0,0.0,0.0,0.0,0.0,0.0,0.0,0.0,0.0,4.5026,4.6312,0.0,0.0,0.0,0.0,4.7036,4.585,4.5153,4.451,4.3849,4.3472,4.3329,4.3344,4.3763,4.3748,4.3359,4.4018,4.4317,4.4332,4.4556,4.5289,4.6322,4.6322,4.6711,4.7309,4.7309,4.7309,4.7309,4.7309,4.7309,4.7309,4.7309,4.7309,4.7309,4.7309,4.7309,4.7309,4.7309,4.7309,4.7309,4.7309,4.7309,4.7309,4.7309,4.7309,4.7309,4.7309,4.7309,4.7309,4.7309,4.7309,4.7309,4.7309,4.7309,4.6916,4.5584,4.5024,4.4549,4.4163,4.3313,4.2363,4.1132,4.0932,4.0655,3.9788,3.9697,3.9697,3.9697,3.9697,3.9697,3.9697,3.9697,3.9697,3.9697,3.9697,3.9697,3.9697,3.9697,3.9697,3.9697,3.9697,3.9697,3.9697,3.9697,3.9697]},{"header":{"parameterUnit":"m.s-1","parameterCategory":1,"la1":30.6,"la2":29.2853,"lo1":-89.7004,"lo2":-87.6739,"dy":0.0162,"dx":0.0183,"nx":112,"ny":82,"refTime":"2025-04-11T12:00:00:Z","depth":0,"parameterNumber":3,"parameterNumberName":"V-component_of_WINDS"},"data":[0.0,0.0,0.0,0.0,0.0,0.0,0.0,0.0,0.0,0.0,0.0,0.0,0.0,0.0,0.0,0.0,0.0,0.0,0.0,0.0,0.0,0.0,0.0,0.0,0.0,0.0,0.0,0.0,0.0,0.0,0.0,0.0,0.0,0.0,0.0,0.0,0.0,0.0,0.0,0.0,0.0,0.0,0.0,0.0,0.0,0.0,0.0,0.0,0.0,0.0,0.0,0.0,0.0,0.0,0.0,0.0,0.0,0.0,0.0,0.0,0.0,0.0,0.0,0.0,0.0,0.0,0.0,0.0,0.0,0.0,0.0,0.0,0.0,0.0,0.0,0.0,0.0,0.0,0.0,0.0,0.0,0.0,0.0,0.0,0.0,0.0,0.0,0.0,0.0,0.0,0.0,-2.5262,-2.6047,-2.6483,-2.6483,-2.7441,-2.8096,-2.8096,0.0,0.0,0.0,0.0,0.0,0.0,0.0,0.0,0.0,0.0,0.0,0.0,0.0,0.0,0.0,0.0,0.0,0.0,0.0,0.0,0.0,0.0,0.0,0.0,0.0,0.0,0.0,0.0,0.0,0.0,0.0,0.0,0.0,0.0,0.0,0.0,0.0,0.0,0.0,0.0,0.0,0.0,0.0,0.0,0.0,0.0,0.0,0.0,0.0,0.0,0.0,0.0,0.0,0.0,0.0,0.0,0.0,0.0,0.0,0.0,0.0,0.0,0.0,0.0,0.0,0.0,0.0,0.0,0.0,0.0,0.0,0.0,0.0,0.0,0.0,0.0,0.0,0.0,0.0,0.0,0.0,0.0,0.0,0.0,0.0,0.0,0.0,0.0,0.0,0.0,0.0,0.0,0.0,0.0,0.0,0.0,0.0,0.0,0.0,0.0,0.0,0.0,0.0,0.0,-2.578,-2.7417,-2.6953,-2.6483,-2.6483,-2.7441,-2.8096,-2.8096,0.0,0.0,0.0,0.0,0.0,0.0,0.0,0.0,0.0,0.0,0.0,0.0,0.0,0.0,0.0,0.0,0.0,0.0,0.0,0.0,0.0,0.0,0.0,0.0,0.0,0.0,0.0,0.0,0.0,0.0,0.0,0.0,0.0,0.0,0.0,0.0,0.0,0.0,0.0,0.0,0.0,0.0,0.0,0.0,0.0,0.0,0.0,0.0,0.0,0.0,0.0,0.0,0.0,0.0,0.0,0.0,0.0,0.0,0.0,0.0,0.0,0.0,0.0,0.0,0.0,0.0,0.0,0.0,0.0,0.0,0.0,0.0,0.0,0.0,0.0,0.0,0.0,0.0,0.0,0.0,0.0,0.0,0.0,0.0,0.0,0.0,0.0,0.0,0.0,0.0,0.0,0.0,0.0,0.0,0.0,0.0,0.0,0.0,0.0,0.0,0.0,0.0,0.0,-2.4659,-2.6154,-2.7933,-2.8199,-2.8291,-2.8291,-2.87,-2.9028,-2.9028,-2.917,0.0,0.0,0.0,0.0,0.0,0.0,0.0,0.0,0.0,0.0,0.0,0.0,0.0,0.0,0.0,0.0,0.0,0.0,0.0,0.0,0.0,0.0,0.0,0.0,0.0,0.0,0.0,0.0,0.0,0.0,0.0,0.0,0.0,0.0,0.0,0.0,0.0,0.0,0.0,0.0,0.0,0.0,0.0,0.0,0.0,0.0,0.0,0.0,0.0,0.0,0.0,0.0,0.0,0.0,0.0,0.0,0.0,0.0,0.0,0.0,0.0,0.0,0.0,0.0,0.0,0.0,0.0,0.0,0.0,0.0,0.0,0.0,0.0,0.0,0.0,0.0,0.0,0.0,0.0,0.0,0.0,0.0,0.0,0.0,0.0,0.0,0.0,0.0,0.0,0.0,0.0,0.0,0.0,0.0,0.0,0.0,0.0,0.0,0.0,0.0,0.0,0.0,-2.519,-2.645,-2.7567,-2.87,-2.9365,-2.9365,-2.9499,-2.9591,-2.9591,-2.8938,0.0,0.0,0.0,0.0,0.0,0.0,0.0,0.0,0.0,0.0,0.0,0.0,0.0,0.0,0.0,0.0,0.0,0.0,0.0,0.0,0.0,0.0,0.0,0.0,0.0,0.0,0.0,0.0,0.0,0.0,0.0,0.0,0.0,0.0,0.0,0.0,0.0,0.0,0.0,0.0,0.0,0.0,0.0,0.0,0.0,0.0,0.0,0.0,0.0,0.0,0.0,0.0,0.0,0.0,0.0,0.0,0.0,0.0,0.0,0.0,0.0,0.0,0.0,0.0,0.0,0.0,0.0,0.0,0.0,0.0,0.0,0.0,0.0,0.0,0.0,0.0,0.0,0.0,0.0,0.0,0.0,0.0,0.0,0.0,0.0,0.0,0.0,0.0,0.0,0.0,0.0,0.0,0.0,0.0,0.0,0.0,0.0,0.0,0.0,0.0,0.0,0.0,-2.5278,-2.6521,-2.6637,-2.7614,-2.8255,-2.8255,-2.8704,-2.8988,-2.8988,-2.7996,0.0,0.0,0.0,0.0,0.0,0.0,0.0,0.0,0.0,0.0,0.0,0.0,0.0,0.0,0.0,0.0,0.0,0.0,0.0,0.0,0.0,0.0,0.0,0.0,0.0,0.0,0.0,0.0,0.0,0.0,0.0,0.0,0.0,0.0,0.0,0.0,0.0,0.0,0.0,0.0,0.0,0.0,0.0,0.0,0.0,0.0,0.0,0.0,0.0,0.0,0.0,0.0,0.0,0.0,0.0,0.0,0.0,0.0,0.0,0.0,0.0,0.0,0.0,0.0,0.0,0.0,0.0,0.0,0.0,0.0,0.0,0.0,0.0,0.0,0.0,0.0,0.0,0.0,0.0,0.0,0.0,0.0,0.0,0.0,0.0,0.0,0.0,0.0,0.0,0.0,0.0,0.0,0.0,0.0,0.0,0.0,0.0,0.0,0.0,0.0,0.0,0.0,-2.4551,-2.588,0.0,-2.7023,-2.8096,-2.8096,-2.8922,-2.9315,-2.895,0.0,0.0,0.0,0.0,0.0,0.0,0.0,0.0,0.0,0.0,0.0,0.0,0.0,0.0,0.0,0.0,0.0,0.0,0.0,0.0,0.0,0.0,0.0,0.0,0.0,0.0,0.0,0.0,0.0,0.0,0.0,0.0,0.0,0.0,0.0,0.0,0.0,0.0,0.0,0.0,0.0,0.0,0.0,0.0,0.0,0.0,0.0,0.0,0.0,0.0,0.0,0.0,0.0,0.0,0.0,0.0,0.0,0.0,0.0,0.0,0.0,0.0,0.0,0.0,0.0,0.0,0.0,0.0,0.0,0.0,0.0,0.0,0.0,0.0,0.0,0.0,0.0,0.0,0.0,0.0,0.0,0.0,0.0,0.0,0.0,0.0,0.0,0.0,0.0,0.0,0.0,0.0,0.0,0.0,0.0,0.0,0.0,0.0,0.0,0.0,0.0,0.0,-2.2063,-2.4611,-2.5917,0.0,-2.6521,-2.7924,-2.7602,-2.879,-2.9202,-2.8448,0.0,0.0,0.0,0.0,0.0,0.0,0.0,0.0,0.0,0.0,0.0,0.0,0.0,0.0,0.0,0.0,0.0,0.0,0.0,0.0,0.0,0.0,0.0,0.0,0.0,0.0,0.0,0.0,0.0,0.0,0.0,0.0,0.0,0.0,0.0,0.0,0.0,0.0,0.0,0.0,0.0,0.0,0.0,0.0,0.0,0.0,0.0,0.0,0.0,0.0,0.0,0.0,0.0,0.0,0.0,0.0,0.0,0.0,0.0,0.0,0.0,0.0,0.0,0.0,0.0,0.0,0.0,0.0,0.0,0.0,0.0,0.0,0.0,0.0,0.0,0.0,0.0,0.0,0.0,0.0,0.0,0.0,0.0,0.0,0.0,0.0,0.0,0.0,0.0,0.0,0.0,0.0,0.0,0.0,0.0,0.0,0.0,0.0,0.0,0.0,0.0,0.0,-2.2207,-2.5521,-2.6767,-2.3474,-2.6119,-2.7602,-2.6554,-2.7957,-2.8461,0.0,0.0,0.0,0.0,0.0,0.0,0.0,0.0,0.0,0.0,0.0,0.0,0.0,0.0,0.0,0.0,0.0,0.0,0.0,0.0,0.0,0.0,0.0,0.0,0.0,0.0,0.0,0.0,0.0,0.0,0.0,0.0,0.0,0.0,0.0,0.0,0.0,0.0,0.0,0.0,0.0,0.0,0.0,0.0,0.0,0.0,0.0,0.0,0.0,0.0,0.0,0.0,0.0,0.0,0.0,0.0,0.0,0.0,0.0,0.0,0.0,0.0,0.0,0.0,0.0,0.0,0.0,0.0,0.0,0.0,0.0,0.0,0.0,0.0,0.0,0.0,0.0,0.0,0.0,0.0,0.0,0.0,0.0,0.0,0.0,0.0,0.0,0.0,0.0,0.0,0.0,0.0,0.0,0.0,0.0,0.0,0.0,0.0,0.0,0.0,0.0,0.0,0.0,-2.1719,-2.4686,-2.5964,-2.3387,-2.4702,-2.5953,-2.6472,-2.7305,-2.7665,-2.7356,0.0,0.0,0.0,0.0,0.0,0.0,0.0,0.0,0.0,0.0,0.0,0.0,0.0,0.0,0.0,0.0,0.0,0.0,0.0,0.0,0.0,0.0,0.0,0.0,0.0,0.0,0.0,0.0,0.0,0.0,0.0,0.0,0.0,0.0,0.0,0.0,0.0,0.0,0.0,0.0,0.0,0.0,0.0,0.0,0.0,0.0,0.0,0.0,0.0,0.0,0.0,0.0,0.0,0.0,0.0,0.0,0.0,0.0,0.0,0.0,0.0,0.0,0.0,0.0,0.0,0.0,0.0,0.0,0.0,0.0,0.0,0.0,0.0,0.0,0.0,0.0,0.0,0.0,0.0,0.0,0.0,0.0,0.0,0.0,0.0,0.0,0.0,0.0,0.0,0.0,0.0,0.0,0.0,0.0,0.0,0.0,0.0,0.0,0.0,0.0,0.0,0.0,-2.1441,-2.4285,-2.5641,-2.3299,-2.4553,-2.5797,-2.6472,-2.6976,-2.7179,-2.6959,0.0,0.0,0.0,0.0,0.0,0.0,0.0,0.0,0.0,0.0,0.0,0.0,0.0,0.0,0.0,0.0,0.0,0.0,0.0,0.0,0.0,0.0,0.0,0.0,0.0,0.0,0.0,0.0,0.0,0.0,0.0,0.0,0.0,0.0,0.0,0.0,0.0,0.0,0.0,0.0,0.0,0.0,0.0,0.0,0.0,0.0,0.0,0.0,0.0,0.0,0.0,0.0,0.0,0.0,0.0,0.0,0.0,0.0,0.0,0.0,0.0,0.0,0.0,0.0,0.0,0.0,0.0,0.0,0.0,0.0,0.0,0.0,0.0,0.0,0.0,0.0,0.0,0.0,0.0,0.0,0.0,0.0,0.0,0.0,0.0,0.0,0.0,0.0,0.0,0.0,0.0,0.0,0.0,0.0,0.0,0.0,0.0,0.0,0.0,0.0,0.0,0.0,-2.1402,-2.4204,-2.5473,-2.3299,-2.4978,-2.6235,-2.6472,-2.6896,-2.6983,-2.6628,0.0,0.0,0.0,0.0,0.0,0.0,0.0,0.0,0.0,0.0,0.0,0.0,0.0,0.0,0.0,0.0,0.0,0.0,0.0,0.0,0.0,0.0,0.0,0.0,0.0,0.0,0.0,0.0,0.0,0.0,0.0,0.0,0.0,0.0,0.0,0.0,0.0,0.0,0.0,0.0,0.0,0.0,0.0,0.0,0.0,0.0,0.0,0.0,0.0,0.0,0.0,0.0,0.0,0.0,0.0,0.0,0.0,0.0,0.0,0.0,-2.0367,0.0,0.0,0.0,0.0,0.0,0.0,0.0,0.0,0.0,0.0,0.0,0.0,0.0,0.0,0.0,0.0,0.0,0.0,0.0,0.0,0.0,0.0,0.0,0.0,0.0,0.0,0.0,0.0,0.0,0.0,0.0,0.0,0.0,0.0,0.0,0.0,0.0,0.0,0.0,0.0,0.0,-2.1332,-2.3546,-2.4628,-2.3222,-2.356,-2.4563,-2.6307,-2.6174,-2.6275,-2.711,-2.6276,0.0,0.0,0.0,0.0,0.0,0.0,0.0,0.0,0.0,0.0,0.0,0.0,0.0,0.0,0.0,0.0,0.0,0.0,0.0,0.0,0.0,0.0,0.0,0.0,0.0,0.0,0.0,0.0,0.0,0.0,0.0,0.0,0.0,0.0,0.0,0.0,0.0,0.0,0.0,0.0,0.0,0.0,0.0,0.0,0.0,0.0,0.0,0.0,0.0,0.0,0.0,0.0,0.0,0.0,0.0,0.0,0.0,0.0,0.0,0.0,-2.13,0.0,0.0,0.0,0.0,0.0,0.0,0.0,0.0,0.0,0.0,0.0,0.0,0.0,0.0,0.0,0.0,0.0,0.0,0.0,0.0,0.0,0.0,0.0,0.0,0.0,0.0,0.0,0.0,0.0,0.0,0.0,0.0,0.0,0.0,0.0,0.0,0.0,0.0,0.0,0.0,-2.1252,-2.2828,-2.3963,-2.3877,-2.3877,-2.4798,-2.7116,-2.6725,-2.6629,-2.7272,-2.6477,0.0,0.0,0.0,0.0,0.0,0.0,0.0,0.0,0.0,0.0,0.0,0.0,0.0,0.0,0.0,0.0,0.0,0.0,0.0,0.0,0.0,0.0,0.0,0.0,0.0,0.0,0.0,0.0,0.0,0.0,0.0,0.0,0.0,0.0,0.0,0.0,0.0,0.0,0.0,0.0,0.0,0.0,0.0,0.0,0.0,0.0,0.0,0.0,0.0,0.0,0.0,0.0,0.0,-2.3031,-2.3033,-2.3193,-2.4158,-2.4562,-2.4479,-2.2689,-2.2572,-2.3724,-2.3724,0.0,0.0,0.0,0.0,0.0,0.0,0.0,0.0,0.0,0.0,0.0,0.0,0.0,0.0,0.0,0.0,0.0,0.0,0.0,0.0,0.0,0.0,0.0,0.0,-2.7619,-2.773,0.0,0.0,0.0,0.0,0.0,0.0,0.0,0.0,0.0,0.0,0.0,0.0,-2.159,-2.2794,-2.4049,-2.4957,-2.5126,-2.5953,-2.7924,-2.7691,-2.7444,-2.7548,-2.6967,-2.6531,0.0,0.0,0.0,0.0,0.0,0.0,0.0,0.0,0.0,0.0,0.0,0.0,0.0,0.0,0.0,0.0,0.0,0.0,0.0,0.0,0.0,0.0,0.0,0.0,0.0,0.0,0.0,0.0,0.0,0.0,0.0,0.0,-1.7505,-1.7692,0.0,0.0,0.0,0.0,0.0,0.0,0.0,0.0,0.0,0.0,0.0,0.0,0.0,-2.2533,-2.3135,-2.3086,-2.3577,-2.4542,-2.448,-2.5041,-2.597,-2.6135,-2.6218,-2.6218,-2.5865,0.0,-2.6058,-2.6058,0.0,0.0,0.0,0.0,0.0,0.0,0.0,0.0,0.0,0.0,0.0,0.0,0.0,0.0,0.0,0.0,0.0,0.0,0.0,0.0,0.0,0.0,-2.7866,-2.8447,-2.8737,-2.8937,0.0,-2.7195,-2.4885,-2.4127,-2.3503,0.0,0.0,0.0,0.0,0.0,0.0,0.0,-2.3265,-2.4848,-2.6141,-2.6224,-2.6307,-2.6789,-2.8016,-2.8024,-2.8222,-2.8675,-2.7745,-2.7283,-2.7473,-2.6593,0.0,0.0,0.0,0.0,0.0,0.0,0.0,0.0,0.0,0.0,0.0,0.0,0.0,0.0,0.0,0.0,0.0,0.0,0.0,0.0,0.0,0.0,0.0,0.0,0.0,0.0,0.0,0.0,0.0,-1.6943,-1.7956,-1.8588,-2.0215,-2.1569,0.0,0.0,0.0,0.0,0.0,0.0,0.0,0.0,0.0,-2.2783,-2.2607,-2.2715,-2.3135,-2.3714,-2.4296,-2.4787,-2.5462,-2.6058,-2.6554,-2.7116,-2.7371,-2.7441,-2.8603,-2.9139,-2.8983,-2.7267,-2.6315,-2.6138,0.0,0.0,0.0,0.0,-2.4421,-2.3562,-2.4214,-2.4161,0.0,-2.432,0.0,0.0,0.0,0.0,0.0,0.0,0.0,0.0,0.0,0.0,-2.8005,-2.9148,-2.982,-3.0306,-3.0737,-3.0033,-2.9018,0.0,-2.7585,-2.7031,-2.5371,0.0,0.0,0.0,0.0,-2.4457,-2.4752,-2.578,-2.6719,-2.736,-2.7371,-2.7867,-2.8949,-2.9028,-2.904,-2.8888,-2.8473,-2.8569,-2.9389,-2.8288,-2.8001,0.0,0.0,0.0,0.0,0.0,0.0,0.0,0.0,0.0,0.0,0.0,0.0,0.0,0.0,0.0,0.0,0.0,0.0,0.0,0.0,0.0,0.0,0.0,0.0,0.0,0.0,0.0,0.0,-1.7124,-1.8503,-1.9405,-2.0854,-2.212,0.0,0.0,0.0,0.0,0.0,0.0,-2.2685,-2.2676,-2.2676,-2.2676,-2.2676,-2.2908,-2.3551,-2.4382,-2.5115,-2.5608,-2.6461,-2.7046,-2.7383,-2.8402,-2.8863,-2.902,-3.0768,-3.1536,-3.1375,-2.9024,-2.7854,-2.7496,-2.7496,-2.7109,-2.65,-2.6718,-2.6276,-2.5821,-2.6332,-2.6147,-2.5859,-2.5937,0.0,-2.6411,-2.573,0.0,0.0,0.0,0.0,-2.6178,-2.7729,-2.8106,-2.837,-2.9524,-3.0482,-3.1241,-3.1536,-3.2321,-3.25,0.0,-3.0929,-3.0596,-2.8608,0.0,0.0,0.0,0.0,-2.6019,-2.6546,-2.7047,-2.7626,-2.8438,-2.8518,-2.8858,-2.9714,-2.9792,-2.9616,-2.9176,-2.9013,-2.9499,-3.0979,-2.9742,-2.9572,-3.072,0.0,0.0,0.0,0.0,0.0,0.0,0.0,0.0,0.0,0.0,0.0,0.0,0.0,0.0,0.0,0.0,0.0,0.0,0.0,0.0,0.0,0.0,0.0,0.0,0.0,0.0,0.0,0.0,0.0,-1.9488,-2.1587,0.0,0.0,0.0,0.0,-2.3135,-2.3135,-2.3125,-2.3105,-2.3105,-2.3105,-2.3105,-2.3105,-2.3617,-2.4702,-2.4787,-2.5859,-2.7924,-2.8004,-2.8597,-2.9702,-3.0607,-3.1018,-3.1093,-3.2105,-3.2522,-3.2522,-3.2365,-3.228,-3.2253,-3.2253,-3.1388,-2.9994,-2.9479,-2.8402,-2.7079,-2.6655,-2.6147,-2.604,-2.746,-2.8909,-3.0125,-2.9974,-2.9008,0.0,0.0,-2.8071,-2.7741,-2.9269,-2.9664,-2.9677,-2.9779,-3.0482,-3.1462,-3.2321,-3.3241,-3.3471,0.0,-3.1778,-3.157,-3.0929,0.0,-3.0403,-2.9424,-2.9781,-2.9736,-2.8886,-2.9263,-2.9624,-2.9702,-2.9702,-2.9714,-2.9792,-2.9792,-2.9779,-2.9754,-2.9239,-2.968,-3.1516,-3.0361,-3.0284,-3.1437,-3.0193,0.0,0.0,0.0,0.0,0.0,0.0,0.0,0.0,0.0,0.0,0.0,0.0,0.0,0.0,0.0,0.0,0.0,0.0,0.0,0.0,0.0,0.0,0.0,0.0,0.0,0.0,0.0,0.0,-1.9717,-2.046,0.0,-2.3347,-2.3301,-2.3135,-2.3135,-2.3135,-2.3135,-2.3135,-2.3135,-2.3135,-2.3135,-2.38,-2.4372,-2.4787,-2.6191,-2.7348,-2.8096,-2.9474,-3.0342,-3.0771,-3.1683,-3.2105,-3.2177,-3.3101,-3.3518,-3.3518,-3.4192,-3.3754,-3.2593,-3.2593,-3.2299,-3.1738,-3.1594,-3.1136,-3.0658,-3.0449,-2.9897,-2.9352,-2.9948,-3.0861,-3.1792,-3.1809,-3.1419,-3.1025,-3.124,-3.1017,-3.0937,-3.1483,-3.1623,-3.1623,-3.1623,-3.2321,-3.3101,-3.3449,-3.4259,-3.478,-3.4266,-3.4141,-3.3871,-3.2806,-3.2486,-3.2113,-3.1331,-3.1227,-3.1074,-3.0477,-3.054,-3.0482,-2.9856,-2.9792,-2.9792,-2.9792,-2.9792,-2.9792,-2.9792,-2.9603,-3.0035,-3.1288,-3.0719,-3.0597,-3.1209,-3.0537,-2.9524,0.0,0.0,0.0,0.0,0.0,0.0,0.0,0.0,0.0,0.0,0.0,0.0,0.0,0.0,0.0,0.0,0.0,0.0,0.0,0.0,0.0,0.0,0.0,0.0,0.0,0.0,-1.7327,-1.9796,-2.0281,-2.1307,-2.3764,-2.374,-2.3516,-2.3369,-2.3359,-2.3291,-2.3144,-2.3135,-2.3309,-2.3627,-2.4372,-2.5199,-2.5942,-2.7348,-2.8267,-2.8676,-3.0075,-3.0895,-3.1254,-3.2177,-3.2749,-3.3101,-3.4109,-3.4543,-3.4543,-3.5213,-3.4773,-3.3547,-3.3547,-3.3547,-3.3547,-3.3171,-3.3101,-3.3031,-3.2749,-3.2177,-3.1742,-3.2033,-3.2593,-3.3171,-3.3463,-3.3325,-3.3101,-3.3101,-3.282,-3.2593,-3.2593,-3.2593,-3.2593,-3.2593,-3.331,-3.4027,-3.4027,-3.4758,-3.5504,-3.5504,-3.5504,-3.522,-3.4322,-3.4267,-3.41,-3.3331,-3.3091,-3.272,-3.2181,-3.1609,-3.097,-3.0343,-3.0011,-2.9716,-2.9515,-2.9503,-2.9428,-2.9239,-2.9227,-2.9629,-3.0599,-3.0417,-3.0564,-3.1128,-3.0541,-2.9841,-2.9124,0.0,0.0,0.0,0.0,0.0,0.0,0.0,0.0,0.0,0.0,0.0,0.0,0.0,0.0,0.0,0.0,0.0,0.0,0.0,0.0,0.0,0.0,0.0,-1.7505,-1.7692,-1.8264,-1.9906,-2.1177,-2.2557,-2.42,-2.4424,-2.434,-2.3928,-2.3898,-2.3702,-2.3271,-2.3242,-2.3734,-2.4787,-2.4872,-2.5942,-2.8084,-2.8176,-2.8688,-2.9792,-2.9869,-3.0355,-3.1254,-3.2177,-3.3101,-3.4027,-3.4986,-3.5424,-3.5439,-3.5504,-3.5504,-3.5504,-3.5504,-3.5504,-3.5359,-3.4394,-3.4027,-3.3876,-3.2961,-3.2664,-3.282,-3.3739,-3.4027,-3.4245,-3.5213,-3.4839,-3.4027,-3.4027,-3.338,-3.2678,-3.2678,-3.2678,-3.2678,-3.2678,-3.3394,-3.4027,-3.4027,-3.4839,-3.5504,-3.5504,-3.5504,-3.5504,-3.5504,-3.6102,-3.6337,-3.5619,-3.5325,0.0,-3.4148,-3.2393,-3.1254,-3.118,-3.0343,-2.9566,-2.9001,-2.8938,-2.8699,-2.816,-2.8109,-2.8507,-2.9381,-2.9699,-3.0261,-3.1195,-3.0199,-2.9904,-3.0447,0.0,0.0,0.0,0.0,0.0,0.0,0.0,0.0,0.0,0.0,0.0,0.0,0.0,0.0,0.0,0.0,0.0,0.0,0.0,0.0,0.0,0.0,-1.7318,-1.7692,-1.6943,-1.7042,-1.8827,-2.0001,-2.1318,-2.3253,-2.4819,-2.5771,-2.5647,-2.6427,-2.6661,-2.6183,-2.6162,-2.6084,-2.6058,-2.6778,-2.751,-2.8084,-2.8937,-2.9456,-2.9792,-3.0482,-3.097,-3.1254,-3.2177,-3.2749,-3.3031,-3.4027,-3.4394,-3.4461,-3.5213,-3.5504,-3.5504,-3.5504,-3.5504,-3.5439,-3.5213,-3.5067,-3.492,-3.3959,-3.4109,-3.4624,-3.4177,-3.4461,-3.5133,-3.5439,-3.5294,-3.5067,-3.5067,-3.492,-3.4706,-3.4706,-3.4706,-3.4706,-3.4706,-3.492,-3.5067,-3.5067,-3.5279,-3.5504,-3.5504,-3.5504,-3.5504,-3.5504,-3.6102,-3.6337,-3.5619,-3.5897,0.0,-3.4216,-3.2961,-3.196,-3.1241,-3.0343,-2.9729,-2.9566,-2.9164,-2.8863,-2.8712,-2.8335,-2.8243,-2.8448,-2.9362,-3.0334,-3.1412,-3.1107,-3.0964,0.0,0.0,0.0,0.0,0.0,0.0,0.0,0.0,0.0,0.0,0.0,0.0,0.0,0.0,0.0,0.0,0.0,0.0,0.0,0.0,0.0,0.0,-1.8994,-1.8119,-1.8816,-1.7215,-1.6656,-1.8491,-1.9846,-2.1281,-2.3081,-2.5407,-2.6778,-2.6578,-2.7436,-2.7813,-2.733,-2.7105,-2.7024,-2.7139,-2.7763,-2.8347,-2.8767,-2.9456,-2.9792,-2.9792,-3.0343,-3.0833,-3.1254,-3.1742,-3.2249,0.0,-3.3171,-3.338,-3.3449,-3.4041,-3.4558,0.0,0.0,0.0,0.0,0.0,-3.5504,-3.5439,-3.4839,-3.4986,-3.5424,-3.4839,-3.5052,-3.5504,-3.5504,-3.5504,-3.5504,-3.5504,-3.5504,-3.5504,-3.5504,-3.5504,-3.5504,-3.5504,-3.5504,-3.5504,-3.5504,-3.5504,-3.5504,-3.5504,-3.5504,0.0,-3.5504,-3.6102,-3.6337,-3.5619,-3.6117,-3.6104,-3.481,-3.3808,-3.282,-3.1888,-3.0983,-3.0101,-2.9453,-2.9114,0.0,0.0,0.0,-2.7788,-2.7959,-2.8932,0.0,0.0,0.0,0.0,0.0,0.0,0.0,0.0,-3.5184,-3.5465,0.0,0.0,0.0,0.0,0.0,0.0,0.0,0.0,0.0,0.0,0.0,0.0,0.0,0.0,0.0,0.0,-1.9894,-1.8889,-2.0143,-1.8043,-1.6952,-1.8383,-2.013,-2.1841,-2.3349,-2.6118,-2.7598,-2.7175,-2.7988,-2.8293,-2.7832,0.0,0.0,0.0,0.0,-2.8767,-2.9792,-2.9792,-2.9792,-2.9792,-2.9792,-3.0203,-3.1044,-3.1044,-3.1462,-3.2321,-3.2393,-3.2464,-3.2464,-3.2522,-3.3101,-3.3959,-3.5067,-3.5504,-3.5504,-3.5504,-3.5504,-3.5504,-3.5504,0.0,0.0,-3.5504,-3.5504,-3.5504,-3.5504,-3.5504,-3.5504,-3.5504,-3.5504,-3.5504,-3.5504,-3.5504,-3.5504,-3.5504,-3.5504,-3.5504,-3.5504,-3.5504,-3.5504,-3.5504,-3.5504,-3.5504,-3.5504,-3.6102,-3.6337,-3.5619,-3.6117,-3.6322,-3.5619,-3.461,-3.3671,-3.2678,0.0,0.0,-2.9139,-2.8963,-2.8511,-2.7532,-2.7406,-2.7551,-2.7881,-2.876,-2.9891,-3.1248,-3.2151,-3.3566,-3.5584,-3.6382,-3.7192,-3.7846,-3.6658,-3.6751,0.0,0.0,0.0,0.0,0.0,0.0,0.0,0.0,0.0,0.0,0.0,0.0,0.0,0.0,0.0,-2.0399,-2.0186,-1.9822,-1.9025,-1.7846,-1.7103,-1.7456,-1.9683,-2.1445,-2.2022,-2.6325,-2.9006,-2.8907,-3.0897,-3.1674,-3.0688,-3.0528,-3.0165,-2.9481,-2.9456,-2.9611,-2.9792,-2.9792,-2.9792,-2.9792,0.0,0.0,-3.0075,-3.0075,-3.0139,-3.0355,-3.1119,-3.1462,-3.1536,-3.2321,-3.2749,-3.3031,-3.4839,-3.5504,-3.5504,-3.5504,-3.5504,-3.5504,-3.5504,-3.5504,-3.5504,-3.5504,-3.5504,-3.5504,-3.5504,-3.5504,0.0,-3.5504,-3.5504,-3.5504,-3.5504,-3.5504,-3.5504,-3.5504,-3.5504,-3.5504,-3.5504,-3.5504,-3.5504,-3.5504,-3.5504,-3.5504,-3.5504,-3.6102,-3.6337,-3.5619,-3.6117,-3.6322,-3.5619,-3.461,-3.3671,-3.2678,-3.1742,-3.0781,-2.9705,-2.9202,-2.8837,-2.8624,-2.8197,-2.8303,-2.9065,-2.9984,-3.0904,-3.1889,-3.283,-3.3803,-3.4743,-3.6102,-3.7167,-3.7829,-3.8791,-3.9088,0.0,0.0,0.0,0.0,0.0,0.0,0.0,0.0,0.0,0.0,0.0,-2.0972,-2.1527,0.0,-2.1995,-2.1501,-2.0532,-1.9644,-1.9119,-1.8079,-1.7315,-1.7271,-1.9674,-2.1545,-2.1727,-2.5856,-2.8773,-2.9315,-3.0572,-3.1366,-3.1424,-3.0884,-3.0344,-2.9817,-2.9792,-2.9792,-2.9792,-2.9792,-2.9792,-2.9792,-2.9792,-2.9792,-2.9792,-2.9792,-2.9792,-2.9869,-3.0279,-3.0482,-3.0558,-3.1536,-3.1888,-3.2033,-3.3478,-3.4341,-3.4839,-3.5279,-3.5504,-3.5504,-3.5504,-3.5504,-3.5504,-3.5504,-3.5504,-3.5504,-3.5504,-3.5504,-3.5504,-3.5504,-3.5504,-3.5504,-3.5504,-3.5504,-3.5504,-3.5504,-3.5504,-3.5359,-3.4839,-3.5133,-3.5359,-3.4839,-3.5133,-3.5504,-3.5504,-3.5782,-3.5943,-3.5554,-3.5846,-3.5894,-3.5569,-3.5067,-3.4192,-3.2749,-3.2177,-3.1328,-2.9934,-2.9264,-2.8925,-2.8925,-2.8411,-2.8303,-2.871,-3.0063,-3.1138,-3.1928,-3.3304,-3.4531,-3.5517,-3.6743,-3.7656,-3.8397,-3.9546,-4.005,0.0,0.0,0.0,0.0,0.0,0.0,0.0,0.0,-1.8419,-1.9412,-2.1103,-2.2786,-2.3725,-2.34,-2.2926,-2.3033,-2.1279,-1.993,-1.9994,-1.8812,-1.79,-1.7668,-2.0069,-2.1752,-2.1752,-2.5305,-2.81,-2.9181,-2.959,-3.0157,-3.1167,-3.0419,-2.9905,-2.9792,-2.9792,-2.9792,-2.9792,-2.9792,-2.9792,-2.9792,-2.9792,-2.9792,-2.9792,-2.9792,-2.9792,-2.9792,-2.9792,-2.9792,-2.9869,-3.0633,-3.0895,-3.1044,-3.196,-3.282,-3.3602,-3.4773,-3.5359,-3.5504,-3.5504,-3.5504,-3.5504,-3.5504,-3.5504,-3.5504,-3.5504,-3.5504,-3.5504,-3.5504,-3.5504,-3.5504,-3.5504,-3.5504,-3.5504,-3.5504,-3.5359,-3.4986,-3.4177,-3.4476,-3.4706,-3.3891,-3.4543,-3.5213,-3.5213,-3.5359,-3.5504,-3.5504,-3.5504,-3.5504,-3.5504,-3.5504,-3.4773,-3.282,-3.2593,-3.1829,-2.9934,-2.9365,-2.9089,-2.9089,-2.8687,-2.8497,-2.8705,-3.0261,-3.1514,-3.2207,-3.3835,-3.5286,-3.6384,-3.716,-3.7962,-3.869,-3.9489,-4.0203,-2.2196,-1.9703,0.0,-1.6116,-1.5832,-1.5832,0.0,0.0,-1.9874,-1.9967,-2.2242,-2.4161,-2.4346,-2.4604,-2.4421,-2.3184,-2.309,-2.2724,-2.1643,-2.0231,-1.9413,-1.9376,-2.0711,-2.1752,-2.1752,-2.5305,-2.7868,-2.8611,-2.9718,-3.0399,-3.0678,-3.0595,-3.0306,-2.9817,-2.9792,-2.9792,-2.9792,-2.9792,-2.9792,-2.9792,-2.9792,-2.9792,-2.9792,-2.9792,-2.9792,-2.9792,-2.9792,-2.9792,-2.9792,-2.9934,-2.9934,-3.0075,-3.097,-3.1389,-3.1742,-3.3533,-3.4758,-3.5504,-3.5504,-3.5504,-3.5504,-3.5504,-3.5504,-3.5504,-3.5504,-3.5504,-3.5504,-3.5504,-3.5504,-3.5504,-3.5504,-3.5504,-3.5504,-3.5504,-3.4839,-3.4163,-3.4027,-3.3449,-3.289,-3.282,-3.3533,-3.4177,-3.4177,-3.4905,-3.5504,-3.5504,-3.5504,-3.5504,-3.5504,-3.5504,-3.4773,-3.282,-3.2593,-3.1829,-2.9934,-2.9729,-2.9691,-2.9691,-2.9641,-2.9948,-3.0847,-3.1829,-3.2849,-3.3708,-3.4802,-3.5494,-3.5619,-3.6399,-3.7144,-3.7921,-3.869,-3.942,-2.3033,0.0,0.0,0.0,-1.6656,-1.6132,-1.6299,-1.7768,-1.939,-2.0243,-2.2081,-2.3815,-2.4691,-2.4555,-2.4133,0.0,-2.2971,-2.2357,-2.1752,-2.1143,-2.0766,-2.0458,-2.1216,-2.1752,-2.1752,-2.3943,-2.6205,-2.8432,-2.874,-2.9327,-3.0566,-3.0306,-3.003,-2.9804,-2.9792,-2.9792,-2.9792,-2.9792,-2.9792,-2.9792,-2.9792,-2.9792,-2.9792,-2.9792,-2.9792,-2.9792,-2.9792,-2.9792,-2.9792,-2.9792,-2.9792,-2.9869,-3.0203,-3.0696,-3.1389,-3.2678,-3.3822,-3.461,-3.461,-3.4986,-3.5504,-3.5504,-3.5504,-3.5504,-3.5504,-3.5504,-3.5504,-3.5504,-3.5504,-3.5504,-3.5504,-3.5504,-3.5359,-3.4758,-3.4312,-3.3671,-3.2593,-3.2464,-3.2464,-3.1888,-3.2522,-3.3171,-3.3171,-3.3973,-3.461,-3.461,-3.5133,-3.5504,-3.5504,-3.5504,-3.4773,-3.282,-3.1623,-3.0633,-2.9869,-2.9792,-2.9792,-2.9792,-2.9792,-3.0203,-3.118,-3.2105,-3.3031,-3.3959,-3.4986,-3.5504,-3.5504,-3.6228,-3.6783,-3.7144,-3.8342,-3.9086,-2.3561,0.0,0.0,-1.8406,-1.7635,-1.6931,-1.6753,-1.7747,-1.9079,-2.0524,-2.2091,-2.3648,-2.5053,-2.4704,0.0,-2.4205,-2.3484,-2.2767,-2.2767,-2.2072,-2.1395,-2.1131,-2.0648,-2.0684,-2.1486,-2.2906,-2.4957,-2.7891,-2.7845,-2.839,-3.0035,-2.9924,-2.9792,-2.9792,-2.9792,-2.9792,-2.9792,-2.9792,-2.9792,-2.9792,-2.9792,-2.9792,-2.9792,-2.9792,-2.9792,-2.9792,-2.9792,-2.9792,-2.9792,-2.9792,-2.9792,-2.9792,-2.9792,-3.0203,-3.0908,-3.1549,-3.2607,-3.3602,-3.3602,-3.4259,-3.5067,-3.5067,-3.5279,-3.5504,-3.5504,-3.5504,-3.5504,-3.5504,-3.5504,-3.5504,-3.5504,-3.5279,-3.4905,-3.4177,-3.3602,-3.289,-3.1462,-3.1536,-3.1623,-3.0983,-3.1536,-3.2249,-3.2249,-3.2961,-3.3602,-3.3602,-3.4259,-3.492,-3.5439,-3.5067,-3.4056,-3.2393,-3.0771,-2.9792,-2.9792,-2.9792,-2.9792,-2.9792,-2.9792,-3.0355,-3.1536,-3.2249,-3.3171,-3.4394,-3.5133,-3.5504,-3.5504,-3.6054,-3.6384,-3.66,-3.7758,-3.8509,0.0,0.0,-2.1348,-1.9225,-1.8633,-1.8247,-1.6993,-1.8017,-1.9521,-2.0884,-2.2481,-2.4079,-2.5411,-2.5625,-2.5635,-2.5635,-2.5635,-2.5538,-2.5538,-2.3046,-2.1213,-2.1205,-1.8659,-1.8017,0.0,-2.2749,-2.4588,-2.663,-2.7312,-2.8048,-2.8822,-2.9492,-2.9792,-2.9792,-2.9792,-2.9792,-2.9792,-2.9792,-2.9792,-2.9792,-2.9792,-2.9792,-2.9792,-2.9792,-2.9792,-2.9792,-2.9792,-2.9792,-2.9792,-2.9792,-2.9792,-2.9792,-2.9792,-2.9792,-2.9869,-2.9856,-3.1057,-3.2664,-3.2664,-3.3241,-3.4027,-3.4027,-3.4691,-3.5504,-3.5504,-3.5504,-3.5504,-3.5504,-3.5504,-3.5504,-3.5504,-3.4773,-3.4027,-3.4027,-3.2593,-3.1241,-3.118,-3.0482,-2.9869,-2.9869,-3.062,-3.1254,-3.1254,-3.2033,-3.2664,-3.2664,-3.2664,-3.3394,-3.5279,-3.3837,-3.2321,-3.1315,-3.0343,-2.9792,-2.9792,-2.9792,-2.9792,-2.9792,-2.9792,-3.0633,-3.2464,-3.2593,-3.3463,-3.5439,-3.5504,-3.5504,-3.5504,-3.5504,-3.5894,-3.6615,-3.6661,-3.7467,0.0,0.0,-2.326,-2.19,-2.0253,-1.8937,-1.8651,-1.9081,-1.9865,-2.126,-2.2681,-2.4015,-2.514,-2.5537,-2.5644,-2.5342,-2.5547,-2.5742,-2.5742,-2.4799,-2.3985,-2.3428,-2.2151,0.0,0.0,0.0,0.0,-2.6092,-2.7138,-2.789,-2.8324,-2.9295,-2.9792,-2.9792,-2.9792,-2.9792,-2.9792,-2.9792,-2.9792,-2.9792,-2.9792,-2.9792,-2.9792,-2.9792,-2.9792,-2.9792,-2.9792,-2.9792,-2.9792,-2.9792,-2.9792,-2.9792,-2.9792,-2.9792,-2.9792,-2.9792,-3.0216,-3.0846,-3.1476,-3.2321,-3.3101,-3.3101,-3.3325,-3.3547,-3.3547,-3.4041,-3.4476,-3.4476,-3.4476,-3.4476,-3.4476,-3.3822,-3.289,-3.2321,-3.1669,-3.1044,-3.0419,-2.9998,-2.9792,-2.9792,-3.0075,-3.0279,-3.0279,-3.1044,-3.1888,-3.2536,-3.2593,-3.282,-3.3463,-3.2464,-3.1536,-3.1254,-3.0343,-2.9792,-2.9792,-2.9792,-2.9792,-2.9792,-2.9792,-3.0633,-3.2522,-3.2593,-3.3533,-3.5439,-3.5504,-3.5504,-3.5504,-3.5504,-3.5619,-3.5894,-3.6384,-3.6904,0.0,-2.6104,-2.5083,-2.4115,-2.1974,-2.0171,-2.0287,-1.993,-2.0135,-2.2055,-2.2962,-2.3794,-2.4917,-2.5176,-2.5225,-2.5088,-2.5312,-2.5557,-2.5713,-2.5064,-2.4431,-2.4022,-2.3108,0.0,0.0,0.0,0.0,-2.5554,-2.6626,-2.7311,-2.7754,-2.8626,-2.9365,-2.9792,-2.9792,-2.9792,-2.9792,-2.9792,-2.9792,-2.9792,-2.9792,-2.9792,-2.9792,-2.9792,-2.9792,-2.9792,-2.9792,-2.9792,-2.9792,-2.9792,-2.9792,-2.9792,-2.9792,-2.9792,-2.9792,-2.9792,-2.9792,-2.9869,-3.0482,-3.1328,-3.2105,-3.2105,-3.2321,-3.2593,-3.2593,-3.3031,-3.3518,-3.3518,-3.3518,-3.3518,-3.3518,-3.282,-3.196,-3.1315,-3.097,-3.0558,-2.9934,-2.9792,-2.9792,-2.9792,-2.9792,-2.9792,-2.9792,-3.0279,-3.0908,-3.1476,-3.1623,-3.1683,-3.2033,-3.1609,-3.1031,-3.0771,-3.0139,-2.9792,-2.9792,-2.9792,-2.9792,-2.9792,-2.9792,-3.0633,-3.2522,-3.2593,-3.3533,-3.5439,-3.5504,-3.5504,-3.5504,-3.5504,-3.5504,-3.5504,-3.6006,-3.6337,-2.9221,-2.8331,-2.6816,-2.5823,-2.3691,-2.1853,-2.1853,-2.0743,-2.0538,-2.315,-2.3358,-2.3474,0.0,0.0,-2.458,-2.4971,-2.5068,-2.5254,-2.5674,-2.4031,-2.2899,0.0,0.0,0.0,0.0,0.0,0.0,-2.4935,0.0,-2.6317,-2.6967,-2.7708,-2.8597,-2.9702,-2.9792,-2.9792,-2.9792,-2.9792,-2.9792,-2.9792,-2.9792,-2.9792,-2.9792,-2.9792,-2.9792,-2.9792,-2.9792,-2.9792,-2.9792,-2.9792,-2.9792,-2.9792,-2.9792,-2.9792,-2.9792,-2.9792,-2.9792,-2.9792,-2.9792,-3.0343,-3.1106,-3.1106,-3.1742,-3.2464,-3.2464,-3.2464,-3.2522,-3.2522,-3.2522,-3.2522,-3.2522,-3.1815,-3.1106,-3.1106,-3.0419,-2.9792,-2.9792,-2.9792,-2.9792,-2.9792,-2.9792,-2.9792,-2.9792,-2.9792,-2.9792,-2.9792,-2.9792,-3.0139,-3.1044,-3.1106,-3.0758,-2.9856,-2.9792,-2.9792,-2.9792,-2.9792,-2.9792,-2.9792,-2.9792,-3.0646,-3.2464,-3.2593,-3.3463,-3.5359,-3.5504,-3.5504,-3.5504,-3.5504,-3.5504,-3.5504,-3.5504,-3.5894,-3.0114,-2.9461,-2.8517,-2.7316,-2.512,-2.3176,-2.3176,-2.2876,-2.2798,-2.3108,-2.3951,-2.4477,0.0,0.0,0.0,-2.4619,-2.5137,0.0,-2.5723,-2.5237,0.0,0.0,0.0,-2.4401,-2.4584,-2.4775,0.0,0.0,-2.5431,-2.5627,-2.5849,-2.7298,-2.8255,-2.8518,-2.9365,-2.9792,-2.9792,-2.9792,-2.9792,-2.9792,-2.9792,-2.9792,-2.9792,-2.9792,-2.9792,-2.9792,-2.9792,-2.9792,-2.9792,-2.9792,-2.9792,-2.9792,-2.9792,-2.9792,-2.9792,-2.9792,-2.9792,-2.9792,-2.9792,-2.9934,-3.0139,-3.0139,-3.0279,-3.0495,-3.0495,-3.0983,-3.1536,-3.1536,-3.1536,-3.1536,-3.1536,-3.0833,-3.0139,-3.0139,-2.9998,-2.9792,-2.9792,-2.9792,-2.9792,-2.9792,-2.9792,-2.9792,-2.9792,-2.9792,-2.9792,-2.9792,-2.9792,-2.9869,-3.0139,-3.0139,-3.0075,-2.9869,-2.9792,-2.9792,-2.9792,-2.9792,-2.9792,-2.9792,-2.9792,-3.0355,-3.1536,-3.2249,-3.3171,-3.4394,-3.5133,-3.5504,-3.5504,-3.5504,-3.5504,-3.5504,-3.5504,-3.5619,-3.0091,-2.9566,-2.8588,-2.8402,-2.6001,-2.3845,-2.4268,-2.3831,-2.341,-2.3595,-2.4143,0.0,0.0,0.0,0.0,0.0,0.0,0.0,-2.5713,-2.5566,-2.543,0.0,-2.541,0.0,-2.5371,-2.541,-2.542,0.0,-2.5085,-2.5102,-2.5336,-2.6646,-2.7602,-2.8096,-2.9197,-2.9792,-2.9792,-2.9792,-2.9792,-2.9792,-2.9792,-2.9792,-2.9792,-2.9792,-2.9792,-2.9792,0.0,-2.9792,-2.9792,-2.9792,-2.9792,-2.9792,-2.9792,-2.9792,-2.9792,-2.9792,-2.9792,-2.9792,-2.9792,-2.9792,-2.9792,-2.9792,-2.9792,-2.9792,-2.9792,-3.0139,-3.0558,-3.0558,-3.0558,-3.0558,-3.0558,-3.0216,-2.9792,-2.9792,-2.9792,-2.9792,-2.9792,-2.9792,-2.9792,-2.9792,-2.9792,-2.9792,-2.9792,-2.9792,-2.9792,-2.9792,-2.9792,-2.9792,-2.9792,-2.9792,-2.9792,-2.9792,-2.9792,-2.9792,-2.9792,-2.9792,-2.9792,-2.9792,-2.9792,-3.0203,-3.118,-3.1669,-3.2593,-3.3959,-3.4543,-3.5067,-3.5504,-3.5504,-3.5504,-3.5504,-3.5504,-3.5504,-2.9658,-2.9082,-2.8049,-2.9131,-2.6747,-2.437,-2.5146,-2.4259,-2.3459,-2.4146,0.0,0.0,-2.3711,0.0,-2.3926,-2.4346,0.0,-2.5225,-2.5674,-2.54,-2.5303,-2.5693,-2.5391,-2.5312,-2.5703,-2.5381,-2.5293,-2.5625,-2.4932,-2.4784,-2.5368,-2.6116,-2.7115,-2.8267,-2.9275,-2.9792,-2.9792,-2.9792,-2.9792,-2.9792,-2.9792,-2.9792,-2.9792,-2.9792,-2.9792,-2.9792,-2.9792,0.0,-2.9792,-2.9792,-2.9792,-2.9792,-2.9792,-2.9792,-2.9792,-2.9792,-2.9792,-2.9792,-2.9792,-2.9792,-2.9792,-2.9792,-2.9792,-2.9792,-2.9792,-2.9792,-2.9792,-2.9792,-2.9792,-2.9792,-2.9792,-2.9792,-2.9792,-2.9792,-2.9792,-2.9792,-2.9792,-2.9792,-2.9792,-2.9792,-2.9792,-2.9792,-2.9792,-2.9792,-2.9792,-2.9792,-2.9792,-2.9792,-2.9792,-2.9792,-2.9792,-2.9792,-2.9792,-2.9792,-2.9792,-2.9792,-2.9792,-2.9792,-2.9792,-3.0139,-3.097,-3.1106,-3.196,-3.3602,-3.3876,-3.4394,-3.5294,-3.5424,-3.5504,-3.5504,-3.5504,-3.5504,-2.9192,-2.934,-2.9131,-2.9315,-2.8111,-2.6886,-2.662,-2.5595,0.0,0.0,0.0,-2.3682,-2.332,-2.3545,0.0,-2.4346,0.0,0.0,0.0,0.0,-2.5644,0.0,0.0,0.0,0.0,0.0,0.0,0.0,0.0,-2.5016,-2.5115,-2.6354,-2.7812,-2.9456,-2.9714,-2.9792,-2.9792,-2.9792,-2.9792,-2.9792,-2.9792,-2.9792,-2.9792,-2.9792,-2.9792,-2.9792,-2.9792,0.0,-2.9792,-2.9792,-2.9792,-2.9792,-2.9792,-2.9792,-2.9792,-2.9792,-2.9792,-2.9792,-2.9792,-2.9792,-2.9792,-2.9792,-2.9792,-2.9792,-2.9792,-2.9792,-2.9792,-2.9792,-2.9792,-2.9792,-2.9792,-2.9792,-2.9792,-2.9792,-2.9792,-2.9792,-2.9792,-2.9792,-2.9792,-2.9792,-2.9792,-2.9792,-2.9792,-2.9792,-2.9792,-2.9792,-2.9792,-2.9792,-2.9792,-2.9792,-2.9792,-2.9792,-2.9792,-2.9792,-2.9792,-2.9792,-2.9792,-2.9792,-2.9792,-2.9856,-3.0075,-3.0758,-3.1315,-3.1669,-3.3241,-3.4095,-3.4245,-3.5067,-3.5504,-3.5504,-3.5504,-3.5504,-2.9039,-2.9407,-2.959,-3.0226,-2.9216,-2.7823,-2.6806,0.0,0.0,0.0,0.0,-2.3389,-2.3184,-2.3496,0.0,0.0,0.0,0.0,0.0,0.0,0.0,0.0,0.0,0.0,0.0,0.0,0.0,0.0,0.0,-2.4971,-2.4746,-2.5691,-2.7049,-2.887,-2.8937,-2.9197,-2.9792,-2.9792,-2.9792,-2.9792,-2.9792,-2.9792,-2.9792,-2.9792,-2.9792,-2.9792,-2.9792,0.0,-2.9792,-2.9792,-2.9792,-2.9792,-2.9792,-2.9792,-2.9792,-2.9792,-2.9792,-2.9792,-2.9792,-2.9792,-2.9792,-2.9792,-2.9792,-2.9792,-2.9792,-2.9792,-2.9792,-2.9792,-2.9792,-2.9792,-2.9792,-2.9792,-2.9792,-2.9792,-2.9792,-2.9792,-2.9792,-2.9792,-2.9792,-2.9792,-2.9792,-2.9792,-2.9792,-2.9792,-2.9792,-2.9792,-2.9792,-2.9792,-2.9792,-2.9792,-2.9792,-2.9792,-2.9792,-2.9792,-2.9792,-2.9792,-2.9792,-2.9792,-2.9792,-2.9792,-2.9792,-3.0203,-3.0696,-3.118,-3.2522,-3.3518,-3.4027,-3.4986,-3.5684,-3.6013,-3.6013,-3.6193,-2.8773,-2.9407,-3.0045,-3.0944,-3.0113,-2.8544,-2.7082,-2.6003,0.0,0.0,0.0,-2.3135,-2.3135,-2.3231,0.0,0.0,0.0,0.0,0.0,0.0,0.0,0.0,0.0,0.0,0.0,0.0,0.0,0.0,0.0,0.0,-2.4663,-2.5183,-2.6238,-2.7706,-2.7869,-2.8387,-2.9443,-2.9456,-2.9546,-2.9792,-2.9792,-2.9792,-2.9792,-2.9792,-2.9792,-2.9792,-2.9792,0.0,0.0,-2.9792,-2.9792,-2.9792,-2.9792,-2.9792,-2.9792,-2.9792,-2.9792,-2.9817,-2.993,-2.9967,-2.9993,-3.0105,-2.998,-2.9792,-2.9792,-2.9792,-2.9792,-2.9792,-2.9792,-2.9792,-2.9792,-2.9792,-2.9792,-2.9792,-2.9792,-2.9792,-2.9792,-2.9792,-2.9792,-2.9792,-2.9792,-2.9792,-2.9792,-2.9792,-2.9792,-2.9792,-2.9792,-2.9792,-2.9792,-2.9792,-2.9792,-2.9792,-2.9792,-2.9792,-2.9792,-2.9792,-2.9792,-2.9792,-2.9792,-2.9792,-2.9792,-2.9792,-3.0139,-3.0908,-3.2033,-3.2961,-3.3671,-3.5053,-3.5983,-3.6492,-3.6626,-3.6941,-2.7778,-2.9407,-3.1033,-3.1134,-3.0743,-2.9863,-2.8313,0.0,0.0,0.0,-2.3135,-2.3135,-2.3135,-2.2246,0.0,0.0,0.0,0.0,0.0,0.0,0.0,0.0,0.0,0.0,0.0,0.0,0.0,0.0,0.0,0.0,-2.5264,-2.5753,-2.6247,-2.667,-2.6981,-2.7492,-2.8267,-2.8255,-2.8767,-2.9792,-2.9792,-2.9792,-2.9792,-2.9792,-2.9792,-2.9792,-2.9792,0.0,0.0,-2.9792,-2.9792,-2.9792,-2.9792,-2.9792,-2.9792,-2.9792,-2.9792,-2.9867,-3.0369,-3.0545,-3.062,-3.1085,-3.0583,-2.9792,-2.9792,-2.9792,-2.9792,-2.9792,-2.9792,-2.9792,-2.9792,-2.9792,-2.9792,-2.9792,-2.9792,-2.9792,-2.9792,-2.9792,-2.9792,-2.9792,-2.9792,-2.9792,-2.9792,-2.9792,-2.9792,-2.9792,-2.9792,-2.9792,-2.9792,-2.9792,-2.9792,-2.9792,-2.9792,-2.9792,-2.9792,-2.9792,-2.9792,-2.9792,-2.9792,-2.9792,-2.9792,-2.9792,-2.9869,-2.9934,-3.1696,-3.2664,-3.2749,-3.521,-3.6432,-3.6492,-3.706,-3.736,-2.8419,-2.9954,-3.14,-3.2152,-3.1675,-3.0531,-2.8505,0.0,0.0,-2.3513,-2.3135,-2.3135,-2.3135,-2.212,-2.1078,0.0,0.0,0.0,0.0,0.0,0.0,0.0,0.0,0.0,0.0,0.0,0.0,0.0,0.0,0.0,-2.4806,-2.5197,-2.5696,-2.627,-2.6431,-2.7289,-2.8952,-2.9035,-2.9634,-3.0746,-3.0444,-3.0281,-3.0281,-2.9942,-2.9792,-2.9792,-2.9792,0.0,0.0,-2.9534,-2.9365,-2.8858,-2.9534,-2.9993,-3.0281,-3.0281,-3.0482,-3.0783,-3.1009,-3.1085,-3.1122,-3.1323,-3.1097,-3.0746,-3.0746,-3.0746,-3.0746,-3.0746,-3.0746,-3.0683,-3.0369,-3.0281,-3.0206,-2.988,-3.0043,-3.0193,-2.9867,-2.9792,-2.9792,-2.9792,-2.9792,-2.9792,-2.9792,-2.9792,-2.9792,-2.9792,-2.9792,-2.9792,-2.9792,-2.9792,-2.9792,-2.9792,-2.9792,-2.9792,-2.9792,-2.9792,-2.9792,-2.9792,-2.9792,-2.9792,-2.9792,-3.0118,-3.0281,-3.0281,-3.1911,-3.303,-3.3684,-3.5367,-3.6659,-3.7644,-3.7883,-3.8227,-2.8446,-2.9772,-3.0866,-3.1789,-3.1418,-3.0264,0.0,0.0,-2.5808,-2.3551,-2.3135,-2.3135,-2.3135,-2.1854,-2.0486,0.0,0.0,0.0,0.0,0.0,0.0,0.0,0.0,0.0,0.0,0.0,0.0,0.0,0.0,0.0,-2.4824,-2.5098,-2.5377,-2.5593,-2.5716,-2.6679,-2.8545,-2.8534,-2.9133,-3.0335,-3.0335,-3.0082,-2.9719,-3.0102,-2.9841,-2.9022,-2.9704,0.0,0.0,-2.9197,-2.9106,-2.8199,-2.9539,-3.0269,-3.0633,-3.0783,-3.1085,-3.1411,-3.1574,-3.1637,-3.1662,-3.1838,-3.1888,-3.1888,-3.1888,-3.165,-3.1386,-3.1386,-3.1386,-3.1298,-3.0934,-3.0846,-3.0746,-3.0357,-3.0557,-3.0733,-3.0344,-3.0269,-3.0218,-3.0068,-3.0043,-2.998,-2.9817,-2.9792,-2.9792,-2.9792,-2.9792,-2.9792,-2.9792,-2.9792,-2.9792,-2.9792,-2.9792,-2.9792,-2.9792,-2.9792,-2.9792,-2.9792,-2.9942,-3.0043,-3.0043,-3.0557,-3.0846,-3.0846,-3.2096,-3.3194,-3.3949,-3.543,-3.6736,-3.7923,-3.8445,-3.896,-2.7149,-2.8495,-2.9407,-2.9407,-2.9554,-2.9048,0.0,-2.641,-2.5808,-2.3551,-2.3135,-2.3135,-2.3135,-2.1132,-1.9488,-1.9497,0.0,0.0,0.0,0.0,0.0,0.0,0.0,0.0,0.0,0.0,0.0,0.0,0.0,0.0,-2.5723,-2.5723,-2.5322,-2.4443,-2.4834,-2.5405,-2.6114,-2.6114,-2.6719,-2.7732,-2.9036,-2.8951,-2.7808,-3.024,-2.9866,0.0,0.0,0.0,0.0,-2.8882,-2.9106,-2.8303,-2.996,-3.0608,-3.067,-3.1198,-3.1386,-3.1461,-3.2014,-3.2202,-3.2303,-3.2867,-3.3056,-3.3056,-3.3056,-3.2277,-3.1386,-3.1386,-3.1386,-3.1386,-3.1386,-3.1386,-3.1386,-3.1373,-3.1386,-3.1386,-3.1373,-3.1373,-3.1223,-3.0708,-3.0608,-3.0432,-2.988,-2.9792,-2.9792,-2.9792,-2.9792,-2.9792,-2.9792,-2.9792,-2.9792,-2.9792,-2.9792,-2.9792,-2.9792,-2.9792,-2.9792,-2.9792,-3.0306,-3.0608,-3.0608,-3.111,-3.1386,-3.1386,-3.229,-3.2817,-3.2817,-3.5465,-3.6835,-3.6864,-3.8618,-3.9409,-2.503,-2.6526,-2.7839,-2.8399,-2.8264,-2.7606,-2.6128,-2.5572,-2.4882,-2.3387,-2.3135,-2.2872,-2.2059,-2.0593,-1.9304,-1.8628,-1.7248,0.0,0.0,0.0,0.0,0.0,0.0,0.0,0.0,0.0,0.0,0.0,0.0,0.0,-2.5742,-2.5742,-2.5605,-2.5332,-2.5449,-2.6014,-2.7148,-2.7159,-2.7682,-2.8835,-2.8856,-2.8697,-2.8332,-2.8683,-2.887,0.0,0.0,0.0,0.0,-2.9943,-2.9767,-2.8161,-3.0302,-3.1373,-3.1725,-3.1888,-3.2202,-3.2566,-3.2742,-3.2805,-3.283,-3.3018,-3.3081,-3.3081,-3.3081,-3.283,-3.2541,-3.2541,-3.2252,-3.1951,-3.1951,-3.1951,-3.1851,-3.1486,-3.1675,-3.1851,-3.1474,-3.1386,-3.1336,-3.1173,-3.1148,-3.1085,-3.0922,-3.0595,-3.0357,-3.0357,-3.0357,-3.0357,-3.0357,-3.067,-3.0884,-3.0884,-3.0884,-3.0746,-3.0382,-3.0357,-3.0507,-3.0859,-3.1047,-3.1148,-3.1148,-3.1662,-3.1951,-3.1951,-3.265,-3.3411,-3.4109,-3.4915,-3.6106,-3.7526,-3.8767,-3.9424,0.0,-2.4512,-2.5522,-2.6515,-2.6617,-2.6271,-2.514,-2.4875,-2.4457,-2.3299,-2.3135,-2.2687,-2.1498,-2.0314,-1.9204,-1.8142,-1.6957,0.0,0.0,0.0,0.0,0.0,0.0,0.0,0.0,0.0,0.0,0.0,0.0,0.0,0.0,-2.5742,-2.5742,-2.5742,-2.5742,-2.611,-2.6849,-2.6849,-2.721,-2.8028,-2.8191,-2.7958,-2.7498,-2.8085,-2.8188,0.0,0.0,0.0,0.0,-3.0264,-3.0264,-2.8815,-3.0913,-3.1913,-3.224,-3.2453,-3.2767,-3.3081,-3.3081,-3.3081,-3.3081,-3.3081,-3.3081,-3.3081,-3.3081,-3.3081,-3.3081,-3.3081,-3.2817,-3.2541,-3.2541,-3.2541,-3.2453,-3.2102,-3.229,-3.2441,-3.2102,-3.2026,-3.1964,-3.175,-3.17,-3.1637,-3.1424,-3.1122,-3.0909,-3.0909,-3.0909,-3.0909,-3.0909,-3.1185,-3.1386,-3.1386,-3.1386,-3.1348,-3.1223,-3.1022,-3.1047,-3.1373,-3.1587,-3.17,-3.17,-3.224,-3.2541,-3.2541,-3.2893,-3.3398,-3.4108,-3.4897,-3.616,-3.7829,-3.887,-3.9424,0.0,-2.2344,-2.2747,-2.3855,-2.4626,-2.4845,-2.3999,-2.4267,0.0,-2.3299,-2.3135,-2.2687,-2.1391,-2.0305,-1.9047,-1.7807,0.0,0.0,0.0,0.0,0.0,0.0,0.0,0.0,0.0,0.0,0.0,0.0,0.0,0.0,0.0,-2.5742,-2.5742,-2.5742,-2.5742,-2.5742,-2.5742,-2.5742,-2.5742,-2.5732,-2.6945,-2.6849,-2.5732,-2.8121,-2.77,0.0,0.0,0.0,0.0,-3.0013,-3.0827,-3.0097,-3.1633,-3.2277,-3.234,-3.288,-3.3081,-3.3081,-3.3081,-3.3081,-3.3081,-3.3081,-3.3081,-3.3081,-3.3081,-3.3081,-3.3081,-3.3081,-3.3081,-3.3081,-3.3081,-3.3081,-3.3081,-3.3081,-3.3081,-3.3081,-3.3081,-3.3081,-3.2918,-3.2378,-3.2277,-3.2114,-3.1599,-3.1474,-3.1449,-3.1449,-3.1449,-3.1449,-3.1449,-3.1486,-3.1512,-3.1512,-3.1512,-3.1712,-3.2227,-3.1763,-3.1461,-3.1512,-3.1989,-3.2277,-3.2277,-3.2792,-3.3081,-3.3081,-3.3081,-3.3081,-3.3081,-3.5102,-3.6604,-3.7753,-3.8782,-3.9337,-1.8442,0.0,-2.0933,-2.1835,-2.2138,-2.2419,0.0,0.0,0.0,0.0,0.0,0.0,0.0,0.0,0.0,0.0,0.0,0.0,0.0,0.0,0.0,0.0,0.0,0.0,0.0,0.0,0.0,0.0,0.0,0.0,0.0,-2.5742,-2.5742,-2.5742,-2.5742,-2.5742,-2.5742,-2.5742,-2.5742,-2.5742,-2.6014,-2.6014,-2.5742,-2.6284,0.0,0.0,0.0,0.0,-2.8787,-3.049,-3.1129,-3.1053,-3.2364,-3.2867,-3.2893,-3.3031,-3.3081,-3.3081,-3.3081,-3.3081,-3.3081,-3.3081,-3.3081,-3.3081,-3.3081,-3.3081,-3.3081,-3.3081,-3.3081,-3.3081,-3.3081,-3.3081,-3.3081,-3.3081,-3.3081,-3.3081,-3.3081,-3.3081,-3.3031,-3.2905,-3.2867,-3.283,-3.2704,-3.2315,-3.2014,-3.2014,-3.2014,-3.2014,-3.2014,-3.2403,-3.2679,-3.2679,-3.2679,-3.2729,-3.2867,-3.2353,-3.2202,-3.2654,-3.2805,-3.2867,-3.2867,-3.3006,-3.3081,-3.3081,-3.3081,-3.3081,-3.3081,-3.4415,-3.5601,-3.6604,-3.7663,-3.862,-1.6669,-1.7897,-1.9281,-2.0266,-2.0935,-2.1471,0.0,0.0,0.0,0.0,0.0,0.0,0.0,0.0,0.0,0.0,0.0,0.0,0.0,0.0,0.0,0.0,0.0,0.0,0.0,0.0,0.0,0.0,0.0,0.0,0.0,-2.5742,-2.5742,-2.5742,-2.5742,-2.5742,-2.5742,-2.5742,-2.5742,-2.5742,-2.5742,-2.5742,-2.5742,-2.5742,-2.611,0.0,0.0,0.0,-2.868,-2.9863,-3.0406,-3.0406,-3.1146,-3.1777,-3.2239,-3.2239,-3.2612,-3.3081,-3.3081,-3.3081,-3.3119,-3.337,-3.3282,-3.3081,-3.3081,-3.3081,-3.3081,-3.3081,-3.3081,-3.3081,-3.3081,-3.3081,-3.3081,-3.3081,-3.3081,-3.3081,-3.3081,-3.3081,-3.3081,-3.3081,-3.3081,-3.3081,-3.3081,-3.2817,-3.2604,-3.2604,-3.2604,-3.2604,-3.2604,-3.288,-3.3081,-3.3081,-3.3081,-3.3081,-3.3081,-3.2792,-3.2742,-3.3056,-3.3081,-3.3081,-3.3081,-3.3081,-3.3081,-3.3081,-3.3081,-3.3313,-3.3882,-3.4897,-3.5908,-3.6944,-3.8055,-3.9018,-1.5885,-1.6609,-1.7684,-1.8956,-2.0034,-2.0845,0.0,0.0,0.0,0.0,0.0,0.0,0.0,0.0,0.0,0.0,0.0,0.0,0.0,0.0,0.0,0.0,0.0,0.0,0.0,0.0,0.0,0.0,0.0,0.0,0.0,-2.5742,-2.5742,-2.5742,-2.5742,-2.5742,-2.5742,-2.5742,-2.5742,-2.5742,-2.5742,-2.5742,-2.5742,-2.5742,-2.5742,0.0,0.0,0.0,-2.7683,-2.868,-2.9223,-2.9407,-2.9407,-3.0045,-3.0944,-3.1134,-3.1865,-3.281,-3.3169,-3.3206,-3.3294,-3.3847,-3.3709,-3.3332,-3.3332,-3.3332,-3.3307,-3.3232,-3.3144,-3.3081,-3.3081,-3.3081,-3.3081,-3.3081,-3.3081,-3.3081,-3.3081,-3.3081,-3.3081,-3.3081,-3.3081,-3.3081,-3.3081,-3.3081,-3.3081,-3.3081,-3.3081,-3.3081,-3.3081,-3.3081,-3.3081,-3.3081,-3.3081,-3.3081,-3.3081,-3.3081,-3.3081,-3.3081,-3.3081,-3.3081,-3.3081,-3.3081,-3.3081,-3.3081,-3.324,-3.3797,-3.4664,-3.5748,-3.6816,-3.7973,-3.8855,-3.9771,-1.6139,-1.6115,-1.6386,-1.7684,-1.8141,-1.8503,0.0,0.0,0.0,0.0,0.0,0.0,0.0,0.0,0.0,0.0,0.0,0.0,0.0,0.0,0.0,0.0,0.0,0.0,0.0,0.0,0.0,0.0,0.0,0.0,0.0,-2.5742,-2.5742,-2.5742,-2.5742,-2.5742,-2.5742,-2.5742,-2.5742,-2.5742,-2.5742,-2.5742,-2.5742,-2.5742,-2.5742,0.0,0.0,-2.6572,-2.7589,-2.7778,-2.8505,-2.9407,-2.9407,-2.9498,-2.9772,-3.0855,-3.1311,-3.1749,-3.3233,-3.3771,-3.3872,-3.4412,-3.4537,-3.4462,-3.4462,-3.4462,-3.4374,-3.3909,-3.3432,-3.3081,-3.3081,-3.3081,-3.3081,-3.3081,-3.3081,-3.3081,-3.3081,-3.3081,-3.3081,-3.3081,-3.3081,-3.3081,-3.3081,-3.3081,-3.3081,-3.3081,-3.3081,-3.3081,-3.3081,-3.3081,-3.3081,-3.3081,-3.3081,-3.3081,-3.3081,-3.3081,-3.3081,-3.3081,-3.3081,-3.3081,-3.3081,-3.3081,-3.3081,-3.3081,-3.3953,-3.4511,-3.4664,-3.5748,-3.7041,-3.8621,-3.8789,-3.9704,-1.5999,-1.5932,-1.592,-1.6574,-1.7225,0.0,0.0,0.0,0.0,0.0,0.0,0.0,0.0,0.0,0.0,0.0,0.0,0.0,0.0,0.0,0.0,0.0,0.0,0.0,0.0,0.0,0.0,0.0,0.0,0.0,0.0,0.0,-2.5742,-2.5742,-2.5742,-2.5742,-2.5742,-2.5742,-2.5742,-2.5742,-2.5742,-2.5742,-2.5742,-2.5742,-2.5742,-2.5742,0.0,-2.6014,-2.6572,-2.6572,-2.6935,-2.7389,-2.7389,-2.7851,-2.8713,-3.0912,-3.2123,-3.2879,-3.4295,-3.4587,-3.4437,-3.4989,-3.4964,-3.4726,-3.4726,-3.4726,-3.4675,-3.4412,-3.4161,-3.3822,-3.3232,-3.3307,-3.3445,-3.3156,-3.3081,-3.3081,-3.3081,-3.3081,-3.3081,-3.3081,-3.3081,-3.3081,-3.3081,-3.3081,-3.3081,-3.3081,-3.3081,-3.3081,-3.3081,-3.3081,-3.3081,-3.3081,-3.3081,-3.3081,-3.3081,-3.3081,-3.3081,-3.3081,-3.3081,-3.3081,-3.3081,-3.3081,-3.3081,-3.3081,-3.3556,-3.4415,-3.5507,-3.6317,-3.7749,-3.9665,-4.0032,-4.0855,-1.5912,-1.5879,-1.5845,0.0,0.0,0.0,0.0,0.0,0.0,0.0,0.0,0.0,0.0,0.0,0.0,0.0,0.0,0.0,0.0,0.0,0.0,0.0,0.0,0.0,0.0,0.0,0.0,0.0,0.0,0.0,0.0,0.0,-2.5742,-2.5742,-2.5742,-2.5742,-2.5742,-2.5742,-2.5742,-2.5742,-2.5742,-2.5742,-2.5742,-2.5742,-2.5742,-2.5742,-2.5742,-2.5742,-2.5742,-2.5742,-2.5742,-2.5742,-2.5742,-2.6536,-2.7989,-3.0416,-3.2301,-3.3752,-3.4718,-3.4977,-3.5002,-3.5554,-3.5454,-3.5102,-3.5102,-3.5102,-3.5077,-3.4951,-3.5014,-3.4851,-3.3746,-3.3771,-3.3985,-3.3558,-3.3458,-3.3432,-3.3294,-3.3269,-3.3232,-3.3106,-3.3081,-3.3081,-3.3081,-3.3081,-3.3081,-3.3081,-3.3081,-3.3081,-3.3081,-3.3081,-3.3081,-3.3081,-3.3081,-3.3081,-3.3081,-3.3081,-3.3131,-3.3257,-3.3156,-3.3081,-3.3081,-3.3081,-3.324,-3.3471,-3.3841,-3.4931,-3.6828,-3.7695,-3.9067,-4.0876,-4.1384,-4.1953,-1.6166,-1.6039,-1.5892,0.0,0.0,0.0,0.0,0.0,0.0,0.0,0.0,0.0,0.0,0.0,0.0,0.0,0.0,0.0,0.0,0.0,0.0,0.0,0.0,0.0,0.0,0.0,0.0,0.0,0.0,0.0,0.0,0.0,0.0,-2.5742,-2.5742,-2.5742,-2.5742,-2.5742,-2.5742,-2.5742,-2.5742,-2.5742,-2.5742,-2.5742,-2.5742,-2.5742,-2.5742,-2.5742,-2.5742,-2.5742,-2.5742,-2.5742,-2.5742,-2.6728,-2.8261,-2.881,-3.0615,-3.2909,-3.347,-3.443,-3.5579,-3.6119,-3.627,-3.6245,-3.6245,-3.6245,-3.6144,-3.5629,-3.5855,-3.5994,-3.4889,-3.4625,-3.465,-3.4613,-3.46,-3.4462,-3.3947,-3.3847,-3.3684,-3.3181,-3.3081,-3.3081,-3.3081,-3.3081,-3.3081,-3.3081,-3.3081,-3.3081,-3.3081,-3.3081,-3.3081,-3.3081,-3.3081,-3.3081,-3.3081,-3.3081,-3.3294,-3.3809,-3.3357,-3.3081,-3.3081,-3.3081,-3.3556,-3.4594,-3.6076,-3.7484,-3.8629,-4.033,-4.1532,-4.2222,-4.2344,-4.2641,-1.5965,-1.5912,-1.5852,0.0,0.0,0.0,0.0,0.0,0.0,0.0,0.0,0.0,0.0,0.0,0.0,0.0,0.0,0.0,0.0,0.0,0.0,0.0,0.0,0.0,0.0,0.0,0.0,0.0,0.0,0.0,0.0,0.0,0.0,-2.5742,-2.5742,-2.5742,-2.5742,-2.5742,-2.5742,-2.5742,-2.5742,-2.5742,-2.5742,-2.5742,-2.5742,-2.5742,-2.5742,-2.5742,-2.5742,-2.5742,-2.5898,-2.6172,-2.6426,-2.7392,-2.8634,-2.9205,-3.104,-3.3256,-3.3886,-3.4966,-3.6094,-3.6295,-3.6358,-3.6358,-3.6358,-3.6358,-3.632,-3.6107,-3.6194,-3.6107,-3.5014,-3.4977,-3.5152,-3.4801,-3.4726,-3.4663,-3.4462,-3.4412,-3.4349,-3.4135,-3.4098,-3.4098,-3.4098,-3.4098,-3.4098,-3.4098,-3.4098,-3.4098,-3.4098,-3.4098,-3.4098,-3.4098,-3.4098,-3.396,-3.3621,-3.3897,-3.4186,-3.4399,-3.3884,-3.3746,-3.4085,-3.4098,-3.4262,-3.4676,-3.6029,-3.7303,-3.8397,-4.0163,-4.1514,-4.2372,-4.2776,-4.309,-1.5832,-1.5832,0.0,0.0,0.0,0.0,0.0,0.0,0.0,0.0,0.0,0.0,0.0,0.0,0.0,0.0,0.0,0.0,0.0,0.0,0.0,0.0,0.0,0.0,0.0,0.0,0.0,0.0,0.0,0.0,0.0,0.0,0.0,0.0,-2.581,-2.5869,-2.6143,-2.6006,-2.6006,-2.6143,-2.6143,-2.5996,-2.5742,-2.5742,-2.5742,-2.5742,-2.5742,-2.5742,-2.5752,-2.5889,-2.6201,-2.6631,-2.706,-2.7699,-2.8532,-2.9096,-3.095,-3.3173,-3.3632,-3.486,-3.6358,-3.6358,-3.6358,-3.6358,-3.6358,-3.6358,-3.6358,-3.6358,-3.6358,-3.6182,-3.5441,-3.5516,-3.5705,-3.5328,-3.524,-3.519,-3.5014,-3.4989,-3.4926,-3.4751,-3.4726,-3.4726,-3.4726,-3.4726,-3.4726,-3.4726,-3.4726,-3.4726,-3.4726,-3.4726,-3.4726,-3.4726,-3.4726,-3.4562,-3.4186,-3.4512,-3.4801,-3.4964,-3.4625,-3.4512,-3.4713,-3.4726,-3.4893,-3.5226,-3.6564,-3.7847,-3.8879,-4.0747,-4.1981,-4.2671,-4.3135,-4.3329,-1.5832,-1.5832,0.0,0.0,0.0,0.0,0.0,0.0,0.0,0.0,0.0,0.0,0.0,0.0,0.0,0.0,0.0,0.0,0.0,0.0,0.0,0.0,0.0,0.0,0.0,0.0,0.0,0.0,0.0,0.0,0.0,0.0,0.0,0.0,-2.5977,-2.6152,-2.7012,-2.6602,-2.6602,-2.7012,-2.7012,-2.6572,-2.5752,-2.5752,-2.5752,-2.5742,-2.5742,-2.5742,-2.5781,-2.6221,-2.665,-2.706,-2.75,-2.7676,-2.7725,-2.8135,-3.0016,-3.2331,-3.2331,-3.4142,-3.6358,-3.6358,-3.6358,-3.6358,-3.6358,-3.6358,-3.6358,-3.6358,-3.6358,-3.6358,-3.6358,-3.6358,-3.6358,-3.6358,-3.6358,-3.6219,-3.5667,-3.5554,-3.5391,-3.4851,-3.4738,-3.4738,-3.4738,-3.4738,-3.4738,-3.4738,-3.4738,-3.4738,-3.4738,-3.4738,-3.4738,-3.4726,-3.4726,-3.4738,-3.4726,-3.4726,-3.4964,-3.5516,-3.5554,-3.5303,-3.4763,-3.4738,-3.5239,-3.6332,-3.8061,-3.955,-4.0584,-4.2415,-4.3329,-4.3329,-4.3329,-4.3329,-1.5832,0.0,0.0,0.0,0.0,0.0,0.0,0.0,0.0,0.0,0.0,0.0,0.0,0.0,0.0,0.0,0.0,0.0,0.0,0.0,0.0,0.0,0.0,0.0,0.0,0.0,0.0,0.0,0.0,0.0,0.0,0.0,0.0,0.0,-2.6699,-2.6758,-2.7012,-2.6894,-2.6894,-2.7012,-2.7012,-2.6885,-2.6641,-2.6641,-2.6475,-2.6191,-2.6191,-2.6191,-2.625,-2.6982,-2.7363,-2.7519,-2.7939,-2.8105,-2.8221,-2.9367,-3.0824,-3.2443,-3.3453,-3.4957,-3.6358,-3.6358,-3.6358,-3.6358,-3.6358,-3.6358,-3.6358,-3.6358,-3.6358,-3.6358,-3.6358,-3.6358,-3.6358,-3.6358,-3.6358,-3.632,-3.6157,-3.6119,-3.6069,-3.5906,-3.5881,-3.5881,-3.5881,-3.5881,-3.5881,-3.5881,-3.5881,-3.5881,-3.5881,-3.5881,-3.573,-3.5341,-3.5642,-3.5717,-3.5341,-3.5655,-3.5943,-3.6107,-3.6119,-3.6044,-3.5881,-3.5881,-3.6386,-3.7516,-3.8918,-4.0209,-4.1313,-4.2636,-4.3329,-4.3329,-4.3329,-4.3329,0.0,0.0,0.0,0.0,0.0,0.0,0.0,0.0,0.0,0.0,0.0,0.0,0.0,0.0,0.0,0.0,0.0,0.0,0.0,0.0,0.0,0.0,0.0,0.0,0.0,0.0,0.0,0.0,0.0,0.0,0.0,0.0,0.0,0.0,-2.7109,-2.7178,-2.7519,-2.7353,-2.7353,-2.7519,-2.7519,-2.7519,-2.751,-2.7168,-2.6875,-2.6641,-2.6641,-2.6738,-2.6934,-2.7451,-2.7764,-2.8045,-2.88,-2.9102,-2.9313,-3.0618,-3.1938,-3.3254,-3.408,-3.5271,-3.6358,-3.6358,-3.6358,-3.6358,-3.6358,-3.6358,-3.6358,-3.6358,-3.6358,-3.6358,-3.6358,-3.6358,-3.6358,-3.6358,-3.6358,-3.6358,-3.6358,-3.6358,-3.6358,-3.6358,-3.6358,-3.6358,-3.6358,-3.6358,-3.6358,-3.6358,-3.6358,-3.6358,-3.6358,-3.6358,-3.6232,-3.5906,-3.6157,-3.6219,-3.5893,-3.6169,-3.6358,-3.6358,-3.6358,-3.6358,-3.6358,-3.6358,-3.6709,-3.7415,-3.9006,-4.0232,-4.0916,-4.2548,-4.3329,-4.3329,-4.3329,-4.3329,0.0,0.0,0.0,0.0,0.0,0.0,0.0,0.0,0.0,0.0,0.0,0.0,0.0,0.0,0.0,0.0,0.0,0.0,0.0,0.0,0.0,0.0,0.0,0.0,0.0,0.0,0.0,0.0,0.0,0.0,0.0,0.0,0.0,-2.7656,-2.7314,-2.75,-2.8281,-2.792,-2.792,0.0,-2.8291,-2.8291,-2.8262,-2.749,-2.7109,-2.707,-2.707,-2.7305,-2.7666,-2.7705,-2.7949,-2.8398,-2.9817,-3.0317,-3.0525,-3.1938,-3.3254,-3.4385,-3.4581,-3.5367,-3.6358,-3.6358,-3.6358,-3.637,-3.642,-3.6433,-3.6445,-3.6496,-3.6508,-3.6508,-3.6508,-3.6508,-3.6508,-3.6508,-3.6433,-3.6358,-3.6358,-3.6358,-3.6358,-3.6358,-3.6358,-3.6358,-3.6358,-3.6358,-3.6358,-3.6358,-3.6358,-3.6358,-3.6358,-3.6358,-3.6358,-3.6358,-3.6358,-3.6358,-3.6358,-3.6358,-3.6358,-3.6358,-3.6358,-3.6358,-3.6358,-3.6358,-3.6546,-3.6709,-3.8841,-3.9986,-4.0246,-4.2304,-4.3329,-4.3329,-4.3329,-4.3329,0.0,0.0,0.0,0.0,0.0,0.0,0.0,0.0,0.0,0.0,0.0,0.0,0.0,0.0,0.0,0.0,0.0,0.0,0.0,0.0,0.0,0.0,0.0,0.0,0.0,0.0,0.0,0.0,0.0,0.0,0.0,0.0,0.0,-2.7666,-2.79,-2.8105,-2.8291,-2.8203,-2.8203,0.0,-2.8291,-2.8291,-2.8281,-2.8105,-2.7842,-2.7529,-2.7529,-2.7578,-2.7685,-2.8018,-2.8213,-2.8398,-2.9817,-3.0317,-3.0628,-3.3055,-3.4178,-3.4581,-3.5571,-3.6156,-3.6358,-3.6358,-3.6358,-3.6445,-3.6872,-3.701,-3.7098,-3.7525,-3.7651,-3.7651,-3.7651,-3.7651,-3.7651,-3.7651,-3.6998,-3.6358,-3.6358,-3.6358,-3.6358,-3.6358,-3.6358,-3.6358,-3.6358,-3.6358,-3.6358,-3.6358,-3.6358,-3.6358,-3.6358,-3.6358,-3.6358,-3.6358,-3.6358,-3.6358,-3.6358,-3.6358,-3.6358,-3.6358,-3.6358,-3.6358,-3.6358,-3.6358,-3.7256,-3.9108,-3.9637,-4.076,-4.2563,-4.3076,-4.3329,-4.3329,-4.3329,-4.3329,0.0,0.0,0.0,0.0,0.0,0.0,0.0,0.0,0.0,0.0,0.0,0.0,0.0,0.0,0.0,0.0,0.0,0.0,0.0,0.0,0.0,0.0,0.0,0.0,0.0,0.0,0.0,0.0,0.0,0.0,0.0,-2.695,-2.7969,-2.7969,-2.8174,-2.8291,-2.8291,-2.8291,-2.8291,-2.8291,-2.8291,-2.8291,-2.8291,-2.8291,-2.8174,-2.7969,-2.7969,-2.7969,-2.7988,-2.8203,-2.8291,-2.8495,-3.0514,-3.1224,-3.1633,-3.4362,-3.5367,-3.5475,-3.6156,-3.6358,-3.6358,-3.6358,-3.6533,-3.681,-3.7098,-3.7362,-3.7638,-3.7927,-3.8002,-3.8002,-3.8002,-3.8002,-3.8002,-3.8002,-3.7563,-3.7149,-3.7149,-3.6948,-3.6759,-3.6759,-3.6546,-3.6358,-3.6358,-3.6358,-3.6358,-3.6358,-3.6358,-3.6358,-3.6358,-3.6358,-3.6358,-3.6358,-3.6358,-3.6358,-3.6358,-3.6358,-3.6358,-3.6358,-3.6883,-3.7243,-3.7243,-3.7782,-3.8392,-3.9006,-4.0131,-4.1267,-4.2467,-4.2996,-4.3494,-4.3808,-4.3808,-4.3973,0.0,0.0,0.0,0.0,0.0,0.0,0.0,0.0,0.0,0.0,0.0,0.0,0.0,0.0,0.0,0.0,0.0,0.0,0.0,0.0,0.0,0.0,0.0,0.0,0.0,0.0,0.0,0.0,0.0,0.0,-2.5041,-2.7062,-2.8184,-2.8184,-2.8252,-2.8291,-2.8291,-2.8291,-2.8291,-2.8291,-2.8291,-2.8291,-2.8291,-2.8291,-2.8291,-2.8291,-2.8291,-2.8291,-2.8291,-2.8291,-2.8291,-2.8601,-3.1224,-3.2331,-3.2632,-3.5355,-3.6358,-3.6358,-3.6358,-3.642,-3.6508,-3.6508,-3.6872,-3.7349,-3.745,-3.7789,-3.8178,-3.8266,-3.8304,-3.8304,-3.8304,-3.8304,-3.8304,-3.8304,-3.8304,-3.8241,-3.8052,-3.7651,-3.7324,-3.7324,-3.696,-3.6646,-3.6646,-3.6646,-3.6646,-3.6646,-3.6646,-3.6646,-3.6646,-3.6646,-3.6646,-3.6646,-3.6646,-3.6646,-3.6646,-3.6646,-3.6646,-3.6646,-3.7792,-3.8411,-3.8411,-3.9762,-4.0115,-3.9033,-4.0844,-4.1901,-4.2266,-4.3146,-4.3943,-4.4481,-4.4481,-4.4781,0.0,0.0,0.0,0.0,0.0,0.0,0.0,0.0,0.0,0.0,0.0,0.0,0.0,0.0,0.0,0.0,0.0,0.0,0.0,0.0,0.0,0.0,0.0,0.0,0.0,0.0,0.0,0.0,0.0,0.0,-2.3045,-2.6092,-2.7754,-2.7754,-2.8105,-2.8291,-2.8291,-2.8291,-2.8291,-2.8291,-2.8291,-2.8291,-2.8291,-2.8291,-2.8291,-2.8291,-2.8291,-2.8291,-2.8291,-2.8291,-2.8291,-2.8601,-3.1224,-3.2331,-3.2632,-3.5355,-3.6358,-3.6358,-3.6358,-3.6671,-3.7073,-3.7073,-3.745,-3.799,-3.8492,-3.8693,-3.8856,-3.9333,-3.9471,-3.9471,-3.9471,-3.9471,-3.9471,-3.9471,-3.9471,-3.9195,-3.8216,-3.7952,-3.7902,-3.7902,-3.7839,-3.7789,-3.7789,-3.7789,-3.7789,-3.7789,-3.7789,-3.7789,-3.7789,-3.7789,-3.7789,-3.7789,-3.7789,-3.7789,-3.7789,-3.7789,-3.7789,-3.7789,-3.896,-3.9693,-3.9693,-4.1895,-4.2997,-4.2896,-4.261,-4.3219,-4.484,-4.4937,-4.508,-4.517,-4.517,-4.5214,0.0,0.0,0.0,0.0,0.0,0.0,0.0,0.0,0.0,0.0,0.0,0.0,0.0,0.0,0.0,0.0,0.0,0.0,0.0,0.0,0.0,0.0,0.0,0.0,0.0,0.0,0.0,0.0,0.0,-2.4633,-2.4349,-2.668,-2.8018,-2.8018,-2.8193,-2.8291,-2.8291,-2.8291,-2.8291,-2.8291,-2.8291,-2.8291,-2.8291,-2.8291,-2.8291,-2.8291,-2.8291,-2.8291,-2.8291,-2.8291,-2.8698,-2.9608,-3.1531,-3.2744,-3.3761,-3.5655,-3.6358,-3.6408,-3.6709,-3.6973,-3.7236,-3.755,-3.8027,-3.8542,-3.8793,-3.9082,-3.9383,-3.9622,-3.9697,-3.9697,-3.9697,-3.9697,-3.9697,-3.9697,-3.9697,-3.9559,-3.9057,-3.8718,-3.8391,-3.8065,-3.8002,-3.8002,-3.8002,-3.8002,-3.8002,-3.8002,-3.8002,-3.8002,-3.8002,-3.8002,-3.8002,-3.8002,-3.8002,-3.8002,-3.8002,-3.8002,-3.8285,-3.9013,-4.0214,-4.1223,-4.1952,-4.3676,-4.4767,-4.515,-4.4486,-4.4462,-4.5289,-4.5289,-4.5484,-4.5873,-4.5873,-4.6067,0.0,0.0,0.0,0.0,0.0,0.0,0.0,0.0,0.0,0.0,0.0,0.0,0.0,0.0,0.0,0.0,0.0,0.0,0.0,0.0,0.0,0.0,0.0,0.0,0.0,0.0,0.0,0.0,0.0,-2.5865,-2.5566,-2.7178,-2.8184,-2.8291,-2.8291,-2.8291,-2.8291,-2.8291,-2.8291,-2.8291,-2.8291,-2.8291,-2.8291,-2.8291,-2.8291,-2.8291,-2.8291,-2.8291,-2.8291,-2.8291,-2.9102,-3.0421,-3.1735,-3.3155,-3.4581,-3.587,-3.6358,-3.6445,-3.6998,-3.7274,-3.7475,-3.8052,-3.8617,-3.9082,-3.9082,-3.9371,-3.9697,-3.9697,-3.9697,-3.9697,-3.9697,-3.9697,-3.9697,-3.9697,-3.9697,-3.9697,-3.9697,-3.9371,-3.8956,-3.8517,-3.8429,-3.8429,-3.8429,-3.8429,-3.8429,-3.8429,-3.8429,-3.8429,-3.8429,-3.8429,-3.8429,-3.8429,-3.8429,-3.8429,-3.8429,-3.8429,-3.8987,-4.0285,-4.1502,-4.2712,-4.3992,-4.5176,-4.6037,-4.6561,-4.6067,-4.5798,-4.5798,-4.5798,-4.6067,-4.6576,-4.6576,-4.683,0.0,0.0,0.0,0.0,0.0,0.0,0.0,0.0,0.0,0.0,0.0,0.0,0.0,0.0,0.0,0.0,0.0,0.0,0.0,0.0,0.0,0.0,0.0,0.0,0.0,0.0,0.0,0.0,0.0,-2.5468,-2.5557,-2.6902,-2.7881,-2.8281,-2.8291,-2.8291,-2.8291,-2.8291,-2.8291,-2.8291,-2.8291,-2.8291,-2.8291,-2.8291,-2.8291,-2.8291,-2.8291,-2.8291,-2.8291,-2.8291,-2.9102,-3.0421,-3.1735,-3.3155,-3.4581,-3.587,-3.6358,-3.6445,-3.6998,-3.7525,-3.8065,-3.8642,-3.9195,-3.9647,-3.9647,-3.9672,-3.9697,-3.9697,-3.9697,-3.9697,-3.9697,-3.9697,-3.9697,-3.9697,-3.9697,-3.9697,-3.9697,-3.9672,-3.9647,-3.9609,-3.9609,-3.9609,-3.9609,-3.9609,-3.9609,-3.9609,-3.9609,-3.9609,-3.9609,-3.9609,-3.9609,-3.9609,-3.9609,-3.9609,-3.9609,-3.9609,-4.0185,-4.1413,-4.2739,-4.3971,-4.5211,-4.6535,-4.7219,-4.7249,-4.7219,-4.7204,-4.7204,-4.7204,-4.7219,-4.7249,-4.7249,-4.7279,0.0,0.0,0.0,0.0,0.0,0.0,0.0,0.0,0.0,0.0,0.0,0.0,0.0,0.0,0.0,0.0,0.0,0.0,0.0,0.0,0.0,0.0,0.0,0.0,0.0,0.0,0.0,0.0,0.0,0.0,-2.7283,-2.7835,-2.8135,-2.8291,-2.8291,-2.8291,-2.8291,-2.8291,-2.8291,-2.8291,-2.8291,-2.8291,-2.8291,-2.8291,-2.8291,-2.8291,-2.8291,-2.8291,-2.8291,-2.8291,-2.9102,-3.0317,-3.0824,-3.2443,-3.4483,-3.4981,-3.5889,-3.6973,-3.7525,-3.8078,-3.8655,-3.922,-3.9534,-3.9697,-3.9697,-3.9697,-3.9697,-3.9697,-3.9697,-3.9697,-3.9697,-3.9697,-3.9697,-3.9697,-3.9697,-3.9697,-3.9697,-3.9697,-3.9697,-3.9697,-3.9697,-3.9697,-3.9697,-3.9697,-3.9697,-3.9697,-3.9697,-3.9697,-3.9697,-3.9697,-3.9697,-3.9697,-3.9697,-3.9697,-3.9697,-3.9697,-4.0554,-4.2641,-4.3218,-4.4442,-4.6535,-4.7019,-4.7309,-4.7309,-4.7309,-4.7309,-4.7309,-4.7309,-4.7309,-4.7309,-4.7309,-4.7309,0.0,0.0,0.0,0.0,0.0,0.0,0.0,0.0,0.0,0.0,0.0,0.0,0.0,0.0,0.0,0.0,0.0,0.0,0.0,0.0,0.0,0.0,0.0,0.0,0.0,0.0,0.0,0.0,0.0,0.0,-2.8291,-2.8291,-2.8291,-2.8291,-2.8291,-2.8291,-2.8291,-2.8291,-2.8291,-2.8291,-2.8291,-2.8291,-2.8291,-2.8291,-2.8291,-2.8291,-2.8291,-2.8291,-2.8291,-2.8291,-2.9408,-3.0916,-3.0916,-3.2644,-3.509,-3.5272,-3.616,-3.7299,-3.804,-3.8542,-3.8956,-3.9521,-3.9697,-3.9697,-3.9697,-3.9697,-3.9697,-3.9697,-3.9697,-3.9697,-3.9697,-3.9697,-3.9697,-3.9697,-3.9697,-3.9697,-3.9697,-3.9697,-3.9697,-3.9697,-3.9697,-3.9697,-3.9697,-3.9697,-3.9697,-3.9697,-3.9697,-3.9697,-3.9697,-3.9697,-3.989,-4.0262,-4.0364,-4.0554,-4.0932,-4.0932,-4.1887,-4.3975,-4.4163,-4.5115,-4.7207,-4.7309,-4.7309,-4.7309,-4.7309,-4.7309,-4.7309,-4.7309,-4.7309,-4.7309,-4.7309,-4.7309,0.0,0.0,0.0,0.0,0.0,0.0,0.0,0.0,0.0,0.0,0.0,0.0,0.0,0.0,0.0,0.0,0.0,0.0,0.0,0.0,0.0,0.0,0.0,0.0,0.0,0.0,0.0,0.0,0.0,-2.8291,-2.8291,-2.8291,-2.8291,-2.8291,-2.8291,-2.8291,-2.8291,-2.8291,-2.8291,-2.8291,-2.8291,-2.8291,-2.8291,-2.8291,-2.8291,-2.8291,-2.8291,-2.8291,-2.8291,-2.8291,-2.9807,-3.223,-3.223,-3.3946,-3.6445,-3.6985,-3.7199,-3.74,-3.8492,-3.8881,-3.8981,-3.9521,-3.9697,-3.9697,-3.9697,-3.9697,-3.9697,-3.9697,-3.9697,-3.9697,-3.9697,-3.9697,-3.9697,-3.9697,-3.9697,-3.9697,-3.9697,-3.9697,-3.9697,-3.9697,-3.9697,-3.9697,-3.9697,-3.9697,-3.9697,-3.9697,-3.9697,-3.9697,-3.9697,-3.9697,-4.0173,-4.1505,-4.1604,-4.207,-4.3409,-4.3504,-4.4069,-4.5298,-4.5403,-4.5973,-4.7207,-4.7309,-4.7309,-4.7309,-4.7309,-4.7309,-4.7309,-4.7309,-4.7309,-4.7309,-4.7309,-4.7309,-1.3254,0.0,0.0,0.0,0.0,0.0,0.0,0.0,0.0,0.0,0.0,0.0,0.0,0.0,0.0,0.0,0.0,0.0,0.0,0.0,0.0,0.0,0.0,0.0,0.0,0.0,0.0,0.0,-2.8291,-2.8291,-2.8291,-2.8291,-2.8291,-2.8291,-2.8291,-2.8291,-2.8291,-2.8291,-2.8291,-2.8291,-2.8291,-2.8291,-2.8291,-2.8291,-2.8291,-2.8291,-2.8291,-2.8291,-2.8291,-2.8291,-2.9303,-3.0813,-3.0813,-3.2746,-3.5537,-3.5682,-3.6862,-3.8442,-3.8755,-3.9132,-3.9484,-3.9647,-3.9697,-3.9697,-3.9697,-3.9697,-3.9697,-3.9697,-3.9697,-3.9697,-3.9697,-3.9697,-3.9697,-3.9697,-3.9697,-3.9697,-3.9697,-3.9697,-3.9697,-3.9697,-3.9697,-3.9697,-3.9697,-3.9697,-3.9697,-3.9697,-3.9697,-3.9697,-3.9697,-3.9697,-4.0173,-4.1505,-4.1604,-4.207,-4.3409,-4.3504,-4.4069,-4.5298,-4.5403,-4.5973,-4.7207,-4.7309,-4.7309,-4.7309,-4.7309,-4.7309,-4.7309,-4.7309,-4.7309,-4.7309,-4.7309,-4.7309,0.0,0.0,0.0,0.0,0.0,0.0,0.0,0.0,0.0,0.0,0.0,0.0,0.0,0.0,0.0,0.0,0.0,0.0,0.0,0.0,0.0,0.0,0.0,0.0,0.0,0.0,0.0,-2.8291,-2.8291,-2.8291,-2.8291,-2.8291,-2.8291,-2.8291,-2.8291,-2.8291,-2.8291,-2.8291,-2.8291,-2.8291,-2.8291,-2.8291,-2.8291,-2.8291,-2.8291,-2.8291,-2.8291,-2.8291,-2.8291,-2.89,-2.9911,-3.1224,-3.1735,-3.3654,-3.6063,-3.6295,-3.7456,-3.8906,-3.9132,-3.9421,-3.9697,-3.9697,-3.9697,-3.9697,-3.9697,-3.9697,-3.9697,-3.9697,-3.9697,-3.9697,-3.9697,-3.9697,-3.9697,-3.9697,-3.9697,-3.9697,-3.9697,-3.9697,-3.9697,-3.9697,-3.9697,-3.9697,-3.9697,-3.9697,-3.9697,-3.9697,-3.9697,-3.9697,-3.9697,-4.0173,-4.0932,-4.2266,-4.2834,-4.3693,-4.5024,-4.5115,-4.5403,-4.6166,-4.6166,-4.6535,-4.7309,-4.7309,-4.7309,-4.7309,-4.7309,-4.7309,-4.7309,-4.7309,-4.7309,-4.7309,-4.7309,-4.7309,0.0,0.0,0.0,0.0,0.0,0.0,-1.5337,-1.5424,0.0,0.0,0.0,0.0,0.0,0.0,0.0,0.0,0.0,0.0,0.0,0.0,0.0,0.0,0.0,0.0,0.0,-2.8076,-2.8291,-2.8291,-2.8291,-2.8291,-2.8291,-2.8291,-2.8291,-2.8291,-2.8291,-2.8291,-2.8291,-2.8291,-2.8291,-2.8291,-2.8291,-2.8291,-2.8291,-2.8291,-2.8291,-2.8291,-2.8291,-2.8398,-2.8591,-3.0016,-3.1224,-3.2443,-3.393,-3.5685,-3.7337,-3.7902,-3.8467,-3.9032,-3.9521,-3.9697,-3.9697,-3.9697,-3.9697,-3.9697,-3.9697,-3.9697,-3.9697,-3.9697,-3.9697,-3.9697,-3.9697,-3.9697,-3.9697,-3.9697,-3.9697,-3.9697,-3.9697,-3.9697,-3.9697,-3.9697,-3.9697,-3.9697,-3.9697,-3.9697,-3.9697,-3.9697,-3.9697,-3.9697,-3.9697,-4.0844,-4.207,-4.3409,-4.4642,-4.5883,-4.7207,-4.7309,-4.7309,-4.7309,-4.7309,-4.7309,-4.7309,-4.7309,-4.7309,-4.7309,-4.7309,-4.7309,-4.7309,-4.7309,-4.7309,-4.7309,-4.7309,-4.7309,0.0,0.0,0.0,0.0,0.0,0.0,0.0,-1.5578,0.0,0.0,0.0,0.0,0.0,0.0,0.0,0.0,0.0,0.0,0.0,0.0,0.0,0.0,0.0,0.0,0.0,-2.8242,-2.8291,-2.8291,-2.8291,-2.8291,-2.8291,-2.8291,-2.8291,-2.8291,-2.8291,-2.8291,-2.8291,-2.8291,-2.8291,-2.8291,-2.8291,-2.8291,-2.8291,-2.8291,-2.8291,-2.8291,-2.8291,-2.89,-3.0016,-3.1327,-3.2028,-3.2465,-3.4293,-3.6222,-3.7914,-3.8492,-3.9057,-3.9546,-3.9647,-3.9697,-3.9697,-3.9697,-3.9697,-3.9697,-3.9697,-3.9697,-3.9697,-3.9697,-3.9697,-3.9697,-3.9697,-3.9697,-3.9697,-3.9697,-3.9697,-3.9697,-3.9697,-3.9697,-3.9697,-3.9697,-3.9697,-3.9697,-3.9697,-3.9697,-3.9697,-3.9697,-3.9697,-3.9697,-3.9697,-4.0844,-4.207,-4.3409,-4.4642,-4.5883,-4.7207,-4.7309,-4.7309,-4.7309,-4.7309,-4.7309,-4.7309,-4.7309,-4.7309,-4.7309,-4.7309,-4.7309,-4.7309,-4.7309,-4.7309,-4.7309,-4.7309,-4.7309,0.0,0.0,0.0,-1.5398,0.0,0.0,0.0,0.0,-1.5698,0.0,0.0,0.0,0.0,0.0,0.0,0.0,0.0,0.0,0.0,0.0,0.0,0.0,0.0,0.0,0.0,-2.8291,-2.8291,-2.8291,-2.8291,-2.8291,-2.8291,-2.8291,-2.8291,-2.8291,-2.8291,-2.8291,-2.8291,-2.9006,-2.9303,-2.9303,-2.9303,-2.9303,-2.9303,-2.9303,-2.9303,-2.9303,-3.0016,-3.0721,-3.144,-3.3094,-3.3712,-3.3935,-3.5535,-3.7171,-3.8479,-3.8768,-3.922,-3.9697,-3.9697,-3.9697,-3.9697,-3.9697,-3.9697,-3.9697,-3.9697,-3.9697,-3.9697,-3.9697,-3.9697,-3.9697,-3.9697,-3.9697,-3.9697,-3.9697,-3.9697,-3.9697,-3.9697,-3.9697,-3.9697,-3.9697,-3.9697,-3.9697,-3.9697,-3.9697,-3.9697,-3.9697,-3.9697,-3.9878,-4.0554,-4.1789,-4.3026,-4.4349,-4.5584,-4.6638,-4.7207,-4.7309,-4.7309,-4.7309,-4.7309,-4.7309,-4.7309,-4.7309,-4.7309,-4.7309,-4.7309,-4.7309,-4.7309,-4.7309,-4.7309,-4.7309,-4.7309,-4.7309,0.0,0.0,0.0,0.0,0.0,-1.557,0.0,0.0,0.0,-1.5785,0.0,0.0,0.0,0.0,0.0,0.0,0.0,0.0,0.0,0.0,0.0,0.0,0.0,0.0,0.0,-2.8174,-2.8203,-2.8281,-2.8223,-2.8203,-2.8291,-2.8495,-2.8698,-2.8698,-2.89,-2.9102,-2.9102,-3.011,-3.0721,-3.0721,-3.0721,-3.0721,-3.0721,-3.0721,-3.0721,-3.0721,-3.1825,-3.2431,-3.2778,-3.4487,-3.5382,-3.59,-3.7047,-3.8065,-3.8881,-3.8994,-3.932,-3.9697,-3.9697,-3.9697,-3.9697,-3.9697,-3.9697,-3.9697,-3.9697,-3.9697,-3.9697,-3.9697,-3.9697,-3.9697,-3.9697,-3.9697,-3.9697,-3.9697,-3.9697,-3.9697,-3.9697,-3.9697,-3.9697,-3.9697,-3.9697,-3.9697,-3.9697,-3.9697,-3.9697,-3.9697,-3.9878,-4.0465,-4.1505,-4.293,-4.4256,-4.5298,-4.6535,-4.7309,-4.7309,-4.7309,-4.7309,-4.7309,-4.7309,-4.7309,-4.7309,-4.7309,-4.7309,-4.7309,-4.7309,-4.7309,-4.7309,-4.7309,-4.7309,-4.7309,-4.7309,-4.7309,0.0,0.0,0.0,0.0,-1.6612,0.0,0.0,0.0,-1.5792,-1.5818,0.0,0.0,0.0,0.0,0.0,0.0,0.0,0.0,0.0,0.0,0.0,0.0,0.0,0.0,0.0,0.0,-2.7891,-2.8262,-2.7949,-2.79,-2.8271,-2.9408,-3.012,-3.012,-3.1224,-3.1836,-3.1836,-3.2028,-3.2028,-3.2028,-3.2028,-3.2028,-3.2028,-3.2028,-3.2028,-3.2129,-3.223,-3.3055,-3.4225,-3.4909,-3.622,-3.7754,-3.8479,-3.8755,-3.8931,-3.9421,-3.9634,-3.9697,-3.9697,-3.9697,-3.9697,-3.9697,-3.9697,-3.9697,-3.9697,-3.9697,-3.9697,-3.9697,-3.9697,-3.9697,-3.9697,-3.9697,-3.9697,-3.9697,-3.9697,-3.9697,-3.9697,-3.9697,-3.9697,-3.9697,-3.9697,-3.9697,-3.9697,-3.9697,-3.9697,-3.9697,-4.0642,-4.1406,-4.1604,-4.3693,-4.5207,-4.5403,-4.6535,-4.7309,-4.7309,-4.7309,-4.7309,-4.7309,-4.7309,-4.7309,-4.7309,-4.7309,-4.7309,-4.7309,-4.7309,-4.7309,-4.7309,-4.7309,-4.7309,-4.7309,-4.7309,-4.7309,0.0,0.0,0.0,0.0,0.0,0.0,-1.7777,0.0,-1.6662,0.0,0.0,0.0,0.0,0.0,0.0,0.0,0.0,0.0,0.0,0.0,0.0,0.0,0.0,0.0,0.0,0.0,0.0,0.0,0.0,-2.8252,-2.9387,-3.0016,-3.0618,-3.1429,-3.2039,-3.2331,-3.2331,-3.3155,-3.3563,-3.3563,-3.3563,-3.3563,-3.3563,-3.3563,-3.3563,-3.3563,-3.435,-3.5223,-3.6075,-3.6604,-3.7469,-3.8567,-3.9132,-3.9346,-3.9371,-3.9609,-3.9697,-3.9697,-3.9697,-3.9697,-3.9697,-3.9697,-3.9697,-3.9697,-3.9697,-3.9697,-3.9697,-3.9697,-3.9697,-3.9697,-3.9697,-3.9697,-3.9697,-3.9697,-3.9697,-3.9697,-3.9697,-3.9697,-3.9697,-3.9697,-3.9697,-3.9697,-3.9697,-3.9697,-3.9697,-3.9697,-4.0173,-4.1032,-4.2558,-4.3598,-4.4826,-4.6344,-4.7019,-4.7309,-4.7309,-4.7309,-4.7309,-4.7309,-4.7309,-4.7309,-4.7309,-4.7309,-4.7309,-4.7309,-4.7309,-4.7309,-4.7309,-4.7309,-4.7309,-4.7309,-4.7309,-4.7309,-2.3152,0.0,0.0,0.0,0.0,0.0,0.0,0.0,0.0,0.0,0.0,0.0,0.0,0.0,0.0,0.0,0.0,0.0,0.0,0.0,0.0,0.0,0.0,0.0,0.0,0.0,0.0,0.0,0.0,0.0,-2.9682,-3.0421,-3.1327,-3.223,-3.3032,-3.3441,-3.3441,-3.4459,-3.4981,-3.4981,-3.4981,-3.4981,-3.4981,-3.4981,-3.4981,-3.4981,-3.5966,-3.6671,-3.7224,-3.7776,-3.8354,-3.8931,-3.9484,-3.9697,-3.9697,-3.9697,-3.9697,-3.9697,-3.9697,-3.9697,-3.9697,-3.9697,-3.9697,-3.9697,-3.9697,-3.9697,-3.9697,-3.9697,-3.9697,-3.9697,-3.9697,-3.9697,-3.9697,-3.9697,-3.9697,-3.9697,-3.9697,-3.9697,-3.9697,-3.9697,-3.9697,-3.9697,-3.9697,-3.9697,-3.9788,-4.0173,-4.0554,-4.1505,-4.3787,-4.4349,-4.5207,-4.7121,-4.7309,-4.7309,-4.7309,-4.7309,-4.7309,-4.7309,-4.7309,-4.7309,-4.7309,-4.7309,-4.7309,-4.7309,-4.7309,-4.7309,-4.7309,-4.7309,-4.7309,-4.7309,-4.7309,-4.7309,0.0,0.0,0.0,-2.1542,0.0,0.0,0.0,0.0,-1.9397,0.0,0.0,0.0,0.0,0.0,0.0,0.0,0.0,0.0,0.0,0.0,0.0,0.0,0.0,0.0,0.0,0.0,0.0,0.0,0.0,0.0,-2.8349,-3.0824,-3.223,-3.2331,-3.4848,-3.625,-3.625,-3.6358,-3.6358,-3.6358,-3.6358,-3.6358,-3.6358,-3.6358,-3.6358,-3.6358,-3.6358,-3.6671,-3.7224,-3.7776,-3.8354,-3.8931,-3.9484,-3.9697,-3.9697,-3.9697,-3.9697,-3.9697,-3.9697,-3.9697,-3.9697,-3.9697,-3.9697,-3.9697,-3.9697,-3.9697,-3.9697,-3.9697,-3.9697,-3.9697,-3.9697,-3.9697,-3.9697,-3.9697,-3.9697,-3.9697,-3.9697,-3.9697,-3.9697,-3.9697,-3.9697,-3.9697,-3.9697,-3.9697,-4.007,-4.1319,-4.2544,-4.3882,-4.5207,-4.6447,-4.7207,-4.7309,-4.7309,-4.7309,-4.7309,-4.7309,-4.7309,-4.7309,-4.7309,-4.7309,-4.7309,-4.7309,-4.7309,-4.7309,-4.7309,-4.7309,-4.7309,-4.7309,-4.7309,-4.7309,-4.7309,-4.7309,0.0,0.0,-2.5158,-2.4354,0.0,0.0,0.0,0.0,0.0,0.0,0.0,0.0,0.0,0.0,0.0,0.0,0.0,0.0,0.0,0.0,0.0,0.0,0.0,0.0,0.0,0.0,0.0,0.0,0.0,0.0,0.0,-3.0514,-3.1836,-3.3662,-3.4569,-3.5463,-3.6358,-3.6358,-3.6358,-3.637,-3.6734,-3.6709,-3.637,-3.6734,-3.691,-3.691,-3.691,-3.7437,-3.8316,-3.8504,-3.8919,-3.9433,-3.9622,-3.9697,-3.9697,-3.9697,-3.9697,-3.9697,-3.9697,-3.9697,-3.9697,-3.9697,-3.9697,-3.9697,-3.9697,-3.9697,-3.9697,-3.9697,-3.9697,-3.9697,-3.9697,-3.9697,-3.9697,-3.9697,-3.9697,-3.9697,-3.9697,-3.9697,-3.9697,-3.9697,-3.9697,-3.9981,-4.0844,-4.0932,-4.1132,-4.1505,-4.2641,-4.3975,-4.5207,-4.5779,-4.6358,-4.7207,-4.7309,-4.7309,-4.7309,-4.7309,-4.7309,-4.7309,-4.7309,-4.7309,-4.7309,-4.7309,-4.7309,-4.7309,-4.7309,-4.7309,-4.7309,-4.7309,-4.7309,-4.7309,-4.7309,-4.7309,-2.8901,-2.8128,0.0,-2.6649,-2.6797,0.0,-2.4922,0.0,0.0,0.0,0.0,0.0,0.0,0.0,0.0,0.0,0.0,0.0,0.0,0.0,0.0,0.0,0.0,0.0,0.0,0.0,-2.5996,-2.6738,0.0,0.0,0.0,0.0,-3.1133,-3.2855,-3.3871,-3.4775,-3.5667,-3.6156,-3.6358,-3.637,-3.6722,-3.6709,-3.6383,-3.6935,-3.7186,-3.7199,-3.7387,-3.8002,-3.8868,-3.8868,-3.9195,-3.9697,-3.9697,-3.9697,-3.9697,-3.9697,-3.9697,-3.9697,-3.9697,-3.9697,-3.9697,-3.9697,-3.9697,-3.9697,-3.9697,-3.9697,-3.9697,-3.9697,-3.9697,-3.9697,-3.9697,-3.9697,-3.9697,-3.9697,-3.9697,-3.9697,-3.9697,-3.9697,-3.9697,-3.9697,-3.9697,-4.007,-4.1406,-4.1985,-4.2461,-4.2834,-4.3693,-4.4642,-4.5883,-4.6062,-4.6358,-4.7207,-4.7309,-4.7309,-4.7309,-4.7309,-4.7309,-4.7309,-4.7309,-4.7309,-4.7309,-4.7309,-4.7309,-4.7309,-4.7309,-4.7309,-4.7309,-4.7309,-4.7309,-4.7309,-4.7309,-4.7309]}]]